[[{"header":{"parameterUnit":"m.s-1","parameterCategory":1,"la1":30.6,"la2":28.766,"lo1":-90.7593,"lo2":-88.6598,"dy":0.0162,"dx":0.0183,"nx":116,"ny":114,"refTime":"2024-04-02T18:00:00:Z","depth":0,"parameterNumber":2,"parameterNumberName":"U-component_of_WINDS"},"data":[0.0,0.0,0.0,0.0,0.0,0.0,0.0,0.0,0.0,0.0,0.0,0.0,0.0,0.0,0.0,0.0,0.0,0.0,0.0,0.0,0.0,0.0,0.0,0.0,0.0,0.0,0.0,0.0,0.0,0.0,0.0,0.0,0.0,0.0,0.0,0.0,0.0,0.0,0.0,0.0,0.0,0.0,0.0,0.0,0.0,0.0,0.0,0.0,0.0,0.0,0.0,0.0,0.0,0.0,0.0,0.0,0.0,0.0,0.0,0.0,0.0,0.0,0.0,0.0,0.0,0.0,0.0,0.0,0.0,0.0,0.0,0.0,0.0,0.0,0.0,0.0,0.0,0.0,0.0,0.0,0.0,0.0,0.0,0.0,0.0,0.0,0.0,0.0,0.0,0.0,0.0,0.0,0.0,0.0,0.0,0.0,0.0,0.0,0.0,0.0,0.0,0.0,0.0,0.0,0.0,0.0,0.0,0.0,0.0,0.0,0.0,0.0,0.0,0.0,0.0,0.0,0.0,0.0,0.0,0.0,0.0,0.0,0.0,0.0,0.0,0.0,0.0,0.0,0.0,0.0,0.0,0.0,0.0,0.0,0.0,0.0,0.0,0.0,0.0,0.0,0.0,0.0,0.0,0.0,0.0,0.0,0.0,0.0,0.0,0.0,0.0,0.0,0.0,0.0,0.0,0.0,0.0,0.0,0.0,0.0,0.0,0.0,0.0,0.0,0.0,0.0,0.0,0.0,0.0,0.0,0.0,0.0,0.0,0.0,0.0,0.0,0.0,0.0,0.0,0.0,0.0,0.0,0.0,0.0,0.0,0.0,0.0,0.0,0.0,0.0,0.0,0.0,0.0,0.0,0.0,0.0,0.0,0.0,0.0,0.0,0.0,0.0,0.0,0.0,0.0,0.0,0.0,0.0,0.0,0.0,0.0,0.0,0.0,0.0,0.0,0.0,0.0,0.0,0.0,0.0,0.0,0.0,0.0,0.0,0.0,0.0,0.0,0.0,0.0,0.0,0.0,0.0,0.0,0.0,0.0,0.0,0.0,0.0,0.0,0.0,0.0,0.0,0.0,0.0,0.0,0.0,0.0,0.0,0.0,0.0,0.0,0.0,0.0,0.0,0.0,0.0,0.0,0.0,0.0,0.0,0.0,0.0,0.0,0.0,0.0,0.0,0.0,0.0,0.0,0.0,0.0,0.0,0.0,0.0,0.0,0.0,0.0,0.0,0.0,0.0,0.0,0.0,0.0,0.0,0.0,0.0,0.0,0.0,0.0,0.0,0.0,0.0,0.0,0.0,0.0,0.0,0.0,0.0,0.0,0.0,0.0,0.0,0.0,0.0,0.0,0.0,0.0,0.0,0.0,0.0,0.0,0.0,0.0,0.0,0.0,0.0,0.0,0.0,0.0,0.0,0.0,0.0,0.0,0.0,0.0,0.0,0.0,0.0,0.0,0.0,0.0,0.0,0.0,0.0,0.0,0.0,0.0,0.0,0.0,0.0,0.0,0.0,0.0,0.0,0.0,0.0,0.0,0.0,0.0,0.0,0.0,0.0,0.0,0.0,0.0,0.0,0.0,0.0,0.0,0.0,0.0,0.0,0.0,0.0,0.0,0.0,0.0,0.0,0.0,0.0,0.0,0.0,0.0,0.0,0.0,0.0,0.0,0.0,0.0,0.0,0.0,0.0,0.0,0.0,0.0,0.0,0.0,0.0,0.0,0.0,0.0,0.0,0.0,0.0,0.0,0.0,0.0,0.0,0.0,0.0,0.0,0.0,0.0,0.0,0.0,0.0,0.0,0.0,0.0,0.0,0.0,0.0,0.0,0.0,0.0,0.0,0.0,0.0,0.0,0.0,0.0,0.0,0.0,0.0,0.0,0.0,0.0,0.0,0.0,0.0,0.0,0.0,0.0,0.0,0.0,0.0,0.0,0.0,0.0,0.0,0.0,0.0,0.0,0.0,0.0,0.0,0.0,0.0,0.0,0.0,0.0,0.0,0.0,0.0,0.0,0.0,0.0,0.0,0.0,0.0,0.0,0.0,0.0,0.0,0.0,0.0,0.0,0.0,0.0,0.0,0.0,0.0,0.0,0.0,0.0,0.0,0.0,0.0,0.0,0.0,0.0,0.0,0.0,0.0,0.0,0.0,0.0,0.0,0.0,0.0,0.0,0.0,0.0,0.0,0.0,0.0,0.0,0.0,0.0,0.0,0.0,0.0,0.0,0.0,0.0,0.0,0.0,0.0,0.0,0.0,0.0,0.0,0.0,0.0,0.0,0.0,0.0,0.0,0.0,0.0,0.0,0.0,0.0,0.0,0.0,0.0,0.0,0.0,0.0,0.0,0.0,0.0,0.0,0.0,0.0,0.0,0.0,0.0,0.0,0.0,0.0,0.0,0.0,0.0,0.0,0.0,0.0,0.0,0.0,0.0,0.0,0.0,0.0,0.0,0.0,0.0,0.0,0.0,0.0,0.0,0.0,0.0,0.0,0.0,0.0,0.0,0.0,0.0,0.0,0.0,0.0,0.0,0.0,0.0,0.0,0.0,0.0,0.0,0.0,0.0,0.0,0.0,0.0,0.0,0.0,0.0,0.0,0.0,0.0,0.0,0.0,0.0,0.0,0.0,0.0,0.0,0.0,0.0,0.0,0.0,0.0,0.0,0.0,0.0,0.0,0.0,0.0,0.0,0.0,0.0,0.0,0.0,0.0,0.0,0.0,0.0,0.0,0.0,0.0,0.0,0.0,0.0,0.0,0.0,0.0,0.0,0.0,0.0,0.0,0.0,0.0,0.0,0.0,0.0,0.0,0.0,0.0,0.0,0.0,0.0,0.0,0.0,0.0,0.0,0.0,0.0,0.0,0.0,0.0,0.0,0.0,0.0,0.0,0.0,0.0,0.0,0.0,0.0,0.0,0.0,0.0,0.0,0.0,0.0,0.0,0.0,0.0,0.0,0.0,0.0,0.0,0.0,0.0,0.0,0.0,0.0,0.0,0.0,0.0,0.0,0.0,0.0,0.0,0.0,0.0,0.0,0.0,0.0,0.0,0.0,0.0,0.0,0.0,0.0,0.0,0.0,0.0,0.0,0.0,0.0,0.0,0.0,0.0,0.0,0.0,0.0,0.0,0.0,0.0,0.0,0.0,0.0,0.0,0.0,0.0,0.0,0.0,0.0,0.0,0.0,0.0,0.0,0.0,0.0,0.0,0.0,0.0,0.0,0.0,0.0,0.0,0.0,0.0,0.0,0.0,0.0,0.0,0.0,0.0,0.0,0.0,0.0,0.0,0.0,0.0,0.0,0.0,0.0,0.0,0.0,0.0,0.0,0.0,0.0,0.0,0.0,0.0,0.0,0.0,0.0,0.0,0.0,0.0,0.0,0.0,0.0,0.0,0.0,0.0,0.0,0.0,0.0,0.0,0.0,0.0,0.0,0.0,0.0,0.0,0.0,0.0,0.0,0.0,0.0,0.0,0.0,0.0,0.0,0.0,0.0,0.0,0.0,0.0,0.0,0.0,0.0,0.0,0.0,0.0,0.0,0.0,0.0,0.0,0.0,0.0,0.0,0.0,0.0,0.0,0.0,0.0,0.0,0.0,0.0,0.0,0.0,0.0,0.0,0.0,0.0,0.0,0.0,0.0,0.0,0.0,0.0,0.0,0.0,0.0,0.0,0.0,0.0,0.0,0.0,0.0,0.0,0.0,0.0,0.0,0.0,0.0,0.0,0.0,0.0,0.0,0.0,0.0,0.0,0.0,0.0,0.0,0.0,0.0,0.0,0.0,0.0,0.0,0.0,0.0,0.0,0.0,0.0,0.0,0.0,0.0,0.0,0.0,0.0,0.0,0.0,0.0,0.0,0.0,0.0,0.0,0.0,0.0,0.0,0.0,0.0,0.0,0.0,0.0,0.0,0.0,0.0,0.0,0.0,0.0,0.0,0.0,0.0,0.0,0.0,0.0,0.0,0.0,0.0,0.0,0.0,0.0,0.0,0.0,0.0,0.0,0.0,0.0,0.0,0.0,0.0,0.0,0.0,0.0,0.0,0.0,0.0,0.0,0.0,0.0,0.0,0.0,0.0,0.0,0.0,0.0,0.0,0.0,0.0,0.0,0.0,0.0,0.0,0.0,0.0,0.0,0.0,0.0,0.0,0.0,0.0,0.0,0.0,0.0,0.0,0.0,0.0,0.0,0.0,0.0,0.0,0.0,0.0,0.0,0.0,0.0,0.0,0.0,0.0,0.0,0.0,0.0,0.0,0.0,0.0,0.0,0.0,0.0,0.0,0.0,0.0,0.0,0.0,0.0,0.0,0.0,0.0,0.0,0.0,0.0,0.0,0.0,0.0,0.0,0.0,0.0,0.0,0.0,0.0,0.0,0.0,0.0,0.0,0.0,0.0,0.0,0.0,0.0,0.0,0.0,0.0,0.0,0.0,0.0,0.0,0.0,0.0,0.0,0.0,0.0,0.0,0.0,0.0,0.0,0.0,0.0,0.0,0.0,0.0,0.0,0.0,0.0,0.0,0.0,0.0,0.0,0.0,0.0,0.0,0.0,0.0,0.0,0.0,0.0,0.0,0.0,0.0,0.0,0.0,0.0,0.0,0.0,0.0,0.0,0.0,0.0,0.0,0.0,0.0,0.0,0.0,0.0,0.0,0.0,0.0,0.0,0.0,0.0,0.0,0.0,0.0,0.0,0.0,0.0,0.0,0.0,0.0,0.0,0.0,0.0,0.0,0.0,0.0,0.0,0.0,0.0,0.0,0.0,0.0,0.0,0.0,0.0,0.0,0.0,0.0,0.0,0.0,0.0,0.0,0.0,0.0,0.0,0.0,0.0,0.0,0.0,0.0,0.0,0.0,0.0,0.0,0.0,0.0,0.0,0.0,0.0,0.0,0.0,0.0,0.0,0.0,0.0,0.0,0.0,0.0,0.0,0.0,0.0,0.0,0.0,0.0,0.0,0.0,0.0,0.0,0.0,0.0,0.0,0.0,0.0,0.0,0.0,0.0,0.0,0.0,0.0,0.0,0.0,0.0,0.0,0.0,0.0,0.0,0.0,0.0,0.0,0.0,0.0,0.0,0.0,0.0,0.0,0.0,0.0,0.0,0.0,0.0,0.0,0.0,0.0,0.0,0.0,0.0,0.0,0.0,0.0,0.0,0.0,0.0,0.0,0.0,0.0,0.0,0.0,0.0,0.0,0.0,0.0,0.0,0.0,0.0,0.0,0.0,0.0,0.0,0.0,0.0,0.0,0.0,0.0,0.0,0.0,0.0,0.0,0.0,0.0,0.0,0.0,0.0,0.0,0.0,0.0,0.0,0.0,0.0,0.0,0.0,0.0,0.0,0.0,0.0,0.0,0.0,0.0,0.0,0.0,0.0,0.0,0.0,0.0,0.0,0.0,0.0,0.0,0.0,0.0,0.0,0.0,0.0,0.0,0.0,0.0,0.0,0.0,0.0,0.0,0.0,0.0,0.0,0.0,0.0,0.0,0.0,0.0,0.0,0.0,0.0,0.0,0.0,0.0,0.0,0.0,0.0,0.0,0.0,0.0,0.0,0.0,0.0,0.0,0.0,0.0,0.0,0.0,0.0,0.0,0.0,0.0,0.0,0.0,0.0,0.0,0.0,0.0,0.0,0.0,0.0,0.0,0.0,0.0,0.0,0.0,0.0,0.0,0.0,0.0,0.0,0.0,0.0,0.0,0.0,0.0,0.0,0.0,0.0,0.0,0.0,0.0,0.0,0.0,0.0,0.0,0.0,0.0,0.0,0.0,0.0,0.0,0.0,0.0,0.0,0.0,0.0,0.0,0.0,0.0,0.0,0.0,0.0,0.0,0.0,0.0,0.0,0.0,0.0,0.0,0.0,0.0,0.0,0.0,0.0,0.0,0.0,0.0,0.0,0.0,0.0,0.0,0.0,0.0,0.0,0.0,0.0,0.0,0.0,0.0,0.0,0.0,0.0,0.0,0.0,0.0,0.0,0.0,0.0,0.0,0.0,0.0,0.0,0.0,0.0,0.0,0.0,0.0,0.0,0.0,0.0,0.0,0.0,0.0,0.0,0.0,0.0,0.0,0.0,0.0,0.0,0.0,0.0,0.0,0.0,-4.2842,-4.2637,0.0,0.0,0.0,0.0,0.0,0.0,0.0,0.0,0.0,0.0,0.0,0.0,0.0,0.0,0.0,0.0,0.0,0.0,0.0,0.0,0.0,0.0,0.0,-5.5653,-5.5487,-5.5085,-5.5052,-5.5052,-5.5019,-5.4944,0.0,0.0,0.0,0.0,-5.454,-5.4188,-5.3518,-5.2562,-5.2163,-5.142,-5.0411,-5.1446,-5.234,-5.3096,0.0,0.0,0.0,0.0,0.0,0.0,0.0,0.0,0.0,0.0,0.0,0.0,0.0,0.0,0.0,0.0,0.0,0.0,0.0,0.0,0.0,0.0,0.0,0.0,0.0,0.0,0.0,0.0,0.0,0.0,0.0,0.0,0.0,0.0,0.0,0.0,0.0,0.0,0.0,0.0,0.0,0.0,0.0,0.0,0.0,0.0,0.0,0.0,0.0,0.0,0.0,0.0,0.0,0.0,0.0,0.0,0.0,0.0,0.0,0.0,0.0,0.0,0.0,0.0,0.0,0.0,0.0,0.0,0.0,0.0,-4.2498,-4.2092,0.0,0.0,0.0,0.0,0.0,0.0,0.0,0.0,0.0,0.0,0.0,0.0,0.0,0.0,0.0,0.0,0.0,0.0,0.0,0.0,0.0,-5.449,-5.449,-5.449,-5.4423,-5.4287,-5.4423,-5.4688,-5.5147,-5.5127,-5.515,-5.5282,-5.4514,-5.3689,-5.2803,-5.2238,-5.1601,-5.0894,-5.0117,-4.9396,-4.8718,-4.8759,-4.9439,-5.0694,-5.11,0.0,0.0,0.0,0.0,0.0,0.0,0.0,0.0,0.0,0.0,0.0,0.0,0.0,0.0,0.0,0.0,0.0,0.0,0.0,0.0,0.0,0.0,0.0,0.0,0.0,0.0,0.0,0.0,0.0,0.0,0.0,0.0,0.0,0.0,0.0,0.0,0.0,0.0,0.0,0.0,0.0,0.0,0.0,0.0,0.0,0.0,0.0,0.0,0.0,0.0,0.0,0.0,0.0,0.0,0.0,0.0,0.0,0.0,0.0,0.0,0.0,0.0,0.0,-4.4327,-4.4327,-4.4327,-4.4211,-4.4153,-4.4066,-4.2934,-4.244,-4.244,-4.244,0.0,0.0,0.0,0.0,0.0,0.0,0.0,0.0,0.0,0.0,0.0,0.0,0.0,0.0,0.0,0.0,0.0,0.0,0.0,-5.449,-5.449,-5.449,-5.4188,-5.3412,-5.4051,-5.4221,-5.3544,-5.403,-5.4656,-5.5249,-5.5011,-5.4615,-5.4083,-5.3957,-5.2789,-5.0562,-4.9072,-4.7904,-4.7105,-4.736,-4.7288,-4.6963,-4.7903,-4.8675,-4.9139,0.0,0.0,0.0,0.0,0.0,0.0,0.0,0.0,0.0,0.0,0.0,0.0,0.0,0.0,0.0,0.0,0.0,0.0,0.0,0.0,0.0,0.0,0.0,0.0,0.0,0.0,0.0,0.0,0.0,0.0,0.0,0.0,0.0,0.0,0.0,0.0,0.0,0.0,0.0,0.0,0.0,-4.5895,-4.5895,0.0,0.0,0.0,0.0,0.0,0.0,0.0,0.0,0.0,0.0,0.0,0.0,0.0,-4.575,-4.575,-4.5663,-4.5634,-4.5634,-4.5634,-4.5634,-4.5605,-4.5024,-4.4763,-4.4734,-4.4037,0.0,-4.3747,-4.3747,0.0,0.0,0.0,0.0,0.0,0.0,0.0,0.0,0.0,0.0,0.0,0.0,0.0,0.0,0.0,0.0,0.0,0.0,0.0,0.0,0.0,-5.3225,-5.3148,-5.314,-5.3367,-5.3724,-5.4175,-5.4388,-5.4535,-5.4746,-5.4163,-5.3447,-5.2513,-5.2139,-5.115,-4.9486,-4.8799,-4.8079,-4.7375,-4.7468,-4.7386,-4.7124,-4.7566,-4.7614,-4.7332,-4.7126,0.0,0.0,0.0,0.0,0.0,0.0,0.0,0.0,0.0,0.0,0.0,0.0,0.0,0.0,0.0,0.0,0.0,0.0,0.0,0.0,0.0,0.0,0.0,0.0,0.0,0.0,0.0,0.0,0.0,0.0,0.0,0.0,0.0,0.0,0.0,0.0,0.0,0.0,0.0,-4.5895,-4.5895,-4.5895,-4.5895,-4.5895,0.0,0.0,0.0,0.0,0.0,0.0,0.0,0.0,0.0,-4.5895,-4.5895,-4.5895,-4.5895,-4.5895,-4.5895,-4.5895,-4.5895,-4.5895,-4.5866,-4.5576,-4.5459,-4.543,-4.5169,-4.5053,-4.4995,-4.4298,-4.3979,-4.3979,0.0,0.0,0.0,0.0,-4.3805,-4.3544,0.0,0.0,0.0,0.0,0.0,0.0,0.0,0.0,0.0,0.0,0.0,0.0,-5.2461,-5.2349,-5.2536,-5.3152,-5.3306,-5.3711,-5.4482,-5.4583,-5.4388,-5.3956,-5.3284,-5.2305,-5.1109,-5.0394,-4.9572,-4.8663,-4.8663,-4.8304,-4.755,-4.755,-4.7462,-4.7288,-4.7288,-4.6945,-4.6369,-4.6577,-4.646,-4.6283,0.0,0.0,0.0,0.0,0.0,0.0,0.0,0.0,0.0,0.0,0.0,0.0,0.0,0.0,0.0,0.0,0.0,0.0,0.0,0.0,0.0,0.0,0.0,0.0,0.0,0.0,0.0,0.0,0.0,0.0,0.0,0.0,0.0,0.0,0.0,0.0,0.0,-4.5895,-4.5895,-4.5895,-4.5895,-4.5895,0.0,0.0,0.0,0.0,0.0,0.0,-4.5895,-4.5895,-4.5895,-4.5895,-4.5895,-4.5895,-4.5895,-4.5895,-4.5895,-4.5895,-4.5895,-4.5895,-4.5895,-4.5895,-4.5895,-4.5895,-4.5895,-4.573,-4.5417,-4.4762,-4.4472,-4.4472,-4.4472,-4.4472,-4.4472,-4.4472,-4.4356,-4.4211,0.0,0.0,0.0,0.0,0.0,0.0,0.0,0.0,0.0,0.0,0.0,-5.2277,-5.2716,-5.2744,-5.2964,-5.3524,-5.4365,-5.4442,-5.3464,-5.3955,-5.3913,-5.2989,-5.2754,-5.2124,-5.1109,-5.0172,-4.9427,-4.8663,-4.8663,-4.8054,-4.6836,-4.6836,-4.6563,-4.5982,-4.5982,-4.6272,-4.6766,-4.6766,-4.6554,-4.6238,-4.6654,0.0,0.0,0.0,0.0,0.0,0.0,0.0,0.0,0.0,0.0,0.0,0.0,0.0,0.0,0.0,0.0,0.0,0.0,0.0,0.0,0.0,0.0,0.0,0.0,0.0,0.0,0.0,0.0,0.0,0.0,0.0,0.0,0.0,0.0,0.0,0.0,0.0,0.0,-4.5895,-4.5895,0.0,0.0,0.0,0.0,-4.5895,-4.5895,-4.5895,-4.5895,-4.5895,-4.5895,-4.5895,-4.5895,-4.5895,-4.5895,-4.5895,-4.5895,-4.5895,-4.5895,-4.5895,-4.5895,-4.5895,-4.5895,-4.5895,-4.5895,-4.5338,-4.4452,-4.5417,-4.5779,-4.5779,-4.5779,-4.5779,-4.5779,-4.5779,-4.5372,-4.485,0.0,0.0,0.0,0.0,0.0,-5.2409,-5.2409,-5.2266,-5.2158,-5.2086,-5.2372,-5.2622,-5.2777,-5.3122,-5.3596,-5.4235,-5.4521,-5.4374,-5.3809,-5.3608,-5.2801,-5.1213,-5.0683,-4.9944,-4.8987,-4.8639,-4.8333,-4.813,-4.813,-4.7898,-4.7433,-4.7433,-4.7317,-4.7114,-4.7114,-4.6998,-4.6749,-4.6388,-4.6376,-4.6596,-4.6737,-4.6986,0.0,0.0,0.0,0.0,0.0,0.0,0.0,0.0,0.0,0.0,0.0,0.0,0.0,0.0,0.0,0.0,0.0,0.0,0.0,0.0,0.0,0.0,0.0,0.0,0.0,0.0,0.0,0.0,0.0,0.0,0.0,0.0,0.0,0.0,0.0,0.0,0.0,-4.5895,-4.5895,0.0,-4.5895,-4.5895,-4.5895,-4.5895,-4.5247,-4.5201,-4.5866,-4.5247,-4.5201,-4.5895,-4.5247,-4.4851,-4.4851,-4.4247,-4.389,-4.389,-4.389,-4.389,-4.389,-4.389,-4.389,-4.389,-4.389,-4.3701,-4.3368,-4.3748,-4.389,-4.3937,-4.462,-4.448,-4.389,-4.389,-4.3751,-4.35,0.0,0.0,0.0,0.0,-5.3102,-5.3102,-5.303,-5.2884,-5.2737,-5.2626,-5.2871,-5.3117,-5.334,-5.3642,-5.415,-5.4865,-5.4495,-5.3943,-5.3212,-5.2535,-5.1322,-4.9469,-4.8978,-4.842,-4.7829,-4.7782,-4.7666,-4.7462,-4.7462,-4.7346,-4.7143,-4.7143,-4.7143,-4.7143,-4.7143,-4.6911,-4.6475,-4.6069,-4.6127,-4.6534,-4.6691,-4.694,-4.723,0.0,0.0,0.0,0.0,0.0,0.0,0.0,0.0,0.0,0.0,0.0,0.0,0.0,0.0,0.0,0.0,0.0,0.0,0.0,0.0,0.0,0.0,0.0,0.0,0.0,0.0,0.0,0.0,0.0,0.0,0.0,0.0,0.0,0.0,-4.5338,-4.5475,-4.585,-4.5895,-4.573,-4.5384,-4.5338,-4.5201,-4.4879,-4.4527,-4.4452,-4.4805,-4.4499,-4.4452,-4.4805,-4.4172,-4.3796,-4.3796,-4.3129,-4.2792,-4.2792,-4.2792,-4.2792,-4.2792,-4.2792,-4.2792,-4.2792,-4.2792,-4.2598,-4.2306,-4.2647,-4.2404,-4.1864,-4.3273,-4.3416,-4.2792,-4.2792,-4.2792,-4.2711,0.0,0.0,0.0,-5.449,-5.449,-5.4452,-5.4227,-5.419,-5.4076,-5.3655,-5.3616,-5.3831,-5.4308,-5.4405,-5.4697,-5.5345,-5.4559,-5.3318,-5.1722,-5.0713,-4.9486,-4.78,-4.7724,-4.7724,-4.7724,-4.7724,-4.7404,-4.6749,-4.6749,-4.6475,-4.5895,-4.5895,-4.5895,-4.5895,-4.5895,-4.5895,-4.5895,-4.5895,-4.5895,-4.5924,-4.6592,-4.6475,-4.6069,0.0,0.0,0.0,0.0,0.0,0.0,0.0,0.0,0.0,0.0,0.0,0.0,0.0,0.0,0.0,0.0,0.0,0.0,0.0,0.0,0.0,0.0,0.0,0.0,0.0,0.0,0.0,0.0,0.0,0.0,0.0,0.0,0.0,-4.4125,-4.4266,-4.4666,-4.5685,-4.5776,-4.5384,-4.4359,-4.4266,-4.3843,-4.2889,-4.3701,-4.3796,-4.284,-4.3701,-4.3796,-4.284,-4.2792,-4.2744,-4.2744,-4.2744,-4.2695,-4.2695,-4.2695,-4.2695,-4.2695,-4.2695,-4.2695,-4.2695,-4.2695,-4.211,-4.1219,-4.2257,-4.1544,-3.9878,-4.1963,-4.2744,-4.2695,-4.2695,-4.2668,-4.2587,0.0,0.0,-5.449,-5.449,-5.449,-5.4452,-5.4227,-5.4227,-5.4043,-5.3655,-5.4072,-5.4417,-5.4413,-5.4826,-5.5215,-5.5409,-5.5131,-5.403,-5.1765,-5.0953,-4.9312,-4.6538,-4.6417,-4.6417,-4.6417,-4.6417,-4.633,-4.6156,-4.6156,-4.604,-4.5895,-4.5895,-4.5895,-4.5895,-4.5895,-4.5895,-4.5895,-4.5895,-4.5895,-4.5924,-4.6592,-4.6998,-4.7288,0.0,0.0,0.0,0.0,0.0,0.0,0.0,0.0,0.0,0.0,0.0,0.0,0.0,0.0,0.0,0.0,0.0,0.0,0.0,0.0,0.0,0.0,0.0,0.0,0.0,0.0,0.0,0.0,0.0,0.0,0.0,-4.1815,-4.2012,-4.3081,-4.3225,-4.3321,-4.3606,-4.3654,-4.3559,-4.3225,-4.3225,-4.3129,-4.284,-4.2355,-4.2279,-4.2792,-4.2328,-4.2279,-4.2792,-4.2061,-4.1667,-4.1667,-4.0895,-4.0567,-4.0567,-4.0567,-4.0567,-4.0567,-4.0567,-4.0567,-4.0567,-4.0567,-4.0364,-4.0134,-4.0415,-4.0236,-3.9826,-4.1145,-4.1169,-4.0567,-4.0567,-4.031,-3.9925,0.0,-5.591,-5.5421,-5.5421,-5.5421,-5.5345,-5.5155,-5.5117,-5.4963,-5.4568,-5.4886,-5.5067,-5.4826,-5.5183,-5.5409,-5.5409,-5.475,-5.346,-5.1364,-4.9617,-4.7851,-4.5969,-4.5895,-4.5895,-4.5895,-4.5895,-4.5895,-4.5895,-4.5895,-4.5895,-4.5895,-4.5895,-4.5895,-4.5895,-4.5895,-4.5895,-4.5895,-4.5895,-4.5895,-4.5924,-4.6272,-4.665,-4.7027,-4.7288,-4.7375,-4.7404,-4.7695,-4.7782,-4.784,-4.8188,0.0,0.0,0.0,0.0,0.0,0.0,0.0,0.0,0.0,0.0,0.0,0.0,0.0,0.0,0.0,0.0,0.0,0.0,0.0,0.0,0.0,0.0,0.0,0.0,-4.0844,-4.0794,-4.1395,-4.1864,-4.2306,-4.2744,-4.2792,-4.2647,-4.2159,-4.2159,-4.1963,-4.1544,-4.1319,-4.1269,-4.1495,-4.1319,-4.1269,-4.1468,-4.0895,-4.0541,-4.0541,-3.9981,-3.9697,-3.9697,-3.9697,-3.9697,-3.9697,-3.9697,-3.9697,-3.9697,-3.9697,-3.9697,-3.9697,-3.9697,-3.9697,0.0,0.0,0.0,0.0,0.0,-3.9496,-3.922,0.0,-5.7218,-5.668,-5.668,-5.668,-5.6641,-5.6408,-5.6441,-5.6284,-5.5919,-5.5846,-5.5766,-5.545,-5.545,-5.5409,-5.5409,-5.3962,-5.2366,-5.0715,-4.7629,-4.5895,-4.5895,-4.5895,-4.5895,-4.5895,-4.5895,-4.5895,-4.5895,-4.5895,-4.5895,-4.5895,-4.5895,-4.5895,-4.5895,-4.5895,-4.5895,-4.5895,-4.5895,-4.5895,-4.5895,-4.5895,-4.5895,-4.5953,-4.6505,-4.6691,-4.6795,-4.7375,-4.7579,-4.7579,-4.7637,0.0,0.0,0.0,0.0,0.0,0.0,0.0,0.0,0.0,0.0,0.0,0.0,0.0,0.0,0.0,0.0,0.0,0.0,0.0,0.0,0.0,0.0,0.0,0.0,-4.0262,-3.9697,-3.9697,-4.0465,-4.1369,-4.2355,-4.2452,-4.2061,-4.1119,-4.1019,-4.0642,-3.98,-4.0567,-4.0668,-3.9824,-4.0644,0.0,0.0,0.0,-3.9873,-3.9873,-3.9873,-3.9873,-3.9873,-3.9873,-3.9873,-3.9873,-3.9873,-3.9873,-3.9873,-3.9873,-3.9848,-3.9798,-3.9798,-3.9747,-3.9697,-3.9697,-3.9697,-3.9697,-3.9697,-3.9697,-3.9697,0.0,-5.7218,-5.668,-5.668,-5.668,-5.6641,-5.6408,-5.6525,-5.6486,-5.6086,-5.6205,-5.6165,-5.5766,-5.5726,-5.5645,-5.5409,-5.46,-5.2872,-4.9974,-4.7361,-4.5895,-4.5895,-4.5895,-4.5895,-4.5895,-4.5895,-4.5895,-4.5895,-4.5895,-4.5895,-4.5895,-4.5895,-4.5895,-4.5895,-4.5895,-4.5895,-4.5895,-4.5895,-4.5895,-4.5895,-4.5895,-4.5895,-4.5895,-4.6011,-4.6069,-4.6098,-4.6214,-4.6243,-4.633,-4.6853,-4.6998,-4.7114,-4.7608,-4.7869,0.0,0.0,0.0,0.0,0.0,0.0,0.0,0.0,0.0,0.0,0.0,0.0,0.0,0.0,0.0,0.0,0.0,0.0,0.0,-4.0134,-3.9826,-3.9697,-3.9697,-3.9878,-4.0083,-4.0262,-4.0287,-4.0236,-4.0032,-3.9981,-3.9929,-3.9697,-3.9878,-4.008,-4.0325,-4.0559,-4.0761,-4.1003,-4.0974,-4.0974,-4.0974,-4.0974,-4.0974,-4.0974,0.0,0.0,-4.0974,-4.0974,-4.0974,-4.0974,-4.0974,-4.0777,-4.035,-4.035,-4.0099,-3.9697,-3.9697,-3.9697,-3.9697,-3.9697,-3.9697,-3.9697,0.0,-5.7218,-5.668,-5.668,-5.668,-5.6641,-5.6564,-5.6641,-5.6564,-5.6284,-5.6362,-5.6284,-5.5966,-5.5927,-5.5716,-5.5085,-5.3648,-5.1724,-4.9191,-4.7585,-4.6462,-4.594,-4.5895,-4.5895,-4.5895,-4.5895,-4.5895,-4.5895,-4.5895,-4.5895,-4.5895,-4.5895,-4.5895,-4.5895,-4.5895,-4.5895,-4.5895,-4.5895,-4.5895,-4.5895,-4.5895,-4.5895,-4.5895,-4.5895,-4.5895,-4.5895,-4.5895,-4.5895,-4.5924,-4.6243,-4.6359,-4.6417,-4.6737,-4.7056,-4.7195,0.0,0.0,0.0,0.0,0.0,0.0,0.0,0.0,0.0,0.0,0.0,0.0,0.0,0.0,-4.1095,-4.0567,0.0,-4.0262,-3.98,-3.9697,-3.9697,-3.9697,-3.9923,-3.9998,-3.9722,-3.9697,-3.9798,-4.0074,-4.0099,-4.0224,-4.0501,-4.0526,-4.0651,-4.0902,-4.0874,-4.1,-4.1275,-4.1275,-4.1275,-4.1275,-4.1275,-4.1275,-4.1275,-4.1275,-4.1275,-4.1275,-4.1275,-4.1275,-4.1275,-4.1275,-4.1125,-4.0874,-4.0874,-4.0601,-4.0099,-4.0099,-3.9948,-3.9697,-3.9697,-3.9697,-3.9697,0.0,-5.7218,-5.668,-5.668,-5.668,-5.668,-5.668,-5.668,-5.6641,-5.6447,-5.6447,-5.6402,-5.6165,-5.6165,-5.5726,-5.4639,-5.2652,-5.069,-4.8994,-4.7969,-4.706,-4.6269,-4.6001,-4.5895,-4.5895,-4.5895,-4.5895,-4.5895,-4.5895,-4.5895,-4.5895,-4.5895,-4.5895,-4.5895,-4.5895,-4.5895,-4.5895,-4.5895,-4.5895,-4.5895,-4.5895,-4.5895,-4.5895,-4.5895,-4.5895,-4.5895,-4.5895,-4.5895,-4.5895,-4.564,-4.573,-4.585,-4.5458,-4.5758,-4.6114,-4.5099,-4.577,0.0,0.0,0.0,0.0,0.0,0.0,0.0,0.0,-3.9697,-3.9697,-3.9697,-3.9697,-3.9697,-3.9697,-3.9697,-3.9697,-3.9697,-3.9798,-3.9848,-3.9848,-4.0325,-4.0501,-4.0074,-4.0023,-4.0199,-4.0626,-4.0676,-4.0799,-4.125,-4.1275,-4.1326,-4.1505,-4.1505,-4.1555,-4.1601,-4.1601,-4.1601,-4.1601,-4.1601,-4.1601,-4.1601,-4.1601,-4.1601,-4.1601,-4.1601,-4.1601,-4.1601,-4.1555,-4.1505,-4.1505,-4.1326,-4.1025,-4.0676,-4.0676,-4.035,-3.9848,-3.9747,-3.9697,-3.9697,0.0,-5.7218,-5.668,-5.668,-5.668,-5.668,-5.668,-5.668,-5.668,-5.668,-5.6641,-5.6564,-5.6402,-5.6362,-5.5725,-5.4153,-5.2892,-5.159,-5.026,-4.8315,-4.7276,-4.7319,-4.6417,-4.5895,-4.5895,-4.5895,-4.5895,-4.5895,-4.5895,-4.5895,-4.5895,-4.5895,-4.5895,-4.5895,-4.5895,-4.5895,-4.5895,-4.5895,-4.5895,-4.5895,-4.5895,-4.5895,-4.5895,-4.5895,-4.5895,-4.5895,-4.5895,-4.5895,-4.573,-4.4805,-4.511,-4.5595,-4.3701,-4.3804,-4.4378,-4.3383,-4.3218,-4.3513,-4.418,-4.4415,-4.401,-4.1872,-4.1324,-4.1023,0.0,-3.9697,-3.9697,-3.9697,-3.9697,-3.9697,-3.9697,-3.9697,-3.9697,-3.9697,-4.0099,-4.0425,-4.0425,-4.0849,-4.1175,-4.1125,-4.11,-4.1125,-4.1175,-4.12,-4.1225,-4.1275,-4.1275,-4.1555,-4.2087,-4.2112,-4.2338,-4.2785,-4.2785,-4.2785,-4.2785,-4.2785,-4.2785,-4.2785,-4.2785,-4.2785,-4.2785,-4.2785,-4.2785,-4.276,-4.2338,-4.2112,-4.2087,-4.153,-4.125,-4.12,-4.12,-4.0849,-4.0375,-3.9873,-3.9697,-3.9697,0.0,0.0,-5.668,-5.668,-5.668,-5.668,-5.668,-5.668,-5.668,-5.668,-5.668,-5.668,-5.6564,-5.6084,-5.5276,-5.418,-5.3275,-5.2023,-5.0338,-4.9496,-4.8769,-4.8095,-4.7146,-4.6682,-4.6682,-4.618,-4.5895,-4.5895,-4.5895,-4.5895,-4.5895,-4.5895,-4.5895,-4.5895,-4.5895,-4.5895,-4.5895,-4.5895,-4.5895,-4.5895,-4.5895,-4.5895,-4.5895,-4.5895,-4.5895,-4.5895,-4.5895,-4.5504,0.0,0.0,-4.511,-4.4805,-4.3937,-4.3984,-4.3984,-4.2355,-4.2306,-4.2744,-4.2523,-4.2035,-4.1419,-4.0567,-4.0313,-4.0211,-3.98,-3.9697,-3.9697,-3.9697,-3.9697,-3.9697,-3.9697,-3.9697,-3.9798,-4.0124,-4.0375,-4.0626,-4.0899,-4.148,-4.1806,-4.1806,-4.2108,-4.2158,-4.1831,-4.1806,-4.1957,-4.2283,-4.2283,-4.2384,-4.2665,-4.269,-4.2791,-4.2961,-4.2986,-4.2986,-4.2986,-4.2986,-4.2986,-4.2986,-4.2986,-4.2986,-4.2986,-4.2986,-4.2986,-4.2961,-4.2791,-4.269,-4.2665,-4.2384,-4.2108,-4.1806,-4.1806,-4.148,-4.0874,-4.0375,-3.9973,-3.9697,0.0,0.0,0.0,-5.668,-5.668,-5.668,-5.668,-5.668,-5.668,-5.668,-5.668,-5.668,-5.668,-5.6101,-5.5396,-5.4632,-5.3869,-5.2707,-5.1128,-5.064,-5.0009,-4.9054,-4.8137,-4.7619,-4.7576,-4.6959,-4.6506,-4.6269,-4.6269,-4.6135,-4.5895,-4.5895,-4.5895,-4.5895,-4.5895,-4.5895,-4.5895,-4.5895,-4.5895,-4.5895,-4.5895,-4.5895,-4.5895,-4.5895,-4.5895,-4.5895,-4.5895,-4.5384,-4.4759,-4.4972,-4.4712,-4.4172,-4.3293,-4.3197,-4.3102,-4.1319,-4.1518,-4.2159,-4.1095,-4.0465,-4.0032,-3.98,-3.9697,-3.9697,-3.9697,-3.9697,-3.9697,-3.9697,-3.9697,-3.9697,-3.9697,-3.9823,-4.0049,-4.045,-4.0777,-4.1103,-4.1505,-4.2032,-4.2439,-4.2439,-4.2791,-4.2866,-4.2464,-4.2439,-4.2615,-4.2936,-4.2986,-4.2986,-4.2986,-4.2986,-4.2986,-4.2986,-4.2986,-4.2986,-4.2986,-4.2986,-4.2986,-4.2986,-4.2986,-4.2986,-4.2986,-4.2986,-4.2986,-4.2986,-4.2986,-4.2986,-4.2986,-4.2986,-4.2791,-4.2439,-4.2439,-4.2057,-4.1505,-4.1103,-4.0526,-3.9923,0.0,0.0,0.0,0.0,-5.668,-5.668,-5.668,-5.668,-5.668,-5.668,-5.668,-5.668,-5.668,-5.668,-5.6382,-5.5615,-5.4703,-5.3907,-5.3361,-5.1464,-5.0358,-5.032,-4.9336,-4.8677,-4.847,-4.8429,-4.8012,-4.7146,-4.7146,-4.6741,-4.5895,-4.5895,-4.5895,-4.5895,-4.5895,-4.5895,-4.5895,-4.5895,-4.5895,-4.5895,-4.5895,-4.5895,-4.5895,-4.5895,-4.5895,-4.5895,-4.5895,-4.5895,-4.5549,-4.3559,-4.3511,-4.3796,-4.0794,-4.0516,0.0,-4.0032,-4.0465,-4.1019,-4.0032,-4.0465,-4.0945,-3.9929,-3.9697,-3.9697,-3.9697,-3.9697,-3.9697,-3.9697,-3.9697,-3.9697,-3.9697,-4.0124,-4.0501,-4.0526,-4.1404,-4.2162,-4.2187,-4.2665,-4.2961,-4.2961,-4.2961,-4.2961,0.0,-4.2961,-4.2961,-4.2986,-4.2986,-4.2986,-4.2986,-4.2986,-4.2986,-4.2986,-4.2986,-4.2986,-4.2986,-4.2986,-4.2986,-4.2986,-4.2986,-4.2986,-4.2986,-4.2986,-4.2986,-4.2986,-4.2986,-4.2986,-4.2986,-4.2986,-4.2961,-4.2961,-4.2961,-4.2665,-4.2187,-4.2162,-4.143,-4.0501,0.0,0.0,0.0,0.0,0.0,-5.668,-5.668,-5.668,-5.668,-5.668,-5.668,0.0,0.0,0.0,0.0,0.0,-5.4849,-5.4084,-5.3317,-5.2192,-5.1471,-5.1327,-5.039,-4.9773,-4.9567,-4.9004,-4.8512,-4.8054,-4.8054,-4.7619,-4.6741,-4.6741,-4.6462,-4.5895,-4.5895,-4.5895,-4.5895,-4.5895,-4.5895,-4.5895,-4.5895,-4.5895,-4.5895,-4.5895,-4.5895,-4.5895,0.0,-4.5429,-4.4759,-4.4031,-4.3606,-4.3033,-4.1219,-4.0945,-4.0969,-3.9981,-3.9929,-4.0134,-3.98,-3.9929,-4.0134,-3.98,-3.9697,-3.9697,-3.9697,-3.9697,-3.9697,-3.9697,-3.9973,-4.0249,-4.0249,-4.0701,-4.1178,-4.1555,-4.1961,-4.2338,-4.2715,-4.2861,-4.2986,-4.2986,-4.2986,0.0,0.0,0.0,0.0,-4.2986,-4.2986,-4.2986,-4.2986,-4.2986,-4.2986,-4.2986,-4.2986,-4.2986,-4.2986,-4.2986,-4.2986,-4.2986,-4.2986,-4.2986,-4.2986,-4.2986,-4.2986,-4.2986,-4.2986,-4.2986,-4.2986,-4.2986,-4.2986,-4.2986,-4.2986,-4.2861,-4.2766,-4.2766,-4.2233,-4.1555,0.0,0.0,0.0,0.0,0.0,0.0,0.0,0.0,0.0,0.0,0.0,0.0,0.0,0.0,0.0,0.0,0.0,-5.4254,-5.3717,-5.2755,-5.2122,-5.1904,-5.1327,-5.0919,-5.0723,-5.019,-4.9647,-4.9175,-4.9094,-4.8636,-4.7758,-4.7704,-4.7189,-4.6373,-4.6373,-4.618,-4.5895,-4.5895,-4.5895,-4.5895,-4.5895,-4.5895,-4.5895,-4.5895,-4.5895,0.0,-4.5895,-4.5458,-4.4805,-4.4406,-4.389,-4.3081,-4.1667,-4.0945,-4.0567,-3.9878,-3.9697,-3.9697,-3.9697,-3.9697,-3.9697,-3.9697,-3.9697,-3.9697,-3.9697,-3.9697,-3.9697,-3.9697,-4.0124,-4.0526,-4.0526,-4.1128,-4.1756,-4.2162,-4.2363,-4.264,-4.2936,-4.2986,-4.2986,-4.2986,-4.2986,-4.2986,0.0,0.0,0.0,-4.2986,-4.2986,-4.2986,-4.2986,-4.2986,-4.2986,-4.2986,-4.2986,-4.2986,-4.2986,-4.2986,-4.2986,-4.2986,-4.2986,-4.2986,-4.2986,-4.2986,-4.2986,-4.2986,-4.2986,-4.2986,-4.2986,-4.2986,-4.2986,-4.2986,-4.2986,-4.2986,-4.2986,-4.2986,-4.276,-4.2414,0.0,0.0,0.0,0.0,0.0,0.0,0.0,0.0,0.0,0.0,0.0,0.0,0.0,0.0,0.0,0.0,0.0,0.0,-5.449,-5.3202,-5.2335,-5.2155,-5.2119,-5.2013,-5.1831,-5.1831,-5.1397,-5.0474,-5.0274,-4.9726,-4.8851,-4.8677,-4.8137,-4.7276,-4.7276,-4.6784,-4.5956,-4.5956,-4.594,-4.5895,-4.5895,-4.5895,-4.5895,-4.5895,-4.5895,-4.5895,-4.5895,-4.5895,-4.573,-4.4666,-4.4219,-4.3796,-4.1766,-4.0465,-3.9697,-3.9697,-3.9697,-3.9697,-3.9697,-3.9697,-3.9697,-3.9697,-3.9697,-3.9697,-3.9697,-3.9697,-3.9697,-3.9697,-4.0124,-4.0526,0.0,0.0,-4.2213,-4.2263,-4.269,-4.2986,-4.2986,-4.2986,-4.2986,-4.2986,-4.2986,0.0,0.0,0.0,0.0,-4.2986,0.0,-4.2986,-4.2986,-4.2986,-4.2986,-4.2986,-4.2986,-4.2986,-4.2986,-4.2986,-4.2986,-4.2986,-4.2986,-4.2986,-4.2986,-4.2986,-4.2986,-4.2986,-4.2986,-4.2986,-4.2986,-4.2986,-4.2986,-4.2986,-4.2986,-4.2986,-4.2986,-4.2986,-4.2986,-4.2911,0.0,0.0,0.0,0.0,0.0,0.0,0.0,0.0,0.0,0.0,0.0,0.0,0.0,0.0,0.0,0.0,0.0,0.0,-5.456,-5.3665,-5.2867,-5.2335,-5.2302,-5.223,-5.2013,-5.2013,-5.1798,-5.1434,-5.1397,-5.0881,-4.997,-4.9805,-4.9247,-4.8388,-4.8263,-4.7673,-4.6872,-4.6872,-4.6506,-4.5895,-4.5895,-4.5895,-4.5895,-4.5895,-4.5895,-4.5895,-4.5895,-4.5895,-4.573,-4.4666,-4.3245,-4.1766,-4.0516,-3.9929,-3.9697,-3.9697,-3.9697,-3.9697,-3.9697,-3.9697,-3.9697,-3.9697,-3.9697,-3.9697,-3.9697,-3.9697,-3.9697,-3.9697,-4.0124,-4.0651,0.0,-4.1681,-4.2338,-4.2766,-4.2886,0.0,-4.2986,-4.2986,0.0,-4.2986,-4.2986,-4.2986,-4.2986,-4.2986,0.0,0.0,-4.2986,-4.2986,-4.2986,-4.2986,-4.2986,-4.2986,-4.2986,-4.2986,-4.2986,-4.2986,-4.2986,-4.2986,-4.2986,-4.2986,-4.2986,-4.2986,-4.2986,-4.2986,-4.2986,-4.2986,-4.2986,-4.2986,-4.2986,-4.2986,-4.2986,-4.2986,-4.2986,-4.2986,-4.2986,-4.2961,0.0,0.0,0.0,0.0,0.0,0.0,0.0,0.0,0.0,0.0,0.0,0.0,0.0,0.0,0.0,0.0,0.0,0.0,0.0,-5.3831,-5.3102,-5.2442,-5.2409,-5.2338,-5.223,-5.223,-5.2158,-5.205,-5.1977,-5.1651,-5.114,-5.0838,-5.0267,-4.9496,-4.9256,-4.8512,-4.7319,-4.7319,-4.6784,0.0,0.0,-4.5895,-4.5895,-4.5895,-4.5895,-4.5895,0.0,0.0,0.0,0.0,0.0,-4.1815,-4.1246,-4.0415,-3.9697,-3.9697,-3.9697,-3.9697,-3.9697,-3.9697,-3.9697,-3.9697,-3.9697,-3.9697,-3.9697,-3.9697,-3.9697,-3.9697,-4.0124,-4.0601,-4.0874,-4.163,-4.2313,0.0,0.0,0.0,-4.2986,-4.2986,-4.2986,0.0,-4.2986,0.0,-4.2986,-4.2986,-4.2986,-4.2986,-4.2986,-4.2986,-4.2986,-4.2986,-4.2986,-4.2986,-4.2986,-4.2986,-4.2986,-4.2986,-4.2986,-4.2986,-4.2986,-4.2986,-4.2986,-4.2986,-4.2986,-4.2986,0.0,-4.2986,-4.2986,-4.2986,-4.2986,-4.2986,-4.2986,-4.2986,-4.2986,-4.2986,-4.2986,-4.2986,0.0,0.0,0.0,0.0,0.0,0.0,0.0,0.0,0.0,0.0,-5.668,0.0,0.0,0.0,0.0,0.0,0.0,0.0,0.0,0.0,0.0,-5.2442,-5.2409,-5.2409,-5.2409,-5.2409,-5.2409,-5.2409,-5.223,-5.2122,-5.2155,-5.1758,-5.1247,-5.0621,-5.0384,-4.9367,-4.7843,-4.7673,-4.7046,-4.6046,-4.594,-4.5895,-4.5895,0.0,0.0,0.0,0.0,0.0,0.0,0.0,-4.3748,-4.2792,-4.2647,-4.1246,-3.9697,-3.9697,-3.9697,-3.9697,-3.9697,-3.9697,-3.9697,-3.9697,-3.9697,-3.9697,-3.9697,-3.9697,-3.9697,-3.9697,-4.0074,-4.0425,-4.0501,-4.1354,-4.2137,-4.2213,0.0,-4.2986,-4.2986,-4.2986,-4.2986,-4.2986,-4.2986,-4.2986,-4.2986,-4.2986,-4.2986,-4.2986,-4.2986,-4.2986,-4.2986,-4.2986,-4.2986,-4.2986,-4.2986,-4.2986,-4.2986,-4.2986,-4.2986,-4.2986,-4.2986,-4.2986,-4.2986,-4.2986,-4.2986,-4.2986,-4.2986,-4.2986,-4.2986,-4.2986,-4.2986,-4.2986,-4.2986,-4.2986,-4.2986,-4.2986,-4.2986,-4.2986,0.0,0.0,0.0,0.0,0.0,0.0,0.0,0.0,0.0,0.0,-5.668,-5.668,0.0,0.0,0.0,0.0,0.0,0.0,0.0,0.0,0.0,0.0,-5.2409,-5.2409,-5.2409,-5.2409,-5.2409,-5.2409,-5.2373,-5.2338,-5.2338,-5.2086,-5.1941,-5.1798,-5.1429,-5.0647,-4.9607,-4.8718,-4.7801,-4.6915,-4.618,-4.5895,-4.5895,0.0,0.0,0.0,0.0,0.0,0.0,0.0,-4.4387,-4.2647,-4.1766,-4.0642,-3.9697,-3.9697,-3.9697,-3.9697,-3.9697,-3.9697,-3.9697,-3.9697,-3.9697,-3.9697,-3.9697,-3.9697,0.0,0.0,-3.9772,-3.9973,-4.0425,-4.1053,-4.163,-4.2137,-4.2665,-4.2986,-4.2986,-4.2986,-4.2986,0.0,-4.2986,-4.2986,-4.2986,-4.2986,0.0,0.0,-4.2986,-4.2986,-4.2986,-4.2986,-4.2986,-4.2986,-4.2986,-4.2986,-4.2986,-4.2986,-4.2986,-4.2986,-4.2986,-4.2986,-4.2986,-4.2986,-4.2986,-4.2986,-4.2986,0.0,-4.2986,-4.2986,-4.2986,-4.2986,-4.2986,-4.2986,-4.2986,-4.2986,-4.2986,-4.2986,0.0,0.0,0.0,0.0,0.0,0.0,0.0,-5.668,-5.668,-5.668,-5.668,-5.668,-5.668,-5.668,-5.668,0.0,0.0,0.0,0.0,0.0,0.0,0.0,0.0,0.0,0.0,-5.2302,-5.2302,-5.2409,0.0,-5.223,-5.223,-5.2155,-5.2119,-5.2119,-5.1794,-5.1135,-5.0197,-4.9094,-4.8095,-4.7103,-4.6269,-4.5895,0.0,0.0,0.0,0.0,0.0,0.0,0.0,0.0,-4.4851,-4.3484,-4.2958,-4.1766,-4.0465,-4.0465,-4.0134,-3.9697,-3.9697,-3.9697,-3.9697,-3.9697,-3.9697,-3.9697,-3.9697,0.0,0.0,0.0,-3.9697,-3.9772,-4.0049,-4.0551,-4.1103,-4.163,-4.2183,-4.2715,-4.2936,-4.2986,-4.2986,-4.2986,-4.2986,-4.2986,-4.2986,-4.2986,-4.2986,-4.2986,-4.2986,-4.2986,-4.2986,-4.2986,-4.2986,-4.2986,-4.2986,-4.2986,-4.2986,-4.2986,-4.2986,-4.2986,-4.2986,-4.2986,-4.2986,-4.2986,-4.2986,-4.2986,-4.2986,-4.2986,-4.2986,-4.2986,-4.2986,-4.2986,-4.2986,-4.2986,-4.2986,-4.2986,-4.2986,-4.2986,0.0,0.0,0.0,0.0,0.0,0.0,0.0,-5.668,-5.668,-5.668,-5.668,-5.668,-5.668,-5.668,-5.668,0.0,0.0,0.0,0.0,0.0,0.0,0.0,0.0,0.0,0.0,0.0,0.0,-5.2338,-5.2194,0.0,0.0,0.0,0.0,0.0,-5.1831,-5.1177,-5.0242,-4.9175,-4.8137,0.0,0.0,-4.5895,0.0,0.0,0.0,0.0,0.0,0.0,0.0,0.0,-4.5338,-4.4666,-4.4666,-4.3197,-4.1518,-4.1269,-4.0642,-3.9981,-3.9749,-3.9697,-3.9697,-3.9697,-3.9697,-3.9697,-3.9697,-3.9697,0.0,-3.9697,-3.9697,-3.9697,-3.9697,-4.0149,-4.0701,-4.12,-4.1806,-4.2414,-4.2911,-4.2986,-4.2986,0.0,-4.2986,0.0,-4.2986,-4.2986,0.0,-4.2986,-4.2986,-4.2986,-4.2986,-4.2986,-4.2986,-4.2986,-4.2986,-4.2986,-4.2986,-4.2986,-4.2986,-4.2986,-4.2986,-4.2986,-4.2986,-4.2986,-4.2986,-4.2986,-4.2986,-4.2986,-4.2986,-4.2986,-4.2986,-4.2986,-4.2986,-4.2986,-4.2986,-4.2986,-4.2986,-4.2986,0.0,0.0,0.0,0.0,0.0,0.0,0.0,-5.668,-5.668,-5.668,-5.668,-5.668,-5.668,-5.668,-5.668,0.0,0.0,0.0,0.0,0.0,0.0,0.0,0.0,0.0,0.0,0.0,0.0,-5.2155,-5.2266,0.0,0.0,0.0,0.0,0.0,0.0,-5.1022,-5.0041,-4.8973,0.0,0.0,0.0,0.0,0.0,0.0,0.0,0.0,0.0,0.0,0.0,0.0,0.0,-4.573,-4.573,-4.434,-4.2452,-4.1468,0.0,0.0,-3.9929,-3.9697,-3.9697,-3.9697,-3.9697,-3.9697,-3.9697,0.0,-3.9697,-3.9697,-3.9697,-3.9697,-3.9697,-4.0149,-4.0701,-4.12,-4.1806,-4.2414,-4.2911,-4.2986,-4.2986,-4.2986,0.0,0.0,-4.2986,-4.2986,-4.2986,-4.2986,-4.2986,-4.2986,-4.2986,-4.2986,-4.2986,-4.2986,-4.2986,-4.2986,-4.2986,-4.2986,-4.2986,-4.2986,-4.2986,-4.2986,-4.2986,-4.2986,-4.2986,-4.2986,-4.2986,-4.2986,0.0,-4.2986,-4.2986,-4.2986,-4.2986,-4.2986,-4.2986,-4.2986,-4.2986,-4.2986,0.0,0.0,0.0,0.0,0.0,0.0,-5.668,-5.668,-5.668,-5.668,-5.668,-5.668,-5.668,-5.668,-5.668,-5.668,0.0,0.0,0.0,0.0,0.0,0.0,0.0,0.0,0.0,0.0,-5.223,-5.2266,-5.223,0.0,0.0,0.0,0.0,0.0,0.0,-5.0984,-5.0041,0.0,0.0,0.0,0.0,0.0,0.0,0.0,0.0,0.0,0.0,0.0,0.0,0.0,0.0,0.0,-4.5895,-4.5338,0.0,0.0,-4.2181,-4.1119,-4.0693,-4.0185,-3.9697,-3.9697,-3.9697,-3.9697,-3.9697,0.0,-3.9697,-3.9697,-3.9697,-3.9697,-3.9697,-3.9873,-4.03,-4.115,-4.153,0.0,-4.2861,-4.2986,-4.2986,-4.2986,-4.2986,0.0,0.0,0.0,-4.2986,-4.2986,-4.2986,-4.2986,-4.2986,-4.2986,-4.2986,-4.2986,-4.2986,-4.2986,-4.2986,-4.2986,-4.2986,-4.2986,-4.2986,-4.2986,-4.2986,-4.2986,-4.2986,-4.2986,-4.2986,-4.2986,0.0,-4.2986,-4.2986,-4.2986,-4.2986,-4.2986,-4.2986,-4.2986,-4.2986,-4.2986,0.0,0.0,0.0,0.0,0.0,-5.6945,-5.6713,-5.668,-5.668,-5.668,-5.668,-5.668,-5.668,-5.668,-5.668,-5.668,-5.668,0.0,0.0,0.0,0.0,0.0,0.0,0.0,0.0,0.0,-5.2461,-5.2302,-5.223,-5.2122,0.0,0.0,-5.1904,-5.1721,0.0,0.0,0.0,0.0,0.0,0.0,0.0,0.0,0.0,0.0,0.0,0.0,0.0,0.0,0.0,0.0,0.0,0.0,0.0,0.0,0.0,0.0,-4.3054,-4.1617,-4.1269,-4.0465,-3.9697,-3.9697,-3.9697,-3.9697,0.0,0.0,-3.9697,-3.9697,-3.9697,-3.9697,-3.9697,-3.9697,-3.9998,-4.0899,0.0,-4.1601,-4.261,-4.2861,-4.2986,-4.2986,0.0,-4.2986,-4.2986,-4.2986,-4.2986,-4.2986,-4.2986,-4.2986,-4.2986,-4.2986,-4.2986,-4.2986,-4.2986,-4.2986,-4.2986,-4.2986,-4.2986,-4.2986,-4.2986,-4.2986,-4.2986,-4.2986,-4.2986,-4.2986,-4.2986,-4.2986,0.0,-4.2986,-4.2986,-4.2986,-4.2986,-4.2986,-4.2986,-4.2986,-4.2986,-4.2986,0.0,0.0,0.0,0.0,0.0,0.0,-5.6812,-5.668,-5.668,-5.668,-5.668,-5.668,-5.668,-5.668,-5.668,-5.668,-5.668,0.0,0.0,0.0,0.0,0.0,0.0,0.0,0.0,0.0,-5.296,-5.2086,-5.2302,-5.2194,-5.1794,-5.1794,-5.1721,-5.1499,0.0,0.0,0.0,0.0,0.0,0.0,0.0,0.0,0.0,0.0,0.0,0.0,0.0,0.0,0.0,0.0,0.0,0.0,0.0,-4.5895,-4.5685,0.0,-4.3606,-4.255,-4.1468,-4.0465,-3.9697,-3.9697,-3.9697,-3.9697,0.0,0.0,-3.9697,-3.9697,-3.9697,-3.9697,-3.9697,-3.9697,-3.9873,-4.0425,-4.0924,0.0,-4.2137,-4.269,-4.2986,0.0,-4.2986,-4.2986,-4.2986,-4.2986,-4.2986,-4.2986,-4.2986,0.0,-4.2986,-4.2986,-4.2986,-4.2986,-4.2986,-4.2986,-4.2986,-4.2986,-4.2986,-4.2986,-4.2986,-4.2986,-4.2986,-4.2986,-4.2986,-4.2986,-4.2986,-4.2986,0.0,-4.2986,-4.2986,-4.2986,-4.2986,-4.2986,-4.2986,-4.2986,-4.2986,-4.2986,0.0,0.0,0.0,0.0,0.0,0.0,0.0,-5.7011,-5.668,-5.668,-5.668,-5.668,-5.668,-5.668,-5.668,-5.668,-5.668,0.0,0.0,0.0,0.0,0.0,0.0,0.0,0.0,-5.3665,-5.3265,-5.2993,-5.2569,-5.2338,-5.2194,-5.205,-5.1977,-5.1904,-5.161,-5.064,0.0,0.0,0.0,0.0,0.0,0.0,0.0,0.0,0.0,0.0,0.0,0.0,0.0,0.0,0.0,0.0,0.0,0.0,0.0,-4.5475,-4.4666,-4.3748,-4.3388,-4.2571,-4.1815,-4.1815,-4.1295,-4.0743,-4.0743,-4.016,-3.9697,-3.9697,-3.9697,-3.9697,-3.9697,-3.9697,-3.9873,-4.0425,-4.0924,0.0,0.0,0.0,0.0,-4.2986,-4.2986,-4.2986,0.0,0.0,-4.2986,-4.2986,-4.2986,-4.2986,-4.2986,-4.2986,-4.2986,-4.2986,-4.2986,-4.2986,-4.2986,-4.2986,-4.2986,-4.2986,-4.2986,-4.2986,-4.2986,-4.2986,-4.2986,-4.2986,-4.2986,-4.2986,-4.2986,-4.2986,-4.2986,-4.2986,-4.2986,-4.2986,-4.2986,-4.2986,-4.2986,-4.2986,0.0,0.0,0.0,0.0,0.0,0.0,0.0,-5.7409,-5.7011,-5.6713,-5.668,-5.668,-5.668,-5.668,-5.668,-5.668,-5.668,0.0,0.0,0.0,0.0,0.0,0.0,0.0,-5.492,-5.4456,-5.3964,-5.34,-5.297,-5.2638,-5.2373,-5.2194,-5.2119,-5.2119,-5.1758,-5.0946,0.0,0.0,0.0,0.0,0.0,0.0,-4.5895,0.0,0.0,0.0,0.0,0.0,0.0,0.0,0.0,0.0,0.0,0.0,0.0,0.0,-4.5429,-4.4805,-4.4406,-4.3559,-4.2792,-4.2792,-4.2012,-4.1219,-4.1219,-4.0415,-3.9697,-3.9697,-3.9697,-3.9697,-3.9697,-3.9697,-3.9798,-4.0149,-4.0852,-4.1401,-4.1806,-4.2509,-4.2986,-4.2986,-4.2986,0.0,0.0,-4.2986,-4.2986,-4.2986,-4.2986,-4.2986,-4.2986,-4.2986,-4.2986,-4.2986,-4.2986,-4.2986,-4.2986,-4.2986,-4.2986,-4.2986,-4.2986,-4.2986,-4.2986,-4.2986,-4.2986,-4.2986,-4.2986,-4.2986,0.0,-4.2986,-4.2986,-4.2986,-4.2986,-4.2986,-4.2986,-4.2986,-4.2986,-4.2986,0.0,0.0,0.0,0.0,0.0,0.0,0.0,-5.7873,-5.7541,-5.6846,-5.6713,-5.668,-5.668,-5.668,-5.668,-5.668,0.0,0.0,0.0,0.0,0.0,0.0,0.0,0.0,-5.5681,-5.5615,-5.492,-5.3566,-5.3533,-5.3135,-5.2473,-5.2293,-5.2152,-5.2086,-5.1904,-5.1647,0.0,0.0,0.0,0.0,-4.5895,-4.5895,0.0,0.0,0.0,0.0,0.0,0.0,0.0,0.0,0.0,0.0,0.0,0.0,0.0,0.0,0.0,0.0,0.0,-4.3646,-4.2937,-4.2937,-4.2061,-4.1219,-4.1219,-4.0415,0.0,-3.9697,-3.9697,-3.9697,-3.9697,-3.9697,-3.9697,-3.9697,-4.0626,-4.1275,-4.1275,-4.2283,-4.2986,-4.2986,-4.2986,-4.2986,-4.2986,-4.2986,-4.2986,-4.2986,-4.2986,-4.2986,-4.2986,-4.2986,-4.2986,-4.2986,-4.2986,-4.2986,-4.2986,-4.2986,-4.2986,-4.2986,-4.2986,-4.2986,-4.2986,-4.2986,-4.2986,0.0,-4.2986,-4.2986,0.0,-4.2986,-4.2986,-4.2986,-4.2986,-4.2986,-4.2986,-4.2986,-4.2986,-4.2986,0.0,0.0,0.0,0.0,0.0,0.0,0.0,0.0,0.0,0.0,-5.7044,-5.668,-5.668,-5.668,-5.668,0.0,0.0,0.0,0.0,0.0,0.0,0.0,0.0,0.0,-5.6448,-5.5918,-5.5416,-5.5052,-5.449,-5.3897,-5.3169,-5.3096,-5.2831,-5.2302,-5.2122,-5.1065,0.0,0.0,0.0,0.0,-4.5895,-4.5895,0.0,0.0,0.0,0.0,-4.5895,-4.5895,0.0,0.0,0.0,0.0,0.0,0.0,0.0,0.0,-4.5111,-4.5067,-4.4844,0.0,-4.3937,-4.3937,-4.2571,-4.1219,0.0,-4.0415,-3.9697,-3.9697,-3.9697,-3.9697,-3.9697,-3.9697,-3.9697,-3.9697,-4.0626,-4.1275,-4.1275,-4.2283,-4.2986,-4.2986,-4.2986,-4.2986,-4.2986,-4.2986,-4.2986,-4.2986,-4.2986,-4.2986,-4.2986,-4.2986,-4.2986,-4.2986,-4.2986,-4.2986,-4.2986,-4.2986,-4.2986,-4.2986,-4.2986,-4.2986,-4.2986,-4.2986,-4.2986,-4.2986,-4.2986,-4.2986,-4.2986,-4.2986,-4.2986,-4.2986,-4.2986,-4.2986,-4.2986,-4.2986,-4.2986,-4.2986,0.0,0.0,0.0,0.0,0.0,0.0,0.0,0.0,0.0,0.0,0.0,-5.7177,-5.7177,-5.6879,0.0,0.0,0.0,0.0,0.0,0.0,0.0,0.0,0.0,-5.668,-5.668,-5.6316,-5.5951,-5.5582,-5.5185,-5.4622,-5.393,-5.3566,-5.3202,-5.2801,-5.1786,-5.019,-4.821,-4.749,-4.6697,-4.5895,-4.5895,0.0,0.0,0.0,0.0,0.0,-4.5895,-4.5895,0.0,-4.5895,-4.5895,-4.5895,0.0,0.0,0.0,0.0,-4.4705,-4.4531,-4.4821,-4.4595,-4.4312,-4.4312,-4.2716,-4.1219,-4.1219,-4.0415,-3.9697,-3.9697,-3.9697,-3.9697,-3.9697,-3.9697,-3.9697,-3.9697,-4.0626,-4.1451,-4.2032,-4.261,-4.2986,-4.2986,-4.2986,-4.2986,0.0,-4.2986,-4.2986,-4.2986,-4.2986,-4.2986,-4.2986,-4.2986,-4.2986,-4.2986,-4.2986,-4.2986,-4.2986,-4.2986,-4.2986,-4.2986,-4.2986,-4.2986,-4.2986,-4.2986,-4.2986,-4.2986,-4.2986,-4.2986,-4.2986,-4.2986,-4.2986,-4.2986,-4.2986,-4.2986,-4.2986,-4.2986,-4.2986,-4.2986,0.0,0.0,0.0,0.0,0.0,0.0,0.0,0.0,0.0,0.0,0.0,0.0,0.0,0.0,0.0,0.0,0.0,0.0,0.0,0.0,0.0,0.0,-5.668,-5.668,-5.668,-5.668,-5.6382,-5.5786,-5.5786,-5.5383,-5.4622,-5.3882,-5.3342,-5.2893,-5.1057,-4.9256,-4.7606,-4.7319,-4.6697,-4.5895,-4.5895,0.0,0.0,0.0,0.0,0.0,0.0,0.0,0.0,-4.5895,-4.5895,-4.5895,-4.5895,0.0,0.0,0.0,0.0,0.0,-4.4618,-4.4419,-4.4078,-4.4078,-4.2523,-4.0995,-4.0995,-4.0313,-3.9697,-3.9697,-3.9697,-3.9697,-3.9697,-3.9697,-3.9722,-3.9798,-4.0752,-4.1806,-4.2836,-4.2986,-4.2986,-4.2986,-4.2986,0.0,-4.2986,-4.2986,-4.2986,-4.2986,-4.2986,-4.2986,-4.2986,-4.2986,-4.2986,-4.2986,-4.2986,-4.2986,-4.2986,-4.2986,-4.2986,-4.2986,-4.2986,-4.2986,-4.2986,-4.2986,-4.2986,-4.2986,0.0,0.0,-4.2986,-4.2986,-4.2986,-4.2986,-4.2986,-4.2986,-4.2986,-4.2986,-4.2986,-4.2986,0.0,0.0,0.0,0.0,0.0,0.0,0.0,0.0,0.0,0.0,0.0,0.0,0.0,0.0,0.0,0.0,0.0,0.0,0.0,0.0,0.0,-5.668,-5.668,-5.668,-5.668,-5.668,-5.6614,-5.6514,-5.6514,-5.615,-5.5416,-5.4561,-5.3108,-5.1137,-4.9953,-4.8759,-4.7716,-4.7362,-4.6697,-4.5895,-4.5895,0.0,0.0,0.0,0.0,0.0,0.0,0.0,0.0,-4.5895,-4.5895,-4.5895,-4.5895,0.0,0.0,0.0,0.0,0.0,-4.4095,-4.3607,-4.3033,-4.3033,-4.1495,-3.9929,-3.9929,-3.98,-3.9697,-3.9697,-3.9697,-3.9697,-3.9697,-3.9697,-3.9848,-4.03,-4.1304,-4.2313,-4.2886,-4.2986,-4.2986,-4.2986,0.0,-4.2986,-4.2986,-4.2986,-4.2986,-4.2986,-4.2986,-4.2986,-4.2986,-4.2986,-4.2986,-4.2986,-4.2986,-4.2986,-4.2986,-4.2986,-4.2986,-4.2986,-4.2986,-4.2986,-4.2986,-4.2986,-4.2986,-4.2986,0.0,-4.2986,-4.2986,-4.2986,-4.2986,-4.2986,-4.2986,-4.2986,-4.2986,-4.2986,-4.2986,-4.2986,0.0,0.0,0.0,0.0,0.0,0.0,0.0,0.0,0.0,0.0,0.0,0.0,0.0,0.0,0.0,0.0,0.0,0.0,-5.668,-5.668,-5.668,-5.668,-5.668,-5.668,-5.668,-5.668,-5.668,-5.668,-5.668,-5.6249,-5.5418,-5.3616,-5.1755,-4.9874,-4.8778,-4.7789,-4.6915,-4.6609,-4.6269,-4.5895,0.0,0.0,0.0,0.0,0.0,0.0,0.0,0.0,0.0,0.0,-4.5895,-4.5895,-4.5895,0.0,0.0,0.0,0.0,0.0,-4.3741,-4.2972,-4.2214,-4.1981,-4.0794,-3.9697,-3.9697,-3.9697,-3.9697,-3.9697,-3.9697,-3.9697,-3.9697,-3.9697,-3.9973,-4.0827,-4.1379,-4.2007,-4.2861,-4.2986,-4.2986,0.0,0.0,-4.2986,-4.2986,-4.2986,-4.2986,-4.2986,-4.2986,-4.2986,-4.2986,-4.2986,-4.2986,-4.2986,-4.2986,-4.2986,-4.2986,-4.2986,-4.2986,-4.2986,-4.2986,-4.2986,-4.2986,-4.2986,-4.2986,-4.2986,0.0,-4.2986,-4.2986,-4.2986,-4.2986,-4.2986,-4.2986,-4.2986,-4.2986,-4.2986,-4.2986,-4.2986,0.0,0.0,0.0,0.0,0.0,0.0,0.0,0.0,0.0,0.0,0.0,0.0,0.0,0.0,0.0,0.0,0.0,0.0,-5.6713,-5.668,-5.668,-5.668,-5.668,-5.668,-5.668,-5.668,-5.668,-5.668,-5.6486,-5.5789,-5.4547,-5.2482,-5.0603,-4.8957,-4.7989,-4.702,-4.618,-4.5985,-4.5895,-4.5895,0.0,0.0,0.0,0.0,0.0,0.0,0.0,0.0,0.0,0.0,0.0,0.0,0.0,0.0,0.0,-4.4879,-4.456,-4.4168,-4.3816,-4.2916,-4.1956,-4.1633,-4.0642,-3.9697,-3.9697,-3.9697,-3.9697,-3.9697,-3.9697,-3.9697,-3.9697,-3.9898,-4.035,-4.115,-4.1501,-4.2007,-4.2861,-4.2986,-4.2986,-4.2986,-4.2986,-4.2986,-4.2986,-4.2986,-4.2986,-4.2986,-4.2986,-4.2986,-4.2986,-4.2986,-4.2986,-4.2986,-4.2986,-4.2986,-4.2986,-4.2986,-4.2986,-4.2986,-4.2986,-4.2986,-4.2986,-4.2986,-4.2986,-4.2986,-4.2986,-4.2986,-4.2986,-4.2986,-4.2986,-4.2986,-4.2986,-4.2986,-4.2986,-4.2986,-4.2986,-4.2986,0.0,0.0,0.0,0.0,0.0,0.0,0.0,0.0,0.0,0.0,0.0,0.0,0.0,0.0,0.0,0.0,0.0,0.0,-5.6713,-5.668,-5.668,-5.668,-5.668,-5.668,-5.668,-5.668,-5.668,-5.668,-5.5829,-5.4379,-5.2379,-5.1836,-5.0498,-4.8499,-4.7849,-4.705,-4.618,-4.5985,-4.5895,-4.5895,-4.5895,0.0,0.0,0.0,0.0,0.0,0.0,0.0,0.0,0.0,0.0,0.0,0.0,0.0,-4.4879,-4.4879,-4.485,-4.4821,-4.4791,-4.376,-4.2738,-4.2668,-4.1196,-3.9697,-3.9697,-3.9697,-3.9697,-3.9697,-3.9697,-3.9697,-3.9697,-4.0526,-4.12,-4.1275,-4.2183,-4.2886,-4.2961,0.0,-4.2986,-4.2986,-4.2986,-4.2986,-4.2986,-4.2986,-4.2986,-4.2986,-4.2986,-4.2986,-4.2986,-4.2986,-4.2986,-4.2986,-4.2986,-4.2986,-4.2986,-4.2986,-4.2986,-4.2986,-4.2986,-4.2986,-4.2986,-4.2986,-4.2986,-4.2986,-4.2986,-4.2986,-4.2986,-4.2986,-4.2986,-4.2986,-4.2986,-4.2986,-4.2986,-4.2986,-4.2986,-4.2986,0.0,0.0,0.0,0.0,0.0,0.0,0.0,0.0,0.0,0.0,0.0,0.0,0.0,0.0,0.0,0.0,0.0,-5.7674,-5.7376,-5.6945,-5.668,-5.668,-5.668,-5.668,-5.668,-5.668,-5.6414,-5.5829,-5.4327,-5.3121,-5.2184,-5.0864,-4.9578,-4.8265,-4.7437,-4.6703,-4.6001,-4.594,-4.5895,-4.5895,-4.5895,-4.5895,0.0,0.0,0.0,0.0,0.0,0.0,0.0,0.0,-4.5895,-4.5895,-4.5895,-4.5721,-4.5518,-4.5518,-4.5518,-4.5219,-4.3929,-4.3203,-4.2501,-4.1196,-4.0287,-3.9697,-3.9697,-3.9697,-3.9697,-3.9697,-3.9697,-3.9697,-3.9697,-4.0325,-4.0874,-4.1225,-4.1982,-4.264,-4.2936,-4.2986,-4.2986,-4.2986,-4.2986,-4.2986,-4.2986,-4.2986,-4.2986,-4.2986,-4.2986,-4.2986,-4.2986,-4.2986,-4.2986,-4.2986,-4.2986,-4.2986,-4.2986,-4.2986,-4.2986,-4.2986,-4.2986,-4.2986,-4.2986,-4.2986,-4.2986,-4.2986,-4.2986,-4.2986,-4.2986,-4.2986,-4.2986,-4.2986,-4.2986,-4.2986,-4.2986,-4.2986,-4.2986,-4.2986,0.0,0.0,0.0,0.0,0.0,0.0,0.0,0.0,0.0,0.0,0.0,0.0,0.0,0.0,0.0,0.0,-5.8866,-5.8038,-5.7806,-5.7111,-5.668,-5.668,-5.668,-5.668,-5.668,-5.6336,-5.5868,-5.5312,-5.3384,-5.2169,-5.1528,-5.0347,-4.921,-4.8062,-4.7486,-4.677,-4.5895,-4.5895,-4.5895,-4.5895,-4.5895,-4.5895,0.0,0.0,0.0,0.0,0.0,0.0,0.0,0.0,-4.5895,-4.5895,-4.5895,-4.5895,-4.5895,-4.5895,-4.5685,-4.511,-4.3654,-4.2792,-4.1963,-4.0516,-3.9929,-3.9697,-3.9697,-3.9697,-3.9697,-3.9697,-3.9697,-3.9697,-3.9697,-4.03,-4.0849,-4.1225,-4.1932,-4.2615,-4.2936,-4.2986,-4.2986,-4.2986,-4.2986,-4.2986,-4.2986,-4.2986,-4.2986,-4.2986,-4.2986,-4.2986,-4.2986,-4.2986,-4.2986,-4.2986,-4.2986,-4.2986,-4.2986,-4.2986,-4.2986,-4.2986,-4.2986,-4.2986,-4.2986,-4.2986,-4.2986,-4.2986,-4.2986,-4.2986,-4.2986,-4.2986,-4.2986,-4.2986,-4.2986,-4.2986,-4.2986,-4.2986,-4.2986,-4.2986,0.0,0.0,0.0,0.0,0.0,0.0,0.0,0.0,0.0,0.0,0.0,0.0,0.0,0.0,0.0,0.0,-5.933,-5.8601,-5.7839,-5.7111,-5.668,-5.668,-5.668,-5.668,-5.668,-5.5588,-5.5067,-5.5271,-5.3178,-5.1435,-5.0086,-5.0357,-4.9556,-4.7829,-4.8092,-4.7316,-4.5895,-4.5895,-4.5895,-4.5895,-4.5895,-4.5895,-4.5895,0.0,0.0,0.0,0.0,0.0,0.0,0.0,-4.5895,-4.5895,-4.5895,-4.5895,-4.5895,-4.5895,-4.5155,-4.4312,-4.4312,-4.2813,-4.1219,-4.1219,-4.0465,-3.9697,-3.9697,-3.9697,-3.9697,-3.9697,-3.9697,-3.9697,-3.9697,-4.0601,-4.1275,-4.1275,-4.2258,-4.2986,-4.2986,-4.2986,-4.2986,-4.2986,-4.2986,-4.2986,-4.2986,-4.2986,-4.2986,-4.2986,-4.2986,-4.2986,-4.2986,-4.2986,-4.2986,-4.2986,-4.2986,-4.2986,-4.2986,-4.2986,-4.2986,-4.2986,-4.2986,-4.2986,-4.2986,-4.2986,-4.2986,-4.2986,-4.2986,-4.2986,-4.2986,-4.2986,-4.2986,-4.2986,-4.2986,-4.2986,-4.2986,-4.2986,-4.2986,-4.2986,0.0,0.0,0.0,0.0,0.0,0.0,0.0,0.0,0.0,0.0,0.0,0.0,0.0,0.0,0.0,0.0,0.0,-5.9363,-5.8601,-5.7873,-5.7243,-5.6713,-5.668,-5.6641,-5.6486,-5.4736,-5.3471,-5.2825,-5.1604,-5.068,-5.0086,-5.0183,-4.9366,-4.7782,-4.7876,-4.7177,-4.5895,-4.5895,-4.5895,-4.5895,-4.5895,-4.5895,-4.5895,0.0,0.0,0.0,0.0,0.0,0.0,0.0,0.0,0.0,-4.5895,-4.5895,-4.5895,-4.5895,-4.5685,-4.5247,-4.4499,-4.3341,-4.2159,-4.1369,-4.0465,-3.9697,-3.9697,-3.9697,-3.9697,-3.9697,-3.9697,-3.9697,-3.9697,-4.0601,0.0,-4.1275,-4.2258,-4.2986,-4.2986,-4.2986,-4.2986,-4.2986,-4.2986,-4.2986,-4.2986,-4.2986,-4.2986,-4.2986,-4.2986,-4.2986,-4.2986,-4.2986,-4.2986,-4.2986,-4.2986,-4.2986,-4.2986,-4.2986,-4.2986,-4.2986,-4.2986,-4.2986,-4.2986,-4.2986,-4.2986,-4.2986,-4.2986,-4.2986,-4.2986,-4.2986,-4.2986,-4.2986,-4.2986,-4.2986,-4.2986,-4.2986,-4.2986,-4.2986,0.0,0.0,0.0,0.0,0.0,0.0,0.0,0.0,0.0,0.0,-6.1119,-6.1119,0.0,0.0,0.0,0.0,-6.0423,-5.9827,-5.9363,-5.8369,-5.7574,-5.7144,-5.6501,-5.5668,-5.4579,-5.3296,-5.2048,-5.0969,-5.0537,-5.0183,-4.9941,-4.9941,-4.9193,-4.7782,-4.7782,-4.7085,-4.5895,-4.5895,-4.5895,-4.5895,-4.5895,-4.5895,-4.5895,0.0,0.0,0.0,0.0,0.0,0.0,0.0,0.0,0.0,-4.5895,-4.5895,-4.5895,-4.5895,-4.5595,-4.5064,-4.3984,-4.2958,-4.1914,-4.0895,-4.0185,-3.9697,-3.9697,-3.9697,-3.9697,-3.9697,-3.9697,-3.9697,-3.9697,-4.0601,0.0,-4.1275,-4.2258,-4.2986,-4.2986,-4.2986,-4.2986,-4.2986,-4.2986,-4.2986,-4.2986,-4.2986,-4.2986,-4.2986,-4.2986,-4.2986,-4.2986,-4.2986,-4.2986,-4.2986,-4.2986,-4.2986,-4.2986,-4.2986,-4.2986,-4.2986,-4.2986,-4.2986,-4.2986,-4.2986,-4.2986,-4.2986,-4.2986,-4.2986,-4.2986,-4.2986,-4.2986,-4.2986,-4.2986,-4.2986,-4.2986,-4.2986,-4.2986,-4.2986,0.0,0.0,-6.1119,-6.1119,0.0,0.0,0.0,0.0,0.0,0.0,-6.1119,-6.1119,0.0,0.0,0.0,0.0,-6.049,-6.0092,-5.9993,-5.8668,-5.7873,-5.7767,-5.614,-5.4126,-5.1865,-5.1574,-5.0905,-4.9717,-4.999,-4.9941,-4.9717,-4.9717,-4.9001,-4.7782,-4.7782,-4.7085,-4.5895,-4.5895,-4.5895,-4.5895,-4.5895,-4.5895,-4.5895,-4.5895,0.0,0.0,0.0,0.0,0.0,0.0,0.0,0.0,-4.5895,-4.5895,-4.5895,-4.5895,-4.5201,-4.4266,-4.3321,-4.2257,-4.1119,-4.0236,-3.9826,-3.9697,-3.9697,-3.9697,-3.9697,-3.9697,-3.9697,-3.9697,-3.9697,-4.0601,-4.1275,-4.1275,-4.2258,-4.2986,-4.2986,-4.2986,-4.2986,-4.2986,-4.2986,-4.2986,-4.2986,-4.2986,-4.2986,-4.2986,-4.2986,-4.2986,-4.2986,-4.2986,-4.2986,-4.2986,-4.2986,-4.2986,-4.2986,-4.2986,-4.2986,-4.2986,-4.2986,-4.2986,-4.2986,-4.2986,-4.2986,-4.2986,-4.2986,-4.2986,-4.2986,-4.2986,-4.2986,-4.2986,-4.2986,-4.2986,-4.2986,-4.2986,-4.2986,-4.2986,0.0,0.0,-6.1119,-6.1119,0.0,0.0,0.0,0.0,0.0,0.0,0.0,0.0,0.0,0.0,0.0,0.0,-6.0953,-6.0622,-6.0026,-5.9164,-5.8323,-5.7602,-5.5619,-5.3656,-5.182,-5.1389,-5.081,-5.0038,-4.9892,-4.9766,-4.9717,-4.9717,-4.9001,-4.7782,-4.7782,-4.7085,-4.5895,-4.5895,-4.5895,-4.5895,-4.5895,-4.5895,-4.5895,-4.5895,-4.5895,0.0,0.0,0.0,0.0,0.0,0.0,0.0,-4.5895,-4.5895,-4.5895,-4.5895,-4.573,-4.5504,-4.5293,-4.3843,-4.2404,-4.2208,-4.0895,-3.9697,-3.9697,-3.9697,-3.9697,-3.9697,-3.9697,-3.9697,-3.9697,-4.0601,-4.1275,-4.1275,-4.2258,-4.2986,-4.2986,-4.2986,-4.2986,-4.2986,-4.2986,-4.2986,-4.2986,-4.2986,-4.2986,-4.2986,-4.2986,-4.2986,-4.2986,-4.2986,-4.2986,-4.2986,-4.2986,-4.2986,-4.2986,-4.2986,-4.2986,0.0,-4.2986,-4.2986,-4.2986,-4.2986,-4.2986,-4.2986,-4.2986,-4.2986,-4.2986,-4.2986,-4.2986,-4.2986,-4.2986,-4.2986,-4.2986,-4.2986,-4.2986,-4.2986,0.0,0.0,0.0,0.0,0.0,0.0,0.0,0.0,0.0,0.0,0.0,0.0,0.0,0.0,0.0,0.0,-6.1119,-6.0879,-6.0357,-5.9333,-5.7765,-5.5596,-5.3876,-5.2365,-5.0999,-5.0621,-5.0268,-4.9941,-4.9766,-4.9717,-4.9717,-4.9717,-4.9001,-4.7782,-4.7782,-4.7085,-4.5895,-4.5895,-4.5895,-4.5895,-4.5895,-4.5895,-4.5895,-4.5895,-4.5895,-4.5895,-4.5895,0.0,0.0,0.0,0.0,0.0,0.0,0.0,-4.5895,-4.5895,-4.5895,-4.5776,-4.5293,-4.4312,-4.3273,-4.2306,-4.0844,-3.9697,-3.9697,-3.9697,-3.9697,-3.9697,-3.9697,-3.9697,-3.9697,-4.0601,-4.1275,-4.1275,-4.2258,-4.2986,-4.2986,-4.2986,-4.2986,-4.2986,-4.2986,-4.2986,-4.2986,-4.2986,-4.2986,-4.2986,-4.2986,-4.2986,-4.2986,-4.2986,-4.2986,-4.2986,-4.2986,-4.2986,-4.2986,-4.2986,-4.2986,-4.2986,-4.2986,-4.2986,-4.2986,-4.2986,-4.2986,-4.2986,-4.2986,-4.2986,-4.2986,-4.2986,-4.2986,-4.2986,-4.2986,-4.2986,-4.2986,-4.2986,-4.2986,-4.2986,0.0,0.0,0.0,0.0,0.0,0.0,0.0,0.0,0.0,0.0,0.0,0.0,0.0,0.0,-6.1077,0.0,0.0,0.0,-6.0717,-5.9201,-5.6751,-5.3359,-5.2048,-5.0999,-5.0038,-4.9815,-4.9717,-4.9717,-4.9717,-4.9717,-4.9717,-4.9717,-4.9001,-4.7782,-4.7782,-4.7085,-4.5895,-4.5895,-4.5895,-4.5895,-4.5895,-4.5895,-4.5895,-4.5895,-4.5895,-4.5895,-4.5895,-4.5895,-4.5895,-4.5895,0.0,0.0,0.0,0.0,-4.5895,-4.5895,-4.5895,-4.5685,-4.4805,-4.4452,-4.3768,-4.1716,-4.0541,-3.9929,-3.9749,-3.9697,-3.9697,-3.9697,-3.9697,-3.9697,-3.9697,-4.0601,-4.1275,-4.1275,-4.2258,-4.2986,-4.2986,-4.2986,-4.2986,-4.2986,-4.2986,-4.2986,-4.2986,-4.2986,-4.2986,-4.2986,-4.2986,-4.2986,-4.2986,-4.2986,-4.2986,-4.2986,-4.2986,-4.2986,-4.2986,-4.2986,-4.2986,-4.2986,-4.2986,-4.2986,-4.2986,-4.2986,-4.2986,-4.2986,-4.2986,-4.2986,-4.2986,-4.2986,-4.2986,-4.2986,-4.2986,-4.2986,-4.2986,-4.2986,-4.2986,-4.2986,0.0,0.0,0.0,0.0,0.0,0.0,0.0,0.0,0.0,0.0,-6.1119,-6.1119,0.0,0.0,0.0,-6.076,-6.0961,-6.1002,-6.0717,0.0,0.0,-5.3051,-5.1774,-5.0716,-4.9766,-4.9717,-4.9717,-4.9717,-4.9717,-4.9717,-4.9717,-4.9717,-4.9001,-4.7782,-4.7782,-4.7085,-4.5895,-4.5895,-4.5895,-4.5895,-4.5895,-4.5895,-4.5895,-4.5895,-4.5895,-4.5895,-4.5895,-4.5895,-4.5895,-4.5895,-4.5895,0.0,0.0,0.0,-4.5895,-4.5895,-4.5895,-4.5895,-4.573,-4.4989,-4.3768,-4.1716,-4.1069,-4.0794,-3.9878,0.0,-3.9697,0.0,-3.9697,-3.9697,-3.9697,-4.0601,-4.1275,-4.1275,-4.2258,-4.2986,-4.2986,-4.2986,-4.2986,-4.2986,-4.2986,-4.2986,-4.2986,-4.2986,-4.2986,-4.2986,-4.2986,-4.2986,-4.2986,-4.2986,-4.2986,-4.2986,-4.2986,-4.2986,-4.2986,-4.2986,-4.2986,-4.2986,-4.2986,-4.2986,-4.2986,-4.2986,-4.2986,-4.2986,-4.2986,-4.2986,-4.2986,-4.2986,-4.2986,-4.2986,-4.2986,-4.2986,-4.2986,-4.2986,-4.2986,-4.2986,0.0,0.0,0.0,0.0,0.0,0.0,0.0,0.0,0.0,0.0,0.0,-6.1119,0.0,0.0,0.0,-6.0919,-6.0919,-6.0144,-5.8453,-5.6645,-5.4507,-5.2018,-5.0905,-5.0124,-4.9717,-4.9717,-4.9717,-4.9717,-4.9717,-4.9717,-4.9717,-4.9717,-4.9001,-4.7782,-4.8159,-4.7608,-4.6446,-4.6795,-4.694,-4.694,-4.694,-4.6737,-4.6417,-4.6417,-4.6185,-4.5895,-4.5895,-4.5895,-4.5895,-4.5895,-4.5895,-4.5895,-4.5895,0.0,0.0,0.0,-4.5895,-4.5895,-4.5895,-4.511,-4.4078,-4.315,-4.2035,-4.1069,-4.0642,-4.0083,-3.9697,-3.9697,-3.9697,-3.9697,-3.9697,-4.0601,-4.1275,-4.1275,-4.2258,-4.2986,-4.2986,-4.2986,-4.2986,-4.2986,-4.2986,-4.2986,-4.2986,-4.2986,-4.2986,-4.2986,-4.2986,-4.2986,-4.2986,-4.2986,-4.2986,-4.2986,-4.2986,-4.2986,-4.2986,-4.2986,-4.2986,-4.2986,-4.2986,-4.2986,-4.2986,-4.2986,-4.2986,-4.2986,-4.2986,-4.2986,-4.2986,-4.2986,-4.2986,-4.2986,-4.2986,-4.2986,-4.2986,-4.2986,-4.2986,-4.2986,0.0,0.0,0.0,0.0,0.0,0.0,0.0,0.0,0.0,0.0,0.0,0.0,0.0,0.0,0.0,0.0,-6.0302,-5.9015,-5.6303,-5.4851,-5.3221,-5.1216,-5.022,-4.9717,-4.9717,-4.9717,-4.9717,-4.9717,-4.9717,-4.9717,-4.9717,-4.9717,-4.9088,-4.8043,-4.8508,-4.7967,-4.6836,-4.7521,-4.7782,-4.7782,-4.7782,-4.7491,-4.7056,-4.7056,-4.6766,-4.6359,-4.6359,-4.6272,-4.6127,-4.6127,-4.6011,-4.5895,-4.5895,-4.5895,0.0,0.0,0.0,-4.5895,-4.5895,-4.5293,-4.4666,-4.4359,-4.315,-4.1838,0.0,0.0,-4.0032,0.0,-3.9697,-3.9697,-3.9697,-4.0601,-4.1275,-4.1275,-4.2258,-4.2986,-4.2986,-4.2986,-4.2986,-4.2986,-4.2986,-4.2986,-4.2986,-4.2986,-4.2986,-4.2986,-4.2986,-4.2986,-4.2986,-4.2986,-4.2986,-4.2986,-4.2986,-4.2986,-4.2986,-4.2986,-4.2986,-4.2986,-4.2986,-4.2986,-4.2986,-4.2986,-4.2986,-4.2986,-4.2986,-4.2986,-4.2986,-4.2986,-4.2986,-4.2986,-4.2986,-4.2986,-4.2986,-4.2986,-4.2986,-4.2986,0.0,0.0,0.0,0.0,0.0,0.0,0.0,0.0,0.0,0.0,0.0,0.0,-6.0633,-6.0717,-6.0173,-5.8754,-5.8799,-5.7802,-5.516,-5.3513,-5.2175,-5.1139,-5.022,0.0,-4.9717,-4.9717,-4.9717,-4.9717,-4.9717,-4.9717,-4.9717,-4.9717,-4.932,-4.8682,-4.8663,-4.7967,-4.6836,-4.7521,-4.7782,-4.7782,-4.7782,-4.7753,-4.7724,-4.7724,-4.7724,-4.7695,-4.7695,-4.7288,-4.672,-4.672,-4.6388,-4.5895,-4.5895,-4.5895,-4.5895,0.0,0.0,0.0,-4.5895,-4.585,0.0,-4.4545,-4.4219,-4.3626,0.0,0.0,-4.0844,-3.9878,-3.9697,-3.9697,-3.9697,-4.0601,-4.1275,-4.1275,-4.2258,-4.2986,-4.2986,-4.2986,-4.2986,-4.2986,-4.2986,-4.2986,-4.2986,-4.2986,-4.2986,-4.2986,-4.2986,-4.2986,-4.2986,-4.2986,-4.2986,-4.2986,-4.2986,-4.2986,-4.2986,-4.2986,-4.2986,-4.2986,-4.2986,-4.2986,-4.2986,-4.2986,-4.2986,-4.2986,-4.2986,-4.2986,-4.2986,-4.2986,-4.2986,-4.2986,-4.2986,-4.2986,-4.2986,-4.2986,-4.2986,-4.2986,0.0,0.0,0.0,0.0,0.0,0.0,0.0,0.0,0.0,0.0,0.0,0.0,0.0,-5.8542,-5.8314,-5.7807,-5.7275,-5.6093,-5.3932,-5.2886,-5.1655,-5.025,-4.9912,-4.9717,-4.9717,-4.9717,-4.9717,-4.9717,-4.9717,-4.9717,-4.9717,-4.9717,-4.932,-4.8692,-4.9146,-4.8856,-4.8054,-4.8711,-4.9001,-4.9001,-4.9001,-4.874,-4.8391,-4.8391,-4.813,-4.7782,-4.7782,-4.7637,-4.7375,-4.6969,-4.6633,-4.6417,-4.6011,-4.5895,-4.5895,-4.5895,-4.5895,-4.5895,-4.5895,0.0,0.0,-4.5429,-4.4805,-4.4125,-4.3341,-4.2668,-4.1914,-4.0895,-4.0642,-4.0465,-3.9826,-4.0601,-4.1275,-4.1275,-4.2258,-4.2986,-4.2986,-4.2986,-4.2986,-4.2986,-4.2986,-4.2986,-4.2986,-4.2986,-4.2986,-4.2986,-4.2986,-4.2986,-4.2986,-4.2986,-4.2986,-4.2986,-4.2986,-4.2986,-4.2986,-4.2986,-4.2986,-4.2986,-4.2986,-4.2986,-4.2986,-4.2986,-4.2986,-4.2986,-4.2986,-4.2986,-4.2986,-4.2986,-4.2986,-4.2986,-4.2986,-4.2986,-4.2986,-4.2986,-4.2986,-4.2986,0.0,0.0,0.0,-5.6865,0.0,-5.6865,-5.696,-5.6721,-5.6721,-5.715,0.0,0.0,0.0,0.0,-5.6962,-5.6286,-5.5193,-5.3929,-5.2486,-5.1754,-5.0854,-4.9746,-4.9717,-4.9717,-4.9717,-4.9717,-4.9717,-4.9717,-4.9717,-4.9717,-4.9717,-4.9717,-4.9436,-4.9059,-4.9494,-4.932,-4.8721,-4.9407,-4.9717,-4.9717,-4.9717,-4.9407,-4.9059,-4.9059,-4.8798,-4.842,-4.842,-4.8275,-4.8043,-4.7608,-4.7271,-4.7056,-4.6417,-4.604,-4.5895,-4.5895,-4.5895,-4.5895,-4.5895,0.0,0.0,0.0,-4.5338,-4.4759,-4.4359,-4.3796,-4.2909,-4.1518,-4.1219,-4.0895,-3.9878,-4.0601,-4.1275,-4.1275,-4.2258,-4.2986,-4.2986,-4.2986,-4.2986,-4.2986,-4.2986,-4.2986,-4.2986,-4.2986,-4.2986,-4.2986,-4.2986,0.0,-4.2986,-4.2986,-4.2986,-4.2986,-4.2986,-4.2986,-4.2986,-4.2986,-4.2986,-4.2986,-4.2986,-4.2986,-4.2986,-4.2986,-4.2986,-4.2986,-4.2986,-4.2986,-4.2986,-4.2986,-4.2986,-4.2986,-4.2986,-4.2986,-4.2986,-4.2986,-4.2986,-4.2986,-5.5944,-5.5778,-5.543,-5.4479,-5.4304,-5.4531,-5.5341,-5.4786,-5.4938,-5.6656,0.0,0.0,0.0,0.0,0.0,-5.4181,-5.2511,-5.1323,-5.0714,-5.0046,-4.9717,-4.9717,-4.9717,-4.9717,-4.9717,-4.9717,-4.9717,-4.9717,-4.9717,-4.9717,-4.9717,-4.9717,-4.9717,-4.9717,-4.9717,-4.932,-4.8798,-4.9407,-4.9717,-4.9717,-4.9717,-4.9717,-4.9717,-4.9717,-4.9717,-4.9717,-4.9717,-4.9291,-4.874,-4.8692,-4.8304,-4.7695,-4.7027,-4.6417,-4.5895,-4.5895,-4.5895,0.0,0.0,0.0,0.0,-4.5895,-4.5895,-4.564,-4.4591,-4.4359,-4.3796,-4.169,-4.1269,-4.0995,-3.9955,-4.0654,-4.1329,-4.13,-4.2283,-4.2986,-4.2986,-4.2986,-4.2986,-4.2986,-4.2986,-4.2986,-4.2986,-4.2986,-4.2986,-4.2986,-4.2986,-4.2986,-4.2986,-4.2986,-4.2986,-4.2986,-4.2986,-4.2986,-4.2986,-4.2986,-4.2986,-4.2986,-4.2986,-4.2986,-4.2986,-4.2986,-4.2986,-4.2986,-4.2986,-4.2986,-4.2986,-4.2986,-4.2986,-4.2986,-4.2986,-4.2986,-4.2986,-4.2986,-4.2986,-4.2986,-5.4756,-5.4735,-5.4633,-5.4355,-5.4304,-5.4304,-5.4355,-5.4149,-5.4097,0.0,0.0,0.0,-5.4428,-5.4065,-5.3432,-5.236,-5.1495,-5.0859,-5.0685,-5.0046,-4.9717,-4.9717,-4.9717,-4.9717,-4.9717,-4.9717,-4.9717,-4.9717,-4.9717,-4.9717,-4.9717,-4.9717,-4.9717,-4.9717,-4.9717,-4.9582,-4.9436,-4.9611,-4.9717,-4.9717,-4.9717,-4.9717,-4.9717,-4.9717,-4.9717,-4.9717,-4.9717,-4.9553,-4.9349,-4.8885,-4.8624,-4.8275,-4.7126,-4.6662,-4.6475,-4.6011,0.0,0.0,-4.5895,0.0,0.0,0.0,0.0,0.0,-4.5549,-4.5429,-4.5064,-4.3748,-4.3436,-4.3046,-4.1693,-4.1983,-4.2338,-4.2019,-4.2509,-4.2986,-4.2986,-4.2986,-4.2986,-4.2986,-4.2986,-4.2986,-4.2986,-4.2986,-4.2986,0.0,-4.2986,-4.2986,-4.2986,-4.2986,-4.2986,-4.2986,-4.2986,-4.2986,-4.2986,-4.2986,-4.2986,-4.2986,-4.2986,-4.2986,-4.2986,-4.2986,-4.2986,-4.2986,-4.2986,-4.2986,-4.2986,-4.2986,-4.2986,-4.2986,-4.2986,-4.2986,-4.2986,-4.2986,-4.2986,-4.2986,-5.3971,-5.3971,-5.3971,-5.3971,-5.3971,-5.389,-5.3762,-5.371,-5.3658,0.0,0.0,0.0,-5.3152,-5.2543,-5.1904,-5.1265,-5.0888,-5.0589,-5.0328,-4.9901,-4.9717,-4.9717,-4.9717,-4.9717,-4.9717,-4.9717,-4.9717,-4.9717,-4.9717,-4.9717,-4.9717,-4.9717,-4.9717,-4.9717,-4.9717,-4.9717,-4.9717,-4.9717,-4.9717,-4.9717,-4.9717,-4.9717,-4.9717,-4.9717,-4.9717,-4.9717,-4.9717,-4.9717,-4.9611,-4.9233,-4.8943,-4.8595,-4.7822,-4.7213,-4.672,-4.6388,0.0,0.0,0.0,0.0,0.0,-4.5895,0.0,0.0,-4.5895,-4.5895,-4.5595,-4.4499,-4.4537,-4.4343,-4.3038,-4.3431,-4.3886,-4.3649,-4.3656,-4.3572,-4.3098,-4.2986,-4.2986,-4.2986,-4.2986,-4.2986,-4.2986,-4.2986,-4.2986,-4.2986,-4.2986,-4.2986,-4.2986,-4.2986,-4.2986,-4.2986,-4.2986,-4.2986,-4.2986,-4.2986,-4.2986,-4.2986,-4.2986,-4.2986,-4.2986,-4.2986,-4.2986,-4.2986,-4.2986,-4.2986,-4.2986,-4.2986,-4.2986,-4.2986,-4.2986,-4.2986,-4.2986,-4.2986,-4.2986,-4.2986,0.0,-5.35,-5.35,-5.35,-5.35,-5.35,-5.35,-5.35,-5.35,0.0,-5.3442,-5.3152,-5.2478,-5.1846,-5.1265,-5.0627,-5.0618,-5.0357,-4.9727,-4.9717,-4.9717,-4.9717,-4.9717,-4.9717,-4.9717,-4.9717,-4.9717,-4.9717,-4.9717,-4.9717,-4.9717,-4.9717,-4.9717,-4.9717,-4.9717,-4.9717,-4.9717,-4.9717,-4.9717,-4.9717,-4.9717,-4.9717,-4.9717,-4.9717,-4.9717,-4.9717,-4.9717,-4.9717,-4.9717,-4.9717,-4.9291,-4.8827,-4.8692,-4.7909,-4.6981,-4.6923,-4.6534,0.0,0.0,0.0,0.0,-4.5895,-4.5895,0.0,-4.5895,-4.5895,-4.564,-4.4666,-4.5035,-4.5152,-4.4163,-4.4893,-4.5656,-4.5584,-4.5103,-4.437,-4.3351,-4.3073,-4.2986,-4.2986,-4.2986,-4.2986,-4.2986,-4.2986,-4.2986,-4.2986,-4.2986,-4.2986,-4.2986,-4.2986,-4.2986,-4.2986,-4.2986,-4.2986,-4.2986,-4.2986,-4.2986,-4.2986,-4.2986,-4.2986,-4.2986,-4.2986,-4.2986,-4.2986,-4.2986,-4.2986,-4.2986,-4.2986,-4.2986,-4.2986,-4.2986,-4.2986,-4.2986,-4.2986,-4.2986,-4.2986,-5.35,-5.35,-5.35,-5.35,-5.35,-5.35,-5.35,-5.35,-5.35,-5.35,-5.3065,-5.231,-5.1228,-5.0946,-5.0598,-4.993,-4.9921,-4.9814,-4.9746,-4.9717,-4.9717,-4.9717,-4.9717,-4.9717,-4.9717,-4.9717,-4.9717,-4.9717,-4.9717,-4.9717,-4.9717,-4.9717,-4.9717,-4.9717,-4.9717,-4.9717,-4.9717,-4.9717,-4.9717,-4.9717,-4.9717,-4.9717,-4.9717,-4.9717,-4.9717,-4.9717,-4.9717,-4.9717,-4.9717,-4.9717,-4.9582,-4.9407,-4.8885,-4.8518,-4.8246,-4.7753,0.0,0.0,0.0,0.0,0.0,-4.6011,-4.5895,0.0,-4.5895,-4.5895,-4.585,-4.564,-4.6085,-4.6336,-4.572,-4.6243,-4.6634,-4.6231,-4.5316,-4.4615,-4.4424,-4.3572,-4.2986,-4.2986,-4.2986,-4.2986,-4.2986,-4.2986,-4.2986,-4.2986,-4.2986,-4.2986,-4.2986,-4.2986,-4.2986,-4.2986,-4.2986,-4.2986,-4.2986,-4.2986,-4.2986,-4.2986,-4.2986,-4.2986,-4.2986,-4.2986,-4.2986,-4.2986,-4.2986,-4.2986,-4.2986,-4.2986,-4.2986,-4.2986,-4.2986,-4.2986,-4.2986,-4.2986,-4.2986,-4.2986,-5.35,-5.35,-5.35,-5.35,-5.35,-5.35,-5.35,-5.35,-5.3384,-5.3094,-5.2223,-5.1432,-5.0793,-5.0415,-5.0095,-4.9698,-4.9717,0.0,0.0,-4.9717,-4.9717,-4.9717,-4.9717,-4.9717,-4.9717,-4.9717,-4.9717,-4.9717,-4.9717,-4.9717,-4.9717,-4.9717,-4.9717,-4.9717,-4.9717,-4.9717,-4.9717,-4.9717,-4.9717,-4.9717,-4.9717,-4.9717,-4.9717,-4.9717,-4.9717,-4.9717,-4.9717,-4.9717,-4.9717,-4.9717,-4.9717,-4.9611,-4.9291,-4.8972,-4.8653,0.0,-4.8043,-4.7724,0.0,0.0,0.0,-4.6911,-4.6824,0.0,0.0,-4.6824,-4.6824,-4.6824,-4.7346,-4.768,-4.7443,-4.7966,-4.8332,-4.8066,-4.7074,-4.6347,-4.6347,-4.4398,-4.2986,-4.2986,-4.2986,-4.2986,-4.2986,-4.2986,-4.2986,-4.2986,-4.2986,-4.2986,-4.2986,-4.2986,-4.2986,-4.2986,-4.2986,-4.2986,-4.2986,-4.2986,-4.2986,-4.2986,-4.2986,-4.2986,-4.2986,-4.2986,-4.2986,-4.2986,-4.2986,-4.2986,-4.2986,-4.2986,-4.2986,-4.2986,-4.2986,-4.2986,-4.2986,-4.2986,-4.2986,-4.2986,-5.35,-5.35,-5.35,-5.35,-5.35,-5.35,-5.35,-5.3413,-5.3065,-5.231,-5.1374,-5.0627,-5.0481,-4.9988,-4.9717,-4.9717,-4.9717,0.0,-4.9717,-4.9717,-4.9717,-4.9717,-4.9717,-4.9717,-4.9717,-4.9717,-4.9717,-4.9717,-4.9717,-4.9717,-4.9717,-4.9717,-4.9717,-4.9717,-4.9717,-4.9717,-4.9717,-4.9717,-4.9717,-4.9717,-4.9717,-4.9717,-4.9717,-4.9717,-4.9717,-4.9717,-4.9717,-4.9717,-4.9717,-4.9717,-4.9717,-4.9717,-4.9717,-4.932,0.0,0.0,0.0,0.0,0.0,0.0,0.0,0.0,0.0,-4.7782,0.0,0.0,0.0,-4.7782,0.0,0.0,0.0,0.0,0.0,0.0,0.0,0.0,0.0,-4.5422,0.0,-4.3351,-4.3129,-4.2986,-4.2986,-4.2986,-4.2986,-4.2986,-4.2986,-4.2986,-4.2986,-4.2986,-4.2986,-4.2986,-4.2986,-4.2986,-4.2986,-4.2986,-4.2986,-4.2986,-4.2986,-4.2986,-4.2986,-4.2986,-4.2986,-4.2986,-4.2986,-4.2986,-4.2986,-4.2986,-4.2986,-4.2986,-4.2986,-4.2986,-4.2986,-4.2986,-4.2986,-4.2986,-5.35,-5.35,-5.35,-5.35,-5.35,-5.35,-5.35,-5.3036,-5.2304,-5.1083,-5.0822,-5.0452,-4.9892,-4.9776,-4.9717,-4.9717,-4.9717,-4.9717,-4.9717,-4.9717,-4.9717,-4.9717,-4.9717,-4.9717,-4.9717,-4.9717,-4.9717,-4.9717,-4.9717,-4.9717,-4.9717,-4.9717,-4.9717,-4.9717,-4.9717,-4.9717,-4.9717,-4.9717,-4.9717,-4.9717,-4.9717,-4.9717,-4.9717,-4.9717,-4.9717,-4.9717,-4.9717,-4.9717,-4.9717,0.0,-4.9717,-4.9717,0.0,-4.964,-4.9582,-4.9582,0.0,0.0,0.0,0.0,0.0,0.0,-4.7782,-4.7782,0.0,0.0,-4.7782,-4.7782,0.0,0.0,0.0,0.0,0.0,0.0,0.0,0.0,-4.7291,-4.6487,-4.5555,-4.4615,-4.3628,-4.2986,-4.2986,-4.2986,-4.2986,-4.2986,-4.2986,-4.2986,-4.2986,-4.2986,-4.2986,-4.2986,-4.2986,-4.2986,-4.2986,-4.2986,-4.2986,-4.2986,-4.2986,-4.2986,-4.2986,-4.2986,-4.2986,-4.2986,-4.2986,-4.2986,-4.2986,-4.2986,-4.2986,-4.2986,-4.2986,-4.2986,-4.2986,-4.2986,-4.2986,-4.2986,-5.3355,-5.35,-5.35,-5.35,-5.321,-5.2978,-5.2978,-5.2107,-5.1345,-5.0793,-5.0336,-4.9988,-4.9698,-4.9717,-4.9717,-4.9717,-4.9717,-4.9717,-4.9717,-4.9717,-4.9717,-4.9717,-4.9717,-4.9717,-4.9717,-4.9717,-4.9717,-4.9717,-4.9717,-4.9717,-4.9717,-4.9717,-4.9717,-4.9717,-4.9717,-4.9717,-4.9717,-4.9717,-4.9717,-4.9717,-4.9717,-4.9717,-4.9717,-4.9717,-4.9717,-4.9717,-4.9717,-4.9717,-4.9717,0.0,-4.9717,0.0,0.0,0.0,0.0,-4.9717,0.0,0.0,0.0,0.0,0.0,0.0,0.0,0.0,-4.8885,0.0,-4.8885,0.0,0.0,0.0,0.0,0.0,0.0,0.0,-4.9124,0.0,0.0,0.0,-4.6867,0.0,0.0,0.0,-4.3073,0.0,0.0,0.0,-4.2986,-4.2986,-4.2986,-4.2986,-4.2986,-4.2986,-4.2986,-4.2986,-4.2986,-4.2986,-4.2986,-4.2986,-4.2986,-4.2986,-4.2986,-4.2986,-4.2986,-4.2986,-4.2986,-4.2986,-4.2986,-4.2986,-4.2986,-4.3011,-4.3338,-4.3263,-4.3011,-4.3338,-4.3463,-4.3514,-5.1856,-5.256,-5.3007,-5.3007,-5.263,-5.2252,-5.2078,-5.1316,-5.0598,-5.0473,-5.0037,-4.9717,-4.9717,-4.9717,-4.9717,-4.9717,-4.9717,-4.9717,-4.9717,-4.9717,-4.9717,-4.9717,-4.9717,-4.9717,-4.9717,-4.9717,-4.9717,-4.9717,-4.9717,-4.9717,-4.9717,-4.9717,-4.9717,-4.9717,-4.9717,-4.9717,-4.9717,-4.9717,-4.9717,-4.9717,-4.9717,-4.9717,-4.9717,-4.9717,-4.9717,-4.9717,-4.9717,-4.9717,-4.9717,-4.9717,-4.9717,0.0,-4.9717,0.0,-4.9717,0.0,0.0,0.0,-4.9717,0.0,0.0,0.0,0.0,0.0,0.0,0.0,0.0,0.0,0.0,0.0,0.0,0.0,0.0,0.0,0.0,-4.9611,0.0,-4.8886,0.0,0.0,0.0,0.0,0.0,0.0,-4.3351,-4.3042,-4.2986,-4.2986,-4.2986,-4.2986,-4.2986,-4.2986,-4.2986,-4.2986,-4.2986,-4.2986,-4.2986,-4.2986,-4.2986,-4.2986,-4.2986,-4.2986,-4.2986,-4.2986,-4.2986,-4.2986,-4.2986,-4.2986,-4.3062,-4.3237,-4.3639,-4.3639,-4.3489,-4.389,-4.4016,-4.4091,-4.8463,-5.0223,-5.1672,-5.1672,-5.1672,-5.1439,-5.083,-5.0763,-5.0502,-4.9785,-4.9746,-4.9717,-4.9717,-4.9717,-4.9717,-4.9717,-4.9717,-4.9717,-4.9717,-4.9717,-4.9717,-4.9717,-4.9717,-4.9717,-4.9717,-4.9717,-4.9717,-4.9717,-4.9717,-4.9717,-4.9717,-4.9717,-4.9717,-4.9717,-4.9717,-4.9717,-4.9717,-4.9717,-4.9717,-4.9717,-4.9717,-4.9717,-4.9717,0.0,-4.9717,-4.9717,-4.9717,0.0,0.0,-4.9717,-4.9717,0.0,0.0,0.0,0.0,0.0,0.0,0.0,0.0,0.0,0.0,-4.9717,0.0,0.0,0.0,0.0,-4.9717,0.0,0.0,0.0,0.0,0.0,0.0,0.0,0.0,0.0,0.0,0.0,0.0,0.0,0.0,0.0,0.0,-4.4615,-4.4206,-4.3073,-4.2986,-4.2986,-4.2986,-4.2986,-4.2986,-4.2986,-4.2986,-4.2986,-4.2986,-4.2986,-4.2986,-4.2986,-4.2986,-4.2986,-4.2986,-4.2986,-4.2986,-4.2986,-4.2986,-4.2986,-4.2986,-4.2986,-4.3288,-4.379,-4.379,-4.4116,-4.4568,-4.4593,-4.4593,-4.4593,-4.6997,-4.7576,-4.8375,-4.9262,-4.9067,-4.8514,-4.7902,-4.7791,-4.7991,-4.8503,-4.8603,-4.8852,-4.962,-4.9717,-4.9717,-4.9717,-4.9717,-4.9717,-4.9717,-4.9717,-4.9717,-4.9717,-4.9717,-4.9717,-4.9717,-4.9717,-4.9717,-4.9717,-4.9717,-4.9717,-4.9717,-4.9717,-4.9717,-4.9717,-4.9717,-4.9717,-4.9717,-4.9717,-4.9717,-4.9746,-5.0211,-5.0336,-5.0278,0.0,-4.9717,-4.9717,-4.9717,-4.9717,0.0,-4.9717,-4.9717,-4.9717,-4.9717,-4.9717,-4.9717,-4.9717,-4.9717,0.0,0.0,0.0,-4.9717,-4.9717,0.0,0.0,0.0,0.0,0.0,0.0,0.0,0.0,0.0,0.0,0.0,0.0,0.0,0.0,0.0,0.0,0.0,0.0,0.0,0.0,0.0,0.0,0.0,-4.4152,-4.3406,-4.2986,-4.2986,-4.2986,-4.2986,-4.2986,-4.2986,-4.2986,-4.2986,-4.2986,-4.2986,-4.2986,-4.2986,-4.2986,-4.2986,-4.2986,-4.2986,-4.2986,-4.2986,-4.3187,-4.3514,-4.3514,-4.384,-4.4392,-4.4769,-4.502,-4.5196,-4.5196,-4.5196,-4.5246,-4.5128,-4.5128,-4.5635,-4.7297,-4.7241,-4.6781,-4.6401,-4.6267,-4.6528,-4.728,-4.7383,-4.7689,-4.8424,-4.8474,-4.8624,-4.905,-4.91,-4.9248,-4.9669,-4.9717,-4.9717,-4.9717,-4.9717,-4.9717,-4.9717,-4.9326,-4.91,-4.91,-4.8674,-4.8474,-4.8474,-4.8474,-4.8724,-4.91,-4.91,-4.9326,-4.9746,-4.993,-5.0095,-5.0075,0.0,-5.1004,0.0,0.0,-5.0365,-5.0365,0.0,-5.022,-5.0095,-5.0095,-4.9921,-4.9717,-4.9717,-4.9717,-4.9717,-4.9717,-4.9717,-4.9717,-4.9717,-4.9717,0.0,-4.9717,-4.9717,0.0,-4.9717,0.0,-4.9717,0.0,0.0,0.0,0.0,0.0,0.0,0.0,0.0,0.0,0.0,-4.9717,0.0,0.0,0.0,0.0,0.0,0.0,-4.5582,-4.4778,-4.4042,-4.3406,0.0,0.0,-4.2986,-4.2986,-4.2986,-4.2986,-4.2986,-4.2986,-4.2986,-4.2986,-4.2986,-4.2986,-4.2986,-4.2986,-4.2986,-4.2986,-4.3187,-4.3463,-4.3815,-4.4016,-4.4418,-4.497,-4.5347,-4.5623,-4.5773,-4.5773,-4.5773,-4.5824,-4.2986,-4.2986,-4.3657,-4.5741,-4.611,-4.611,-4.611,-4.611,-4.6162,-4.6215,-4.6215,-4.6215,-4.6267,-4.6267,-4.6764,-4.7819,-4.7971,-4.8424,-4.9571,-4.9669,-4.9717,-4.9717,-4.9717,-4.9717,-4.9717,-4.8603,-4.8021,-4.8021,-4.6867,-4.6267,-4.6267,-4.6267,-4.6867,-4.792,-4.7948,-4.8581,-4.9707,-5.0374,-5.0664,-5.0772,-5.141,-5.1672,-5.1672,-5.1701,-5.1701,-5.1701,-5.1643,-5.1236,-5.0714,-5.0714,-5.0307,-4.9805,-4.9776,-4.9776,-4.9727,-4.9746,-4.9717,-4.9717,-4.9717,-4.9717,-4.9717,-4.9717,-4.9717,0.0,0.0,0.0,-4.9717,0.0,0.0,0.0,0.0,0.0,0.0,0.0,0.0,0.0,0.0,0.0,0.0,0.0,0.0,0.0,0.0,-4.8021,-4.7074,-4.494,-4.4724,0.0,0.0,0.0,-4.2986,-4.2986,-4.2986,-4.2986,-4.2986,-4.2986,-4.2986,-4.2986,-4.2986,-4.2986,-4.2986,-4.3011,-4.3011,-4.3062,-4.3614,-4.3865,-4.3915,-4.4443,-4.4995,-4.5522,-4.5522,-4.5849,-4.6301,-4.6301,-4.6301,-4.6301,-4.2986,-4.2986,-4.3184,-4.3768,-4.3878,-4.3878,-4.3878,-4.3878,-4.4126,-4.4993,-4.5101,-4.5395,-4.6215,-4.6267,-4.6424,-4.6684,-4.7485,-4.8122,-4.8424,-4.9198,-4.9717,-4.9717,-4.9717,-4.9717,-4.9717,-4.8603,-4.8021,-4.8021,-4.6867,-4.6267,-4.6267,-4.6267,-4.6424,-4.6764,-4.7204,-4.8076,-4.9212,-4.9784,-5.056,-5.1439,-5.2078,-5.231,-5.2368,0.0,-5.3036,-5.2891,-5.1962,-5.1527,-5.1381,-5.1381,-5.1265,-5.1033,-5.0569,-5.0423,-5.0386,-4.9863,-4.9717,-4.9717,-4.9717,-4.9717,-4.9717,-4.9717,-4.9717,-4.9717,0.0,0.0,0.0,0.0,0.0,0.0,0.0,0.0,0.0,0.0,0.0,0.0,0.0,0.0,0.0,-4.9717,0.0,0.0,-4.9297,-4.8474,-4.7383,-4.6032,-4.5154,0.0,0.0,0.0,0.0,-4.2986,-4.2986,-4.2986,-4.2986,-4.2986,-4.2986,-4.2986,-4.2986,-4.2986,-4.2986,-4.3413,-4.3589,-4.3614,-4.4166,-4.4669,-4.507,-4.5196,-4.5598,-4.61,-4.61,-4.6175,-4.6301,-4.6301,-4.6301,-4.6301,-4.3689,-4.3689,-4.3689,-4.3689,-4.3689,-4.3614,-4.3363,-4.3539,-4.3916,-4.4566,-4.4678,-4.4875,-4.5511,-4.5566,-4.5785,-4.6248,-4.692,-4.7452,-4.7978,-4.8602,-4.899,-4.899,-4.899,-4.899,-4.899,-4.7873,0.0,-4.7293,-4.6112,-4.5566,-4.5566,-4.5566,-4.584,-4.6329,0.0,-4.7487,-4.8636,-4.9752,-5.0756,-5.1699,-5.2625,-5.2978,0.0,-5.3384,-5.35,-5.3413,-5.2717,-5.2281,-5.2049,-5.2049,-5.1846,-5.1556,-5.1207,-5.1091,-5.0946,-5.0307,-5.0153,-5.0046,-4.9805,-4.9717,-4.9717,-4.9717,-4.9717,-4.9717,-4.9717,-4.9717,-4.9717,0.0,-4.9717,-4.9717,0.0,0.0,0.0,0.0,0.0,0.0,0.0,0.0,0.0,0.0,-4.9717,0.0,-4.9717,-4.91,-4.8274,-4.7126,-4.6503,0.0,0.0,0.0,0.0,-4.3042,-4.2986,-4.2986,-4.2986,-4.2986,-4.2986,-4.2986,-4.2986,-4.3112,-4.3338,-4.3664,-4.394,-4.4192,-4.4769,-4.5196,-4.5497,-4.5748,-4.6024,-4.6301,-4.6301,-4.6301,-4.6301,-4.6301,-4.6301,-4.6301,-4.4618,-4.4618,-4.4618,-4.4618,-4.4694,-4.4568,-4.4091,-4.4367,-4.4618,-4.4618,-4.4618,-4.4618,-4.4618,-4.4618,-4.4998,-4.6,-4.6226,-4.6705,-4.7701,-4.792,-4.7974,-4.7974,-4.7974,-4.7974,-4.7974,-4.6872,-4.6282,-4.6282,-4.517,-4.4618,-4.4618,-4.4618,0.0,0.0,0.0,0.0,0.0,-4.9937,-5.1008,-5.1593,-5.2623,-5.2996,-5.3078,-5.3237,-5.329,-5.329,-5.3448,-5.3152,-5.2688,-5.2688,-5.2339,-5.1846,-5.1759,-5.173,-5.1614,-5.0975,-5.0801,-5.0656,-4.9988,-4.9814,-4.9785,-4.9698,-4.9717,-4.9717,-4.9717,-4.9717,-4.9717,-4.9717,-4.9717,-4.9717,0.0,0.0,0.0,0.0,0.0,0.0,0.0,0.0,0.0,0.0,0.0,0.0,-4.9717,-4.9717,-4.9198,-4.8072,0.0,0.0,0.0,0.0,0.0,-4.3042,-4.2986,-4.3073,-4.324,0.0,-4.3123,-4.3366,-4.3199,-4.3363,-4.3915,-4.3991,-4.4292,-4.4769,-4.5347,-4.5598,-4.5623,-4.6125,-4.6301,-4.6301,-4.6301,-4.6301,-4.6301,-4.6301,-4.6301,-4.6301,-4.4618,-4.4618,-4.4618,-4.4618,-4.502,-4.5296,-4.5221,-4.4869,-4.4618,-4.4618,-4.4618,-4.4618,-4.4618,-4.4618,-4.4676,-4.4908,-4.5773,-4.6395,-4.6593,-4.7481,-4.7974,-4.7974,-4.7974,-4.7974,-4.7974,-4.6872,-4.6282,-4.6282,-4.517,-4.4618,-4.4618,-4.4618,0.0,0.0,0.0,0.0,-4.821,-4.9486,0.0,-5.0238,-5.0489,-5.0545,-5.0657,-5.1648,-5.2028,-5.2136,-5.3102,-5.3442,-5.3355,-5.3355,-5.3268,-5.3094,-5.2572,-5.2397,-5.2281,-5.1643,-5.1439,-5.1323,-5.0685,-5.0481,-5.0415,-4.9863,-4.9717,-4.9717,-4.9717,-4.9717,-4.9717,-4.9717,-4.9717,-4.9717,-4.9717,0.0,0.0,0.0,0.0,0.0,0.0,0.0,0.0,0.0,0.0,-4.9717,0.0,-4.9717,-4.9198,0.0,0.0,0.0,0.0,0.0,0.0,0.0,-4.2986,0.0,0.0,0.0,-4.369,-4.507,-4.4091,-4.394,-4.4493,-4.497,-4.5246,-4.5372,-4.5924,-4.6175,-4.6175,-4.6276,-4.6301,-4.6301,-4.6301,-4.6301,-4.6301,-4.6301,-4.6301,-4.6301,-4.5497,-4.5497,-4.5497,-4.5497,-4.5723,-4.5924,-4.5924,-4.5673,-4.5497,-4.5497,-4.5497,-4.5497,-4.5497,-4.5497,-4.5497,-4.5497,-4.6002,-4.6294,-4.6294,-4.6791,-4.7137,-4.7137,-4.7137,-4.7137,-4.7137,-4.656,-4.6294,-4.6294,-4.5767,-4.5497,-4.5497,-4.5497,0.0,-4.5497,0.0,-4.6408,0.0,0.0,0.0,-4.8992,-4.9619,-4.9901,-4.9958,-5.0518,-5.1127,-5.1674,-5.1648,-5.2056,-5.2541,-5.2541,-5.2996,-5.3337,-5.2411,-5.2536,-5.292,-5.231,-5.2107,-5.1962,-5.1323,-5.1178,-5.1091,-5.0772,-5.0423,-5.0191,-5.0191,-4.9979,-4.9717,-4.9717,-4.9717,-4.9717,-4.9717,-4.9717,0.0,0.0,0.0,0.0,0.0,0.0,0.0,0.0,0.0,0.0,0.0,0.0,0.0,0.0,0.0,0.0,0.0,0.0,0.0,0.0,0.0,0.0,0.0,0.0,0.0,-4.4612,-4.4352,-4.4518,-4.507,-4.5372,-4.5648,-4.5924,-4.62,-4.6301,-4.6301,-4.6301,-4.6301,-4.6301,-4.6301,-4.6301,-4.6301,-4.6301,-4.6301,-4.6301,-4.6301,-4.6301,-4.6301,-4.6301,-4.6301,-4.6301,-4.6301,-4.6301,-4.6301,-4.6301,-4.6301,-4.6301,-4.6301,-4.6301,-4.6301,-4.6301,-4.6301,-4.6301,-4.6301,-4.6301,-4.6301,-4.6301,-4.6301,-4.6301,-4.6301,-4.6301,-4.6301,-4.6301,-4.6301,-4.625,0.0,0.0,0.0,0.0,0.0,0.0,0.0,0.0,-4.771,-4.7802,-4.8731,-4.9133,-4.919,-4.9392,-5.0126,-5.0851,-5.0126,-5.0518,-5.1292,-5.1017,-5.1757,-5.2623,-5.192,-5.238,-5.3069,-5.2868,-5.2775,-5.263,-5.1991,-5.1817,-5.1788,-5.1643,-5.1236,-5.0888,-5.0888,-5.0452,-5.0046,-4.993,-4.9834,-4.9717,-4.9717,-4.9717,0.0,0.0,0.0,0.0,0.0,0.0,0.0,0.0,0.0,0.0,-4.9717,0.0,0.0,0.0,0.0,0.0,0.0,0.0,0.0,0.0,0.0,-4.3513,-4.3891,0.0,-4.4029,-4.4485,-4.4709,-4.5095,-4.5673,-4.5673,-4.5899,-4.6301,-4.6301,-4.6301,-4.6301,-4.6301,-4.6301,-4.6301,-4.6301,-4.6301,-4.6301,-4.6301,-4.6301,-4.6301,-4.6301,-4.6301,-4.6301,-4.6301,-4.6301,-4.6301,-4.6301,-4.6301,-4.6301,-4.6301,-4.6301,-4.6301,-4.6301,-4.6301,-4.6301,-4.6301,-4.6301,-4.6301,-4.6301,-4.6301,-4.6301,-4.6301,-4.6301,-4.6301,-4.6301,-4.6301,-4.6301,0.0,-4.6301,-4.605,0.0,0.0,0.0,0.0,0.0,0.0,0.0,-4.6421,-4.6481,-4.6481,-4.6601,-4.6661,-4.6755,-4.7886,-4.8326,-4.8532,-4.9562,-4.9958,-4.9901,-4.882,-4.9221,-5.0406,-5.1401,-5.1811,-5.2082,-5.3097,-5.3442,-5.3297,-5.2659,-5.2484,-5.2339,-5.1759,-5.1585,-5.1527,-5.1527,-5.1468,-5.1265,-5.0714,-5.0104,-4.9717,-4.9717,-4.9717,-4.9717,0.0,0.0,0.0,0.0,0.0,-4.9717,-4.9717,0.0,0.0,0.0,-4.9717,0.0,0.0,-4.905,0.0,0.0,0.0,0.0,-4.4615,0.0,-4.5257,-4.6786,-4.481,-4.4783,-4.6814,-4.5875,-4.5698,-4.6225,-4.6225,-4.625,-4.6301,-4.6301,-4.6301,-4.6301,-4.6301,-4.6301,-4.6301,-4.6301,-4.6301,-4.6301,-4.6301,-4.6301,-4.6301,-4.6301,-4.6301,-4.6301,-4.6301,-4.6301,-4.6301,-4.6301,-4.6301,-4.6301,-4.6301,-4.6301,-4.6301,-4.6301,-4.6301,-4.6301,-4.6301,-4.6301,-4.6301,-4.6301,-4.6301,-4.6301,-4.6301,-4.6301,-4.6301,-4.6301,-4.6301,-4.6301,0.0,0.0,0.0,0.0,0.0,0.0,0.0,0.0,-4.6301,-4.6301,-4.6301,-4.6301,-4.6301,-4.6301,-4.6301,-4.6361,-4.6874,-4.7475,-4.8094,-4.7828,-4.821,-4.8673,-4.7416,-4.8268,-4.9845,-4.9619,-5.007,-5.0851,-5.2082,-5.2434,-5.2537,-5.3024,-5.3123,-5.3065,-5.2833,-5.2484,-5.2194,-5.2194,-5.1904,-5.1556,-5.1294,-5.1033,-5.083,-5.083,-5.054,-5.0328,0.0,0.0,0.0,0.0,0.0,0.0,-4.9717,0.0,-4.9717,0.0,0.0,0.0,0.0,0.0,0.0,0.0,0.0,0.0,-4.5714,0.0,-4.4827,-4.619,-4.5303,-4.5254,-4.6152,-4.6036,-4.61,-4.6301,-4.6301,-4.6301,-4.6301,-4.6301,-4.6301,-4.6301,-4.6301,-4.6301,-4.6301,-4.6301,-4.6301,-4.6301,-4.6301,-4.6301,-4.6301,-4.6301,-4.6301,-4.6301,-4.6301,-4.6301,-4.6301,-4.6301,-4.6301,-4.6301,-4.6301,-4.6301,-4.6301,-4.6301,-4.6301,-4.6301,-4.6301,-4.6301,-4.6301,-4.6301,-4.6301,-4.6301,-4.6301,-4.6301,0.0,-4.6301,-4.6301,-4.6301,-4.6301,-4.6301,0.0,0.0,0.0,0.0,0.0,-4.6301,-4.6301,-4.6301,-4.6301,-4.6301,-4.6301,-4.6301,-4.6301,-4.6301,-4.6301,-4.6815,-4.7475,-4.6576,-4.6874,-4.7416,-4.6601,-4.7442,-4.8731,-4.8268,-4.8647,-4.9619,-5.0796,-5.1182,-5.1347,-5.2218,-5.2434,-5.2541,-5.289,-5.2386,-5.1885,-5.223,-5.1676,-5.1147,-5.1339,-5.1219,-5.1177,-5.1512,-5.1265,-5.0946,-5.0946,0.0,0.0,0.0,-5.0104,0.0,0.0,-4.9785,-4.9717,-4.9717,-4.9892,0.0,0.0,0.0,0.0,0.0,0.0,0.0,0.0,0.0,0.0,0.0,-4.586,-4.5573,-4.5723,-4.6125,-4.6301,-4.6301,-4.6301,-4.6301,-4.6301,-4.6301,-4.6301,-4.6301,-4.6301,-4.6301,-4.6301,-4.6301,-4.6301,-4.6301,-4.6301,-4.6301,-4.6301,-4.6301,-4.6301,-4.6301,-4.6301,-4.6301,-4.6301,-4.6301,-4.6301,-4.6301,-4.6301,-4.6301,-4.6301,-4.6301,-4.6301,-4.6301,-4.6301,-4.6301,-4.6301,-4.6301,-4.6301,-4.6301,0.0,0.0,-4.6301,-4.6301,-4.6301,-4.6301,-4.6301,0.0,0.0,-4.5497,0.0,-4.5799,-4.6301,-4.6301,-4.6301,-4.6301,-4.6301,-4.6301,-4.6301,-4.6301,-4.6301,-4.6301,-4.6301,-4.6301,-4.6301,-4.6301,-4.6301,-4.6301,-4.6301,-4.6301,-4.6541,-4.7769,-4.8094,-4.8384,-4.9562,-4.9901,-4.9901,-4.9901,-4.9901,-5.0238,-5.1401,-5.0796,-5.0238,-5.1456,-5.0796,-5.0075,-5.0701,-5.0297,-5.019,-5.141,-5.1614,-5.1614,-5.1614,0.0,0.0,0.0,0.0,0.0,-5.0705,-5.0124,-4.9717,-4.9717,-5.0328,0.0,0.0,0.0,0.0,0.0,0.0,0.0,-4.9872,-4.8677,0.0,-4.895,-4.665,-4.5773,-4.6301,-4.6301,-4.6301,-4.6301,-4.6301,-4.6301,-4.6301,-4.6301,-4.6301,-4.6301,-4.6301,-4.6301,-4.6301,-4.6301,-4.6301,-4.6301,-4.6301,-4.6301,-4.6301,-4.6301,-4.6301,-4.6301,-4.6301,-4.6301,-4.6301,-4.6301,-4.6301,-4.6301,-4.6301,-4.6301,-4.6301,-4.6301,-4.6301,-4.6301,0.0,-4.6301,-4.6301,0.0,-4.6301,-4.6301,-4.6301,-4.6301,-4.6301,-4.6301,-4.6301,-4.6301,-4.6301,0.0,0.0,0.0,-4.605,-4.615,-4.6301,-4.6301,-4.6301,-4.6301,-4.6301,-4.6301,-4.6301,-4.6301,-4.6301,-4.6301,-4.6301,-4.6301,-4.6301,-4.6301,-4.6301,-4.6301,-4.6301,-4.6301,-4.6361,-4.6755,-4.6874,-4.7087,-4.8326,-4.8647,-4.882,-4.9675,-4.9901,-4.9958,-5.035,-5.0796,-5.1017,-5.0573,-5.0796,-5.0961,-5.0298,-5.0655,-5.122,-5.1623,-5.0668,-5.0067,-5.0893,-5.0658,0.0,0.0,0.0,0.0,0.0,-5.112,-5.1004,-5.1004,-5.1207,0.0,0.0,0.0,0.0,0.0,0.0,0.0,0.0,-4.71,0.0,-4.7687,-4.6593,-4.6125,-4.6301,-4.6301,-4.6301,-4.6301,-4.6301,-4.6301,-4.6301,-4.6301,-4.6301,-4.6301,-4.6301,-4.6301,-4.6301,-4.6301,-4.6301,-4.6301,-4.6301,-4.6301,-4.6301,-4.6301,-4.6301,-4.6301,-4.6301,-4.6301,-4.6301,-4.6301,-4.6301,-4.6301,-4.6301,-4.6301,-4.6301,-4.6301,-4.6301,0.0,-4.6301,-4.6301,-4.6301,-4.6301,-4.6301,-4.6301,-4.6301,-4.6301,-4.6301,-4.6301,-4.6301,0.0,-4.6301,-4.6301,-4.6301,-4.6301,-4.6301,-4.6301,-4.6301,-4.6301,-4.6301,-4.6301,-4.6301,-4.6301,-4.6301,-4.6301,-4.6301,-4.6301,-4.6301,-4.6301,-4.6301,-4.6301,-4.6301,-4.6301,-4.6301,-4.6301,-4.6301,-4.6301,-4.6301,-4.6481,-4.7205,-4.7416,-4.7593,-4.8326,-4.8558,-4.8673,-4.9106,-4.9448,-4.9448,-4.8731,-4.9106,-4.9562,-4.9278,-4.9845,-5.0518,-5.0962,-5.0105,-4.9581,-5.0326,-5.0102,-4.9825,-4.9825,0.0,0.0,0.0,0.0,0.0,0.0,-5.1846,-5.1991,0.0,0.0,0.0,0.0,0.0,0.0,-5.0069,-4.861,0.0,-4.8828,-4.7587,-4.6968,-4.6968,-4.6541,-4.6301,-4.6301,-4.6301,-4.6301,-4.6301,-4.6301,-4.6301,-4.6301,-4.6301,-4.6301,-4.6301,-4.6301,-4.6301,-4.6301,-4.6301,-4.6301,-4.6301,-4.6301,-4.6301,-4.6301,-4.6301,-4.6301,-4.6301,-4.6301,-4.6301,-4.6301,-4.6301,-4.6301,-4.6301,-4.6301,-4.6301,-4.6301,-4.6301,0.0,0.0,-4.6301,-4.6301,-4.6301,-4.6301,-4.6301,-4.6301,-4.6301,-4.6301,-4.6301,-4.6301,-4.6301,-4.6301,-4.6301,-4.6301,-4.6301,-4.6301,-4.6301,-4.6301,-4.6301,-4.6301,-4.6301,-4.6301,-4.6301,-4.6301,-4.6301,-4.6301,-4.6301,-4.6301,-4.6301,-4.6301,-4.6301,-4.6301,-4.6301,-4.6301,-4.6301,-4.6301,-4.6301,-4.6301,-4.6301,-4.6301,-4.6301,-4.6301,-4.6601,-4.771,-4.7146,-4.6301,-4.6421,-4.6421,-4.6695,-4.7769,-4.8035,-4.8442,-4.9562,-4.9702,-4.9702,-4.9732,-4.9845,-4.9901,-4.9901,0.0,0.0,0.0,0.0,0.0,0.0,-5.2281,-5.2681,0.0,0.0,0.0,0.0,0.0,-5.2839,-5.3208,-5.2136,-5.1511,-5.1456,-4.9221,-4.8035,-4.7977,-4.6874,-4.6301,-4.6301,-4.6301,-4.6301,-4.6301,-4.6301,-4.6301,-4.6301,-4.6301,-4.6301,-4.6301,-4.6301,-4.6301,-4.6301,-4.6301,-4.6301,-4.6301,0.0,0.0,-4.6301,-4.6301,-4.6301,-4.6301,-4.6301,-4.6301,-4.6301,-4.6301,-4.6301,-4.6301,-4.6301,-4.6301,-4.6301,-4.6301,-4.6301,-4.6301,-4.6301,-4.6301,-4.6301,-4.6301,-4.6301,-4.6301,-4.6301,-4.6301,-4.6301,-4.6301,-4.6301,-4.6301,-4.6301,-4.6301,-4.6301,-4.6301,-4.6301,-4.6301,-4.6301,-4.6301,-4.6301,-4.6301,-4.6301,-4.6301,-4.6301,-4.6301,-4.6301,-4.6301,-4.6301,-4.6301,-4.6301,-4.6301,-4.6301,-4.6301,-4.6301,-4.6301,-4.6301,-4.6301,-4.6301,-4.6301,-4.6301,-4.6301,-4.6361,-4.6636,-4.6541,-4.6541,-4.7475,-4.7652,-4.7475,-4.6874,-4.7475,-4.821,-4.85,-4.7769,-4.7442,-4.8384,-4.9278,-4.9901,-4.9901,-5.1372,0.0,0.0,-5.2704,-5.2722,-5.3013,-5.321,-5.3297,0.0,0.0,0.0,0.0,-5.3198,-5.2505,-5.0823,-5.0462,-4.9901,-4.8992,-4.8384,-4.7652,-4.6695,-4.6421,-4.6301,-4.6301,-4.6301,-4.6301,-4.6301,-4.6301,-4.6301,-4.6301,-4.6301,-4.6301,-4.6301,-4.6301,-4.6301,-4.6301,-4.6301,-4.6301,-4.6301,-4.6301,-4.6301,-4.6301,-4.6301,-4.6301,-4.6301,-4.6301,-4.6301,-4.6301,-4.6301,-4.6301,-4.6301,-4.6301,-4.6301,-4.6301,-4.6301,-4.6301,-4.6301,-4.6301,-4.6301,-4.6301,-4.6301,-4.6301,-4.6301,-4.6301,-4.6301,-4.6301,-4.6301,-4.6301,-4.6301,-4.6301,-4.6301,-4.6301,-4.6301,-4.6301,-4.6301,-4.6301,-4.6301,-4.6301,-4.6301,-4.6301,-4.6301,-4.6301,-4.6301,-4.6301,-4.6301,-4.6301,-4.6301,-4.6301,-4.6301,-4.6301,-4.6301,-4.6301,-4.6301,-4.6301,-4.6301,-4.6301,-4.6301,-4.6301,-4.6301,-4.6301,-4.6301,-4.6301,-4.6481,-4.7146,-4.7265,-4.7087,-4.6421,-4.6815,-4.7265,-4.7265,-4.6755,-4.6541,-4.7146,-4.7828,-4.8236,-4.8236,-4.9418,0.0,-5.0962,-5.1539,-5.2056,-5.2594,-5.3184,-5.329,-5.273,-5.3184,0.0,-5.192,-5.238,-5.2326,-5.1539,-5.1044,-5.0406,-4.9761,-4.9221,-4.8326,-4.7146,-4.7146,-4.7146,-4.7087,-4.6541,-4.6301,-4.6301,-4.6301,-4.6301,-4.6301,-4.6301,-4.6301,-4.6301,-4.6301,-4.6301,-4.6301,-4.6301,-4.6301,-4.6301,-4.6301,-4.6301,-4.6301,-4.6301,-4.6301,-4.6301,-4.6301,-4.6301,-4.6301,-4.6301,-4.6301,-4.6301,-4.6301,-4.6376,-4.6426,-4.6426,-4.6502,-4.6476,-4.6326,-4.6301,-4.6301,-4.6301,-4.6301,-4.6301,-4.6301,-4.6301,-4.6301,-4.6301,-4.6301,-4.6301,-4.6301,-4.6301,-4.6301,-4.6301,-4.6301,-4.6301,-4.6301,-4.6301,-4.6301,-4.6301,-4.6301,-4.6301,-4.6301,-4.6301,-4.6301,-4.6301,-4.6301,-4.6301,-4.6301,-4.6301,-4.6301,-4.6301,-4.6301,-4.6301,-4.6301,-4.6301,-4.6301,-4.6301,-4.6301,-4.6301,-4.6301,-4.6301,-4.6301,-4.6301,-4.6301,-4.6301,-4.6301,-4.6301,-4.6301,-4.6301,-4.6301,-4.6301,-4.6301,-4.6301,-4.6481,-4.6601,-4.6601,0.0,-4.7205,-4.8268,-4.9278,-5.0294,-5.1347,-5.238,-5.2541,-5.1539,-5.238,-5.2056,-5.0014,-5.0851,-5.192,-5.289,-5.1974,-5.1401,-5.1401,-5.0238,-4.9106,-4.8094,-4.8094,-4.7977,-4.7802,-4.6755,-4.6301,-4.6301,-4.6301,-4.6301,-4.6301,-4.6301,-4.6301,-4.6301,-4.6301,-4.6301,-4.6301,-4.6301,-4.6301,-4.6301,-4.6301,-4.6301,-4.6301,-4.6301,-4.6301,-4.6301,-4.6301,-4.6301,-4.6301,-4.6301,-4.6301,-4.6301,-4.6301,-4.6728,-4.7004,-4.7004,-4.7405,-4.728,-4.6376,-4.6301,-4.6301,-4.6301,-4.6301,-4.6301,-4.6301,-4.6301,-4.6301,-4.6301,-4.6301,-4.6301,-4.6301,-4.6301,-4.6301,-4.6301,-4.6301,-4.6301,-4.6301,-4.6301,-4.6301,-4.6301,-4.6301,-4.6301,-4.6301,-4.6301,-4.6301,-4.6301,-4.6301,-4.6301,-4.6301,-4.6301,-4.6301,-4.6301,-4.6301,-4.6301,-4.6301,-4.6301,-4.6301,-4.6301,-4.6301,-4.6301,-4.6301,-4.6301,-4.6301,-4.6301,-4.6301,-4.6301,-4.6301,-4.6301,-4.6301,-4.6301,-4.6301,-4.6301,-4.6301,-4.6301,-4.7146,-4.7802,-4.7802,0.0,-4.9392,-4.9562,-4.9816,-4.9958,-5.0126,-5.035,-5.035,-5.0182,-5.035,-5.0322,-4.9901,-5.007,-5.0238,-5.0462,-5.0294,-5.0182,-5.0182,-4.8992,-4.8326,-4.8094,-4.8094,-4.7593,-4.6601,-4.6361,-4.6301,-4.6301,-4.6301,-4.6301,-4.6301,-4.6301,-4.6301,-4.6301,-4.6301,-4.6301,-4.6301,-4.6301,-4.6301,-4.6301,-4.6301,-4.6301,-4.6301,-4.6301,-4.6301,-4.6301,-4.6301,-4.6301,-4.6426,-4.6702,-4.6753,-4.6853,-4.7129,-4.7405,-4.7556,-4.7556,-4.7782,-4.7707,-4.7205,-4.7179,-4.7179,-4.7179,-4.7179,-4.7179,-4.7179,-4.7179,-4.7179,-4.7179,-4.6903,-4.6753,-4.6753,-4.6451,-4.6301,-4.6301,-4.6301,-4.6301,-4.6301,-4.6301,-4.6301,-4.6301,-4.6301,-4.6301,-4.6301,-4.6301,-4.6301,-4.6301,-4.6301,-4.6301,-4.6301,-4.6301,-4.6301,-4.6301,-4.6301,-4.6301,-4.6301,-4.6301,-4.6301,-4.6301,-4.6301,-4.6301,-4.6301,-4.6301,-4.6301,-4.6301,-4.6301,-4.6301,-4.6301,-4.6301,-4.6301,-4.6301,-4.6301,-4.6301,-4.6301,-4.6301,-4.6755,0.0,0.0,-4.7593,-4.7945,-4.7945,-4.8558,-4.8935,-4.8935,-4.9505,-4.9619,-4.8992,-4.9505,-4.9362,-4.8003,-4.8558,-4.8616,-4.8003,-4.9247,-4.9901,-4.9901,-4.9335,-4.9049,-4.9049,-4.8442,-4.7802,-4.7265,-4.6576,-4.6301,-4.6301,-4.6301,-4.6301,-4.6301,-4.6301,-4.6301,-4.6301,-4.6301,-4.6301,-4.6301,-4.6301,-4.6301,-4.6301,-4.6301,-4.6301,-4.6301,-4.6301,-4.6301,-4.6351,-4.6476,-4.6502,-4.6702,-4.723,-4.7305,-4.7456,-4.7857,-4.8033,-4.8109,-4.8109,-4.8234,-4.8309,-4.8309,-4.8309,-4.8184,-4.7908,-4.7908,-4.7908,-4.7908,-4.7908,-4.7908,-4.7908,-4.7506,-4.7305,-4.7305,-4.6878,-4.6677,-4.6677,-4.6677,-4.6677,-4.6677,-4.6677,-4.6677,-4.6677,-4.6677,-4.6677,-4.6677,-4.6677,-4.6602,-4.6502,-4.6502,-4.6426,-4.6301,-4.6301,-4.6301,-4.6301,-4.6301,-4.6301,-4.6301,-4.6301,-4.6301,-4.6301,-4.6301,-4.6301,-4.6301,-4.6301,-4.6301,-4.6301,-4.6301,-4.6301,-4.6301,-4.6301,-4.6301,-4.6301,-4.6301,-4.6301,-4.6301,-4.6301,0.0,0.0,0.0,-4.6301,-4.6301,-4.6301,-4.7146,-4.771,-4.771,-4.85,-4.8673,-4.7769,-4.8558,-4.8236,-4.6421,-4.7416,-4.7802,-4.7172,-4.8384,-4.9362,-4.9901,-4.9619,-4.9448,-4.9448,-4.8532,-4.7919,-4.7652,-4.6695,-4.6301,-4.6301,-4.6301,-4.6376,-4.6502,-4.6502,-4.6577,-4.6677,-4.6677,-4.6677,-4.6677,-4.6677,-4.6677,-4.6677,-4.6301,-4.6301,-4.6301,-4.6301,-4.6301,-4.6476,-4.7004,-4.7018,-4.7255,-4.7782,-4.7857,-4.7857,-4.7908,-4.8385,-4.8711,-4.8711,-4.9163,-4.9464,-4.9464,-4.9464,-4.9012,-4.7958,-4.7908,-4.7908,-4.7908,-4.7908,-4.7908,-4.7908,-4.7883,-4.7857,-4.7857,-4.7807,-4.7782,-4.7782,-4.7782,-4.7782,-4.7782,-4.7782,-4.7782,-4.7782,-4.7782,-4.7782,-4.7782,-4.7782,-4.7481,-4.7018,-4.7018,-4.6753,-4.6301,-4.6301,-4.6301,-4.6301,-4.6301,-4.6301,-4.6301,-4.6301,-4.6301,-4.6301,-4.6301,-4.6301,-4.6301,-4.6301,-4.6301,-4.6301,-4.6301,-4.6301,-4.6301,-4.6301,-4.6301,-4.6301,-4.6301,-4.6301,-4.6301,-4.6301,0.0,0.0,-4.6301,-4.6301,-4.6301,-4.6301,-4.6361,-4.6421,-4.6421,-4.6541,-4.6541,-4.6421,-4.6541,-4.6481,-4.6301,-4.7416,-4.8558,-4.9562,-4.7677,-4.7677,-4.9845,-4.8762,-4.8268,-4.821,-4.8152,-4.7534,-4.6421,-4.6361,-4.6301,-4.6301,-4.6301,-4.6602,-4.7018,-4.7018,-4.7355,-4.7782,-4.7782,-4.7782,-4.7782,-4.7782,-4.7782,-4.7782,-4.6301,-4.6301,-4.6301,-4.6301,-4.6602,-4.6842,-4.7043,-4.7405,-4.7807,-4.836,-4.8435,-4.856,-4.8912,-4.9163,-4.9289,-4.9289,-4.9464,-4.959,-4.959,-4.959,-4.9414,-4.8962,-4.8962,-4.8962,-4.8962,-4.8962,-4.8962,-4.8962,-4.8611,-4.8435,-4.8435,-4.8083,-4.7908,-4.7908,-4.7908,-4.7908,-4.7908,-4.7908,-4.7908,-4.7908,-4.7908,-4.7908,-4.7908,-4.7908,-4.7782,-4.7606,-4.7606,-4.7481,-4.7305,-4.7305,-4.7079,-4.6828,-4.6828,-4.6577,-4.6301,-4.6301,-4.6301,-4.6301,-4.6301,-4.6301,-4.6301,-4.6301,-4.6301,-4.6301,-4.6301,-4.6301,-4.6301,-4.6301,-4.6301,-4.6301,-4.6301,-4.6301,-4.6301,-4.6301,0.0,-4.6301,-4.6301,-4.6301,-4.6301,-4.6301,-4.6301,-4.6301,-4.6301,-4.6301,-4.6301,-4.6301,-4.6301,-4.6301,-4.6301,-4.6755,-4.7534,-4.8789,-4.7479,-4.7802,-4.9872,-4.8705,-4.8094,-4.8094,-4.7658,-4.7202,-4.6828,-4.7154,-4.7305,-4.7305,-4.7305,-4.7431,-4.7606,-4.7606,-4.7732,-4.7908,-4.7908,-4.7908,-4.7908,-4.7908,-4.7908,-4.7908,-4.6301,-4.6301,-4.6376,-4.6552,-4.6878,-4.7255,-4.7606,-4.7958,-4.8385,-4.8962,-4.9038,-4.9163,-4.9565,-4.959,-4.959,-4.959,-4.959,-4.959,-4.959,-4.959,-4.959,-4.959,-4.959,-4.959,-4.959,-4.959,-4.959,-4.959,-4.9213,-4.9038,-4.9012,-4.8611,-4.8435,-4.8435,-4.8435,-4.8435,-4.8435,-4.8435,-4.8435,-4.8435,-4.8435,-4.8435,-4.8435,-4.8435,-4.8335,-4.8184,-4.8184,-4.8058,-4.7908,-4.7908,-4.7682,-4.738,-4.738,-4.7129,-4.6778,-4.6627,-4.6577,-4.6527,-4.6351,-4.6301,-4.6301,-4.6301,-4.6301,-4.6301,-4.6301,-4.6301,-4.6301,-4.6301,-4.6301,-4.6301,-4.6301,-4.6301,-4.6301,-4.6301,-4.6301,-4.6301,-4.6301,-4.6301,-4.6301,-4.6301,-4.6301,-4.6301,-4.6301,-4.6301,-4.6301,-4.6301,-4.6301,-4.6557,-4.7069,-4.6733,-4.7205,-4.8584,-4.78,-4.7947,-4.9261,-4.8465,-4.805,-4.805,-4.7582,-4.738,-4.738,-4.7732,-4.7908,-4.7908,-4.7908,-4.8008,-4.8184,-4.8184,-4.8284,-4.8435,-4.8435,-4.8435,-4.8435,-4.8435,-4.8435,-4.841,-4.6326,-4.6326,-4.6502,-4.6993,-4.7093,-4.7506,-4.8611,-4.8761,-4.8987,-4.9515,-4.959,-4.959,-4.959,-4.959,-4.959,-4.959,-4.959,-4.959,-4.959,-4.959,-4.959,-4.959,-4.959,-4.959,-4.959,-4.959,-4.959,-4.959,-4.959,-4.959,-4.959,-4.959,-4.959,-4.959,-4.959,-4.959,-4.959,-4.959,-4.959,-4.959,-4.959,-4.959,-4.959,-4.959,-4.9264,-4.8786,-4.8786,-4.841,-4.7933,-4.7933,-4.7908,-4.7908,-4.7908,-4.7908,-4.7807,-4.728,-4.7093,-4.7029,-4.6476,-4.6326,-4.6326,-4.6301,-4.6301,-4.6301,-4.6301,-4.6301,-4.6301,-4.6301,-4.6301,-4.6301,-4.6301,-4.6301,-4.6301,-4.6301,-4.6301,-4.6301,-4.6301,-4.6301,-4.6301,-4.6301,-4.6301,-4.6301,-4.6326,-4.6326,-4.6326,-4.6326,-4.6326,-4.7069,-4.8785,-4.7749,-4.7907,-4.9698,-4.8589,-4.7908,-4.7908,-4.7908,-4.7908,-4.7908,-4.7908,-4.7908,-4.7908,-4.7908,-4.7933,-4.7933,-4.7933,-4.8234,-4.8786,-4.8786,-4.9113,-4.959,-4.959,-4.959,-4.959,-4.959,-4.959,-4.9515,-4.6803,-4.6878,-4.7054,-4.7581,-4.8008,-4.8385,-4.8711,-4.9113,-4.9414,-4.9565,-4.959,-4.959,-4.959,-4.959,-4.959,-4.959,-4.959,-4.959,-4.959,-4.959,-4.959,-4.959,-4.959,-4.959,-4.959,-4.959,-4.959,-4.959,-4.959,-4.959,-4.959,-4.959,-4.959,-4.959,-4.959,-4.959,-4.959,-4.959,-4.959,-4.959,-4.959,-4.959,-4.959,-4.959,-4.949,-4.9339,-4.9339,-4.9238,-4.9088,-4.9088,-4.8837,-4.8435,-4.8033,-4.7908,-4.7883,-4.7732,-4.7682,-4.7631,-4.7481,-4.7431,-4.7255,-4.6502,-4.6301,-4.6301,-4.6301,-4.6301,-4.6301,-4.6301,-4.6301,-4.6301,-4.6301,-4.6301,-4.6301,-4.6301,-4.6301,-4.6301,-4.6301,-4.6301,-4.6301,-4.6301,-4.6301,-4.6451,-4.6792,-4.6878,-4.7054,-4.7405,-4.7104,-4.7075,-4.7628,-4.7313,-4.7478,-4.844,-4.8498,-4.851,-4.851,-4.8109,-4.7908,-4.7908,-4.8309,-4.851,-4.8535,-4.8912,-4.9088,-4.9088,-4.9088,-4.9188,-4.9339,-4.9339,-4.9439,-4.959,-4.959,-4.9364,-4.9012,-4.9012,-4.8761,-4.8385,-4.7079,-4.7305,-4.7606,-4.8159,-4.8535,-4.8837,-4.9063,-4.9389,-4.959,-4.959,-4.959,-4.959,-4.959,-4.959,-4.959,-4.959,-4.959,-4.959,-4.959,-4.959,-4.959,-4.959,-4.959,-4.959,-4.959,-4.959,-4.959,-4.959,-4.959,-4.959,-4.959,-4.959,-4.959,-4.959,-4.959,-4.959,-4.959,-4.959,-4.959,-4.959,-4.959,-4.959,-4.959,-4.959,-4.959,-4.959,-4.959,-4.959,-4.959,-4.959,-4.9364,-4.9038,-4.8686,-4.8586,-4.8535,-4.8309,-4.8259,-4.8209,-4.7958,-4.7908,-4.7757,-4.7104,-4.6928,-4.6928,-4.6928,-4.6928,-4.6928,-4.6928,-4.6928,-4.6928,-4.6928,-4.6928,-4.6928,-4.6928,-4.6928,-4.6928,-4.6928,-4.6928,-4.6928,-4.6928,-4.6928,-4.7079,-4.7405,-4.7431,-4.7581,-4.7883,-4.7606,-4.7531,-4.7782,-4.7556,-4.7682,-4.8234,-4.836,-4.8435,-4.8435,-4.8083,-4.8134,-4.8586,-4.8937,-4.9113,-4.9113,-4.9439,-4.959,-4.959,-4.959,-4.9464,-4.9264,-4.9264,-4.9138,-4.8937,-4.8937,-4.8711,-4.8435,-4.8435,-4.8209,-4.7883,-4.7193,-4.7657,-4.8159,-4.8736,-4.8837,-4.9012,-4.9515,-4.959,-4.959,-4.959,-4.959,-4.959,-4.959,-4.959,-4.959,-4.959,-4.959,-4.959,-4.959,-4.959,-4.959,-4.959,-4.959,-4.959,-4.959,-4.959,-4.959,-4.959,-4.959,-4.959,-4.959,-4.959,-4.959,-4.959,-4.959,-4.959,-4.959,-4.959,-4.959,-4.959,-4.959,-4.959,-4.959,-4.959,-4.959,-4.959,-4.959,-4.959,-4.959,-4.959,-4.959,-4.959,-4.959,-4.959,-4.949,-4.8987,-4.8837,-4.8736,-4.8209,-4.8058,-4.8058,-4.8058,-4.8058,-4.8033,-4.7933,-4.7908,-4.7908,-4.7908,-4.7908,-4.7908,-4.7908,-4.7908,-4.7908,-4.7908,-4.7908,-4.7908,-4.7908,-4.7908,-4.7908,-4.7908,-4.7908,-4.7933,-4.7983,-4.8033,-4.8033,-4.7983,-4.7983,-4.8209,-4.8736,-4.8259,-4.8259,-4.8837,-4.8284,-4.7983,-4.7983,-4.7933,-4.8435,-4.9439,-4.9439,-4.9439,-4.9439,-4.9439,-4.9439,-4.9439,-4.9439,-4.9163,-4.8686,-4.8686,-4.8385,-4.7908,-4.7908,-4.7883,-4.7832,-4.7832,-4.7807,-4.7707,-4.8259,-4.851,-4.8761,-4.9314,-4.9414,-4.9464,-4.9565,-4.959,-4.959,-4.959,-4.959,-4.959,-4.959,-4.959,-4.959,-4.959,-4.959,-4.959,-4.959,-4.959,-4.959,-4.959,-4.959,-4.959,-4.959,-4.959,-4.959,-4.959,-4.959,-4.959,-4.959,-4.959,-4.959,-4.959,-4.959,-4.959,-4.959,-4.959,-4.959,-4.959,-4.959,-4.959,-4.959,-4.959,-4.959,-4.959,-4.959,-4.959,-4.959,-4.959,-4.959,-4.959,-4.959,-4.959,-4.9565,-4.9464,-4.9414,-4.9389,-4.9264,-4.9238,-4.9238,-4.9238,-4.9238,-4.8987,-4.8109,-4.7908,-4.7908,-4.7908,-4.7908,-4.7908,-4.7908,-4.7908,-4.7908,-4.7908,-4.7908,-4.7908,-4.7908,-4.7908,-4.7908,-4.7908,-4.7908,-4.8083,-4.8535,-4.8962,-4.9063,-4.8611,-4.8586,-4.8636,-4.8761,-4.8661,-4.8837,-4.9389,-4.8862,-4.8586,-4.8586,-4.8134,-4.8033,-4.8284,-4.8284,-4.8284,-4.8284,-4.8284,-4.8284,-4.8284,-4.8284,-4.8209,-4.8109,-4.8109,-4.8033,-4.7908,-4.7908,-4.7657,-4.7244,-4.7244,-4.7029,-4.6627,-4.8611,-4.8987,-4.9264,-4.954,-4.959,-4.959,-4.959,-4.959,-4.959,-4.959,-4.959,-4.959,-4.959,-4.959,-4.959,-4.959,-4.959,-4.959,-4.959,-4.959,-4.959,-4.959,-4.959,-4.959,-4.959,-4.959,-4.959,-4.959,-4.959,-4.959,-4.959,-4.959,-4.959,-4.959,-4.959,-4.959,-4.959,-4.959,-4.959,-4.959,-4.959,-4.959,-4.959,-4.959,-4.959,-4.959,-4.959,-4.959,-4.959,-4.959,-4.959,-4.959,-4.959,-4.959,-4.959,-4.959,-4.959,-4.959,-4.959,-4.959,-4.959,-4.959,-4.959,-4.9439,-4.8837,-4.8711,-4.8711,-4.8711,-4.8711,-4.8711,-4.8711,-4.8711,-4.8711,-4.8711,-4.8711,-4.8711,-4.8711,-4.8711,-4.8711,-4.8711,-4.8711,-4.8837,-4.9138,-4.9414,-4.9464,-4.9188,-4.9163,-4.9163,-4.9163,-4.8912,-4.8912,-4.9188,-4.8661,-4.836,-4.836,-4.7807,-4.7531,-4.7531,-4.7782,-4.7908,-4.7908,-4.7908,-4.7908,-4.7908,-4.7908,-4.7757,-4.7531,-4.7531,-4.738,-4.7154,-4.7154,-4.6979,-4.6753,-4.6753,-4.6552,-4.6301,-4.8812,-4.9289,-4.959,-4.959,-4.959,-4.959,-4.959,-4.959,-4.959,-4.959,-4.959,-4.959,-4.959,-4.959,-4.959,-4.959,-4.959,-4.959,-4.959,-4.959,-4.959,-4.959,-4.959,-4.959,-4.959,-4.959,-4.959,-4.959,-4.959,-4.959,-4.959,-4.959,-4.959,-4.959,-4.959,-4.959,-4.959,-4.959,-4.959,-4.959,-4.959,-4.959,-4.959,-4.959,-4.959,-4.959,-4.959,-4.959,-4.959,-4.959,-4.959,-4.959,-4.959,-4.959,-4.959,-4.959,-4.959,-4.959,-4.959,-4.959,-4.959,-4.959,-4.959,-4.959,-4.959,-4.959,-4.959,-4.959,-4.959,-4.959,-4.959,-4.959,-4.959,-4.959,-4.959,-4.959,-4.959,-4.959,-4.959,-4.959,-4.959,-4.959,-4.959,-4.959,-4.959,-4.959,-4.959,-4.959,-4.959,-4.9163,-4.8912,-4.8912,-4.836,-4.8058,-4.8058,-4.7531,-4.7255,-4.728,-4.7707,-4.7807,-4.7631,-4.7631,-4.7631,-4.7631,-4.7631,-4.738,-4.6943,-4.6943,-4.6728,-4.6301,-4.6301,-4.6301,-4.6301,-4.6301,-4.6301,-4.6301,-4.9364,-4.954,-4.959,-4.959,-4.959,-4.959,-4.959,-4.959,-4.959,-4.959,-4.959,-4.959,-4.959,-4.959,-4.959,-4.959,-4.959,-4.959,-4.959,-4.959,-4.959,-4.959,-4.959,-4.959,-4.959,-4.959,-4.959,-4.959,-4.959,-4.959,-4.959,-4.959,-4.959,-4.959,-4.959,-4.959,-4.959,-4.959,-4.959,-4.959,-4.959,-4.959,-4.959,-4.959,-4.959,-4.959,-4.959,-4.959,-4.959,-4.959,-4.959,-4.959,-4.959,-4.959,-4.959,-4.959,-4.959,-4.959,-4.959,-4.959,-4.959,-4.959,-4.959,-4.959,-4.959,-4.959,-4.959,-4.959,-4.959,-4.959,-4.959,-4.959,-4.959,-4.959,-4.959,-4.959,-4.959,-4.959,-4.959,-4.959,-4.959,-4.959,-4.959,-4.959,-4.959,-4.959,-4.959,-4.959,-4.959,-4.9515,-4.949,-4.949,-4.8937,-4.8661,-4.8661,-4.8083,-4.7807,-4.7807,-4.7883,-4.7431,-4.6527,-4.6527,-4.6527,-4.6527,-4.6527,-4.6476,-4.6426,-4.6426,-4.6376,-4.6301,-4.6301,-4.6301,-4.6301,-4.6301,-4.6301,-4.6301,-4.949,-4.959,-4.959,-4.959,-4.959,-4.959,-4.959,-4.959,-4.959,-4.959,-4.959,-4.959,-4.959,-4.959,-4.959,-4.959,-4.959,-4.959,-4.959,-4.959,-4.959,-4.959,-4.959,-4.959,-4.959,-4.959,-4.959,-4.959,-4.959,-4.959,-4.959,-4.959,-4.959,-4.959,-4.959,-4.959,-4.959,-4.959,-4.959,-4.959,-4.959,-4.959,-4.959,-4.959,-4.959,-4.959,-4.959,-4.959,-4.959,-4.959,-4.959,-4.959,-4.959,-4.959,-4.959,-4.959,-4.959,-4.959,-4.959,-4.959,-4.959,-4.959,-4.959,-4.959,-4.959,-4.959,-4.959,-4.959,-4.959,-4.959,-4.959,-4.959,-4.959,-4.959,-4.959,-4.959,-4.959,-4.959,-4.959,-4.959,-4.959,-4.959,-4.959,-4.959,-4.959,-4.959,-4.959,-4.959,-4.959,-4.959,-4.959,-4.959,-4.9364,-4.9238,-4.9238,-4.8661,-4.8385,-4.8385,-4.8058,-4.7506,-4.6778,-4.6778,-4.6602,-4.6301,-4.6301,-4.6301,-4.6301,-4.6301,-4.6301,-4.6301,-4.6301,-4.6301,-4.6301,-4.6301,-4.6301,-4.6301]},{"header":{"parameterUnit":"m.s-1","parameterCategory":1,"la1":30.6,"la2":28.766,"lo1":-90.7593,"lo2":-88.6598,"dy":0.0162,"dx":0.0183,"nx":116,"ny":114,"refTime":"2024-04-02T18:00:00:Z","depth":0,"parameterNumber":3,"parameterNumberName":"V-component_of_WINDS"},"data":[0.0,0.0,0.0,0.0,0.0,0.0,0.0,0.0,0.0,0.0,0.0,0.0,0.0,0.0,0.0,0.0,0.0,0.0,0.0,0.0,0.0,0.0,0.0,0.0,0.0,0.0,0.0,0.0,0.0,0.0,0.0,0.0,0.0,0.0,0.0,0.0,0.0,0.0,0.0,0.0,0.0,0.0,0.0,0.0,0.0,0.0,0.0,0.0,0.0,0.0,0.0,0.0,0.0,0.0,0.0,0.0,0.0,0.0,0.0,0.0,0.0,0.0,0.0,0.0,0.0,0.0,0.0,0.0,0.0,0.0,0.0,0.0,0.0,0.0,0.0,0.0,0.0,0.0,0.0,0.0,0.0,0.0,0.0,0.0,0.0,0.0,0.0,0.0,0.0,0.0,0.0,0.0,0.0,0.0,0.0,0.0,0.0,0.0,0.0,0.0,0.0,0.0,0.0,0.0,0.0,0.0,0.0,0.0,0.0,0.0,0.0,0.0,0.0,0.0,0.0,0.0,0.0,0.0,0.0,0.0,0.0,0.0,0.0,0.0,0.0,0.0,0.0,0.0,0.0,0.0,0.0,0.0,0.0,0.0,0.0,0.0,0.0,0.0,0.0,0.0,0.0,0.0,0.0,0.0,0.0,0.0,0.0,0.0,0.0,0.0,0.0,0.0,0.0,0.0,0.0,0.0,0.0,0.0,0.0,0.0,0.0,0.0,0.0,0.0,0.0,0.0,0.0,0.0,0.0,0.0,0.0,0.0,0.0,0.0,0.0,0.0,0.0,0.0,0.0,0.0,0.0,0.0,0.0,0.0,0.0,0.0,0.0,0.0,0.0,0.0,0.0,0.0,0.0,0.0,0.0,0.0,0.0,0.0,0.0,0.0,0.0,0.0,0.0,0.0,0.0,0.0,0.0,0.0,0.0,0.0,0.0,0.0,0.0,0.0,0.0,0.0,0.0,0.0,0.0,0.0,0.0,0.0,0.0,0.0,0.0,0.0,0.0,0.0,0.0,0.0,0.0,0.0,0.0,0.0,0.0,0.0,0.0,0.0,0.0,0.0,0.0,0.0,0.0,0.0,0.0,0.0,0.0,0.0,0.0,0.0,0.0,0.0,0.0,0.0,0.0,0.0,0.0,0.0,0.0,0.0,0.0,0.0,0.0,0.0,0.0,0.0,0.0,0.0,0.0,0.0,0.0,0.0,0.0,0.0,0.0,0.0,0.0,0.0,0.0,0.0,0.0,0.0,0.0,0.0,0.0,0.0,0.0,0.0,0.0,0.0,0.0,0.0,0.0,0.0,0.0,0.0,0.0,0.0,0.0,0.0,0.0,0.0,0.0,0.0,0.0,0.0,0.0,0.0,0.0,0.0,0.0,0.0,0.0,0.0,0.0,0.0,0.0,0.0,0.0,0.0,0.0,0.0,0.0,0.0,0.0,0.0,0.0,0.0,0.0,0.0,0.0,0.0,0.0,0.0,0.0,0.0,0.0,0.0,0.0,0.0,0.0,0.0,0.0,0.0,0.0,0.0,0.0,0.0,0.0,0.0,0.0,0.0,0.0,0.0,0.0,0.0,0.0,0.0,0.0,0.0,0.0,0.0,0.0,0.0,0.0,0.0,0.0,0.0,0.0,0.0,0.0,0.0,0.0,0.0,0.0,0.0,0.0,0.0,0.0,0.0,0.0,0.0,0.0,0.0,0.0,0.0,0.0,0.0,0.0,0.0,0.0,0.0,0.0,0.0,0.0,0.0,0.0,0.0,0.0,0.0,0.0,0.0,0.0,0.0,0.0,0.0,0.0,0.0,0.0,0.0,0.0,0.0,0.0,0.0,0.0,0.0,0.0,0.0,0.0,0.0,0.0,0.0,0.0,0.0,0.0,0.0,0.0,0.0,0.0,0.0,0.0,0.0,0.0,0.0,0.0,0.0,0.0,0.0,0.0,0.0,0.0,0.0,0.0,0.0,0.0,0.0,0.0,0.0,0.0,0.0,0.0,0.0,0.0,0.0,0.0,0.0,0.0,0.0,0.0,0.0,0.0,0.0,0.0,0.0,0.0,0.0,0.0,0.0,0.0,0.0,0.0,0.0,0.0,0.0,0.0,0.0,0.0,0.0,0.0,0.0,0.0,0.0,0.0,0.0,0.0,0.0,0.0,0.0,0.0,0.0,0.0,0.0,0.0,0.0,0.0,0.0,0.0,0.0,0.0,0.0,0.0,0.0,0.0,0.0,0.0,0.0,0.0,0.0,0.0,0.0,0.0,0.0,0.0,0.0,0.0,0.0,0.0,0.0,0.0,0.0,0.0,0.0,0.0,0.0,0.0,0.0,0.0,0.0,0.0,0.0,0.0,0.0,0.0,0.0,0.0,0.0,0.0,0.0,0.0,0.0,0.0,0.0,0.0,0.0,0.0,0.0,0.0,0.0,0.0,0.0,0.0,0.0,0.0,0.0,0.0,0.0,0.0,0.0,0.0,0.0,0.0,0.0,0.0,0.0,0.0,0.0,0.0,0.0,0.0,0.0,0.0,0.0,0.0,0.0,0.0,0.0,0.0,0.0,0.0,0.0,0.0,0.0,0.0,0.0,0.0,0.0,0.0,0.0,0.0,0.0,0.0,0.0,0.0,0.0,0.0,0.0,0.0,0.0,0.0,0.0,0.0,0.0,0.0,0.0,0.0,0.0,0.0,0.0,0.0,0.0,0.0,0.0,0.0,0.0,0.0,0.0,0.0,0.0,0.0,0.0,0.0,0.0,0.0,0.0,0.0,0.0,0.0,0.0,0.0,0.0,0.0,0.0,0.0,0.0,0.0,0.0,0.0,0.0,0.0,0.0,0.0,0.0,0.0,0.0,0.0,0.0,0.0,0.0,0.0,0.0,0.0,0.0,0.0,0.0,0.0,0.0,0.0,0.0,0.0,0.0,0.0,0.0,0.0,0.0,0.0,0.0,0.0,0.0,0.0,0.0,0.0,0.0,0.0,0.0,0.0,0.0,0.0,0.0,0.0,0.0,0.0,0.0,0.0,0.0,0.0,0.0,0.0,0.0,0.0,0.0,0.0,0.0,0.0,0.0,0.0,0.0,0.0,0.0,0.0,0.0,0.0,0.0,0.0,0.0,0.0,0.0,0.0,0.0,0.0,0.0,0.0,0.0,0.0,0.0,0.0,0.0,0.0,0.0,0.0,0.0,0.0,0.0,0.0,0.0,0.0,0.0,0.0,0.0,0.0,0.0,0.0,0.0,0.0,0.0,0.0,0.0,0.0,0.0,0.0,0.0,0.0,0.0,0.0,0.0,0.0,0.0,0.0,0.0,0.0,0.0,0.0,0.0,0.0,0.0,0.0,0.0,0.0,0.0,0.0,0.0,0.0,0.0,0.0,0.0,0.0,0.0,0.0,0.0,0.0,0.0,0.0,0.0,0.0,0.0,0.0,0.0,0.0,0.0,0.0,0.0,0.0,0.0,0.0,0.0,0.0,0.0,0.0,0.0,0.0,0.0,0.0,0.0,0.0,0.0,0.0,0.0,0.0,0.0,0.0,0.0,0.0,0.0,0.0,0.0,0.0,0.0,0.0,0.0,0.0,0.0,0.0,0.0,0.0,0.0,0.0,0.0,0.0,0.0,0.0,0.0,0.0,0.0,0.0,0.0,0.0,0.0,0.0,0.0,0.0,0.0,0.0,0.0,0.0,0.0,0.0,0.0,0.0,0.0,0.0,0.0,0.0,0.0,0.0,0.0,0.0,0.0,0.0,0.0,0.0,0.0,0.0,0.0,0.0,0.0,0.0,0.0,0.0,0.0,0.0,0.0,0.0,0.0,0.0,0.0,0.0,0.0,0.0,0.0,0.0,0.0,0.0,0.0,0.0,0.0,0.0,0.0,0.0,0.0,0.0,0.0,0.0,0.0,0.0,0.0,0.0,0.0,0.0,0.0,0.0,0.0,0.0,0.0,0.0,0.0,0.0,0.0,0.0,0.0,0.0,0.0,0.0,0.0,0.0,0.0,0.0,0.0,0.0,0.0,0.0,0.0,0.0,0.0,0.0,0.0,0.0,0.0,0.0,0.0,0.0,0.0,0.0,0.0,0.0,0.0,0.0,0.0,0.0,0.0,0.0,0.0,0.0,0.0,0.0,0.0,0.0,0.0,0.0,0.0,0.0,0.0,0.0,0.0,0.0,0.0,0.0,0.0,0.0,0.0,0.0,0.0,0.0,0.0,0.0,0.0,0.0,0.0,0.0,0.0,0.0,0.0,0.0,0.0,0.0,0.0,0.0,0.0,0.0,0.0,0.0,0.0,0.0,0.0,0.0,0.0,0.0,0.0,0.0,0.0,0.0,0.0,0.0,0.0,0.0,0.0,0.0,0.0,0.0,0.0,0.0,0.0,0.0,0.0,0.0,0.0,0.0,0.0,0.0,0.0,0.0,0.0,0.0,0.0,0.0,0.0,0.0,0.0,0.0,0.0,0.0,0.0,0.0,0.0,0.0,0.0,0.0,0.0,0.0,0.0,0.0,0.0,0.0,0.0,0.0,0.0,0.0,0.0,0.0,0.0,0.0,0.0,0.0,0.0,0.0,0.0,0.0,0.0,0.0,0.0,0.0,0.0,0.0,0.0,0.0,0.0,0.0,0.0,0.0,0.0,0.0,0.0,0.0,0.0,0.0,0.0,0.0,0.0,0.0,0.0,0.0,0.0,0.0,0.0,0.0,0.0,0.0,0.0,0.0,0.0,0.0,0.0,0.0,0.0,0.0,0.0,0.0,0.0,0.0,0.0,0.0,0.0,0.0,0.0,0.0,0.0,0.0,0.0,0.0,0.0,0.0,0.0,0.0,0.0,0.0,0.0,0.0,0.0,0.0,0.0,0.0,0.0,0.0,0.0,0.0,0.0,0.0,0.0,0.0,0.0,0.0,0.0,0.0,0.0,0.0,0.0,0.0,0.0,0.0,0.0,0.0,0.0,0.0,0.0,0.0,0.0,0.0,0.0,0.0,0.0,0.0,0.0,0.0,0.0,0.0,0.0,0.0,0.0,0.0,0.0,0.0,0.0,0.0,0.0,0.0,0.0,0.0,0.0,0.0,0.0,0.0,0.0,0.0,0.0,0.0,0.0,0.0,0.0,0.0,0.0,0.0,0.0,0.0,0.0,0.0,0.0,0.0,0.0,0.0,0.0,0.0,0.0,0.0,0.0,0.0,0.0,0.0,0.0,0.0,0.0,0.0,0.0,0.0,0.0,0.0,0.0,0.0,0.0,0.0,0.0,0.0,0.0,0.0,0.0,0.0,0.0,0.0,0.0,0.0,0.0,0.0,0.0,0.0,0.0,0.0,0.0,0.0,0.0,0.0,0.0,0.0,0.0,0.0,0.0,0.0,0.0,0.0,0.0,0.0,0.0,0.0,0.0,0.0,0.0,0.0,0.0,0.0,0.0,0.0,0.0,0.0,0.0,0.0,0.0,0.0,0.0,0.0,0.0,0.0,0.0,0.0,0.0,0.0,0.0,0.0,0.0,0.0,0.0,0.0,0.0,0.0,0.0,0.0,0.0,0.0,0.0,0.0,0.0,0.0,0.0,0.0,0.0,0.0,0.0,0.0,0.0,0.0,0.0,0.0,0.0,0.0,0.0,0.0,0.0,0.0,0.0,0.0,0.0,0.0,0.0,0.0,0.0,0.0,0.0,0.0,0.0,0.0,0.0,0.0,0.0,0.0,0.0,0.0,0.0,0.0,0.0,0.0,0.0,0.0,0.0,0.0,0.0,0.0,0.0,0.0,0.0,0.0,0.0,0.0,0.0,0.0,0.0,0.0,0.0,0.0,0.0,0.0,0.0,0.0,0.0,0.0,0.0,0.0,0.0,0.0,0.0,0.0,0.0,0.0,0.0,0.0,0.0,0.0,0.0,0.0,0.0,0.0,0.0,0.0,0.0,0.0,0.0,0.0,0.0,0.0,0.0,0.0,0.0,0.0,0.0,0.0,0.0,0.0,0.0,0.0,0.0,0.0,0.0,0.0,0.0,0.0,0.0,0.0,0.0,0.0,0.0,0.0,0.0,0.0,0.0,0.0,0.0,0.0,0.0,0.0,0.0,0.0,0.0,0.0,0.0,0.0,0.0,3.7407,3.7227,0.0,0.0,0.0,0.0,0.0,0.0,0.0,0.0,0.0,0.0,0.0,0.0,0.0,0.0,0.0,0.0,0.0,0.0,0.0,0.0,0.0,0.0,0.0,3.4776,3.4672,3.4505,3.4484,3.4484,3.4463,3.4583,0.0,0.0,0.0,0.0,3.6356,3.6809,3.73,3.7839,3.7725,3.7617,3.7472,3.6106,3.5637,3.5983,0.0,0.0,0.0,0.0,0.0,0.0,0.0,0.0,0.0,0.0,0.0,0.0,0.0,0.0,0.0,0.0,0.0,0.0,0.0,0.0,0.0,0.0,0.0,0.0,0.0,0.0,0.0,0.0,0.0,0.0,0.0,0.0,0.0,0.0,0.0,0.0,0.0,0.0,0.0,0.0,0.0,0.0,0.0,0.0,0.0,0.0,0.0,0.0,0.0,0.0,0.0,0.0,0.0,0.0,0.0,0.0,0.0,0.0,0.0,0.0,0.0,0.0,0.0,0.0,0.0,0.0,0.0,0.0,0.0,0.0,3.8266,3.79,0.0,0.0,0.0,0.0,0.0,0.0,0.0,0.0,0.0,0.0,0.0,0.0,0.0,0.0,0.0,0.0,0.0,0.0,0.0,0.0,0.0,3.4132,3.4132,3.4132,3.409,3.4087,3.409,3.4256,3.4627,3.4951,3.5134,3.5218,3.6254,3.6986,3.7231,3.7953,3.862,3.9229,3.8892,3.8419,3.7892,3.7838,3.8108,3.8461,3.7985,0.0,0.0,0.0,0.0,0.0,0.0,0.0,0.0,0.0,0.0,0.0,0.0,0.0,0.0,0.0,0.0,0.0,0.0,0.0,0.0,0.0,0.0,0.0,0.0,0.0,0.0,0.0,0.0,0.0,0.0,0.0,0.0,0.0,0.0,0.0,0.0,0.0,0.0,0.0,0.0,0.0,0.0,0.0,0.0,0.0,0.0,0.0,0.0,0.0,0.0,0.0,0.0,0.0,0.0,0.0,0.0,0.0,0.0,0.0,0.0,0.0,0.0,0.0,3.9913,3.9913,3.9913,3.9808,3.9756,3.9677,3.8658,3.8214,3.8214,3.8214,0.0,0.0,0.0,0.0,0.0,0.0,0.0,0.0,0.0,0.0,0.0,0.0,0.0,0.0,0.0,0.0,0.0,0.0,0.0,3.4132,3.4132,3.4132,3.4025,3.3863,3.4021,3.4046,3.3947,3.4421,3.4819,3.5197,3.5639,3.6665,3.8399,3.8576,3.951,4.1219,4.1727,4.1826,4.1492,4.126,4.0926,4.0466,3.9226,3.8892,3.9438,0.0,0.0,0.0,0.0,0.0,0.0,0.0,0.0,0.0,0.0,0.0,0.0,0.0,0.0,0.0,0.0,0.0,0.0,0.0,0.0,0.0,0.0,0.0,0.0,0.0,0.0,0.0,0.0,0.0,0.0,0.0,0.0,0.0,0.0,0.0,0.0,0.0,0.0,0.0,0.0,0.0,4.1324,4.1324,0.0,0.0,0.0,0.0,0.0,0.0,0.0,0.0,0.0,0.0,0.0,0.0,0.0,4.1193,4.1193,4.1115,4.1089,4.1089,4.1089,4.1089,4.1063,4.054,4.0305,4.0278,3.9651,0.0,3.939,3.939,0.0,0.0,0.0,0.0,0.0,0.0,0.0,0.0,0.0,0.0,0.0,0.0,0.0,0.0,0.0,0.0,0.0,0.0,0.0,0.0,0.0,3.3501,3.3696,3.3854,3.408,3.4391,3.4846,3.5236,3.601,3.71,3.8014,3.9279,4.1028,4.1566,4.2165,4.2923,4.3174,4.3101,4.2657,4.2554,4.2294,4.206,4.144,4.0847,4.0336,4.0696,0.0,0.0,0.0,0.0,0.0,0.0,0.0,0.0,0.0,0.0,0.0,0.0,0.0,0.0,0.0,0.0,0.0,0.0,0.0,0.0,0.0,0.0,0.0,0.0,0.0,0.0,0.0,0.0,0.0,0.0,0.0,0.0,0.0,0.0,0.0,0.0,0.0,0.0,0.0,4.1324,4.1324,4.1324,4.1324,4.1324,0.0,0.0,0.0,0.0,0.0,0.0,0.0,0.0,0.0,4.1324,4.1324,4.1324,4.1324,4.1324,4.1324,4.1324,4.1324,4.1324,4.1298,4.1036,4.0932,4.0906,4.0671,4.0566,4.0514,3.9886,3.9599,3.9599,0.0,0.0,0.0,0.0,3.9442,3.9207,0.0,0.0,0.0,0.0,0.0,0.0,0.0,0.0,0.0,0.0,0.0,0.0,3.3101,3.335,3.3711,3.427,3.4535,3.5131,3.6232,3.6643,3.7555,3.9111,4.0152,4.1419,4.2886,4.3903,4.4245,4.3912,4.3912,4.3493,4.2814,4.2814,4.2735,4.2579,4.2579,4.2084,4.1204,4.1027,4.0924,4.0948,0.0,0.0,0.0,0.0,0.0,0.0,0.0,0.0,0.0,0.0,0.0,0.0,0.0,0.0,0.0,0.0,0.0,0.0,0.0,0.0,0.0,0.0,0.0,0.0,0.0,0.0,0.0,0.0,0.0,0.0,0.0,0.0,0.0,0.0,0.0,0.0,0.0,4.1324,4.1324,4.1324,4.1324,4.1324,0.0,0.0,0.0,0.0,0.0,0.0,4.1324,4.1324,4.1324,4.1324,4.1324,4.1324,4.1324,4.1324,4.1324,4.1324,4.1324,4.1324,4.1324,4.1324,4.1324,4.1324,4.1324,4.1448,4.1617,4.0481,4.0043,4.0043,4.0043,4.0043,4.0043,4.0043,3.9939,3.9808,0.0,0.0,0.0,0.0,0.0,0.0,0.0,0.0,0.0,0.0,0.0,3.3464,3.4153,3.4253,3.456,3.5343,3.5558,3.6291,3.7785,3.8308,3.917,4.0476,4.0846,4.1647,4.2886,4.4097,4.4407,4.3912,4.3912,4.3363,4.2264,4.2264,4.1925,4.1402,4.1402,4.1664,4.2108,4.2108,4.1642,4.0998,4.1823,0.0,0.0,0.0,0.0,0.0,0.0,0.0,0.0,0.0,0.0,0.0,0.0,0.0,0.0,0.0,0.0,0.0,0.0,0.0,0.0,0.0,0.0,0.0,0.0,0.0,0.0,0.0,0.0,0.0,0.0,0.0,0.0,0.0,0.0,0.0,0.0,0.0,0.0,4.1324,4.1324,0.0,0.0,0.0,0.0,4.1324,4.1324,4.1324,4.1324,4.1324,4.1324,4.1324,4.1324,4.1324,4.1324,4.1324,4.1324,4.1324,4.1324,4.1324,4.1324,4.1324,4.1324,4.1324,4.1324,4.1819,4.2647,4.1617,4.1219,4.1219,4.1219,4.1219,4.1219,4.1219,4.0853,4.0383,0.0,0.0,0.0,0.0,0.0,3.2669,3.2669,3.2898,3.3069,3.3182,3.3606,3.401,3.4274,3.4746,3.5306,3.5897,3.6172,3.7022,3.8648,3.8592,3.9429,4.1471,4.1318,4.1722,4.296,4.3412,4.352,4.3337,4.3337,4.3127,4.2709,4.2709,4.2605,4.2422,4.2422,4.2317,4.2185,4.1768,4.1665,4.1771,4.2082,4.2214,0.0,0.0,0.0,0.0,0.0,0.0,0.0,0.0,0.0,0.0,0.0,0.0,0.0,0.0,0.0,0.0,0.0,0.0,0.0,0.0,0.0,0.0,0.0,0.0,0.0,0.0,0.0,0.0,0.0,0.0,0.0,0.0,0.0,0.0,0.0,0.0,0.0,4.1324,4.1324,0.0,4.1324,4.1324,4.1324,4.1324,4.1918,4.1967,4.1298,4.1918,4.1967,4.1324,4.1918,4.2284,4.2284,4.2916,4.3225,4.3225,4.3225,4.3225,4.3225,4.3225,4.3225,4.3225,4.3225,4.3416,4.3748,4.3368,4.3225,4.3177,4.2528,4.2674,4.3225,4.3225,4.3088,4.2841,0.0,0.0,0.0,0.0,3.3182,3.3182,3.3298,3.3529,3.3759,3.3932,3.4417,3.4825,3.5055,3.5589,3.6096,3.6573,3.7191,3.8123,3.9465,3.9588,4.0459,4.2344,4.2017,4.2184,4.2971,4.3023,4.2918,4.2735,4.2735,4.2631,4.2448,4.2448,4.2448,4.2448,4.2448,4.2239,4.1847,4.1481,4.1533,4.1899,4.2133,4.2265,4.2526,0.0,0.0,0.0,0.0,0.0,0.0,0.0,0.0,0.0,0.0,0.0,0.0,0.0,0.0,0.0,0.0,0.0,0.0,0.0,0.0,0.0,0.0,0.0,0.0,0.0,0.0,0.0,0.0,0.0,0.0,0.0,0.0,0.0,0.0,4.1819,4.167,4.1374,4.1324,4.1448,4.1769,4.1819,4.1967,4.2311,4.2625,4.2647,4.2333,4.2598,4.2647,4.2333,4.2937,4.3321,4.3321,4.3984,4.4312,4.4312,4.4312,4.4312,4.4312,4.4312,4.4312,4.4312,4.4312,4.4499,4.4776,4.4452,4.4684,4.519,4.3843,4.3701,4.4312,4.4312,4.4312,4.4228,0.0,0.0,0.0,3.4132,3.4132,3.4191,3.4547,3.4606,3.4783,3.5429,3.5488,3.5799,3.6631,3.6697,3.6894,3.733,3.8469,3.9453,4.0137,4.1342,4.2265,4.2945,4.2971,4.2971,4.2971,4.2971,4.2683,4.2185,4.2185,4.1847,4.1324,4.1324,4.1324,4.1324,4.1324,4.1324,4.1324,4.1324,4.1324,4.135,4.1951,4.1847,4.1481,0.0,0.0,0.0,0.0,0.0,0.0,0.0,0.0,0.0,0.0,0.0,0.0,0.0,0.0,0.0,0.0,0.0,0.0,0.0,0.0,0.0,0.0,0.0,0.0,0.0,0.0,0.0,0.0,0.0,0.0,0.0,0.0,0.0,4.2985,4.284,4.2479,4.1498,4.1398,4.1769,4.2744,4.284,4.3273,4.4219,4.3416,4.3321,4.4266,4.3416,4.3321,4.4266,4.4312,4.4359,4.4359,4.4359,4.4406,4.4406,4.4406,4.4406,4.4406,4.4406,4.4406,4.4406,4.4406,4.4961,4.5779,4.4823,4.5537,4.7106,4.5098,4.4359,4.4406,4.4406,4.4377,4.4293,0.0,0.0,3.4132,3.4132,3.4132,3.4191,3.4547,3.4547,3.4762,3.5429,3.579,3.6189,3.6616,3.6981,3.7243,3.7374,3.7714,3.854,4.0081,4.0168,4.0649,4.1719,4.1794,4.1794,4.1794,4.1794,4.1716,4.1559,4.1559,4.1455,4.1324,4.1324,4.1324,4.1324,4.1324,4.1324,4.1324,4.1324,4.1324,4.135,4.1951,4.2317,4.2579,0.0,0.0,0.0,0.0,0.0,0.0,0.0,0.0,0.0,0.0,0.0,0.0,0.0,0.0,0.0,0.0,0.0,0.0,0.0,0.0,0.0,0.0,0.0,0.0,0.0,0.0,0.0,0.0,0.0,0.0,0.0,4.5235,4.5052,4.4031,4.389,4.3796,4.3511,4.3464,4.3559,4.389,4.389,4.3984,4.4266,4.473,4.4748,4.4312,4.4702,4.4748,4.4312,4.5007,4.5372,4.5372,4.6121,4.6462,4.6462,4.6462,4.6462,4.6462,4.6462,4.6462,4.6462,4.6462,4.6638,4.6887,4.6594,4.68,4.7149,4.5898,4.5824,4.6462,4.6462,4.6167,4.5726,0.0,3.376,3.4631,3.4631,3.4631,3.4752,3.5053,3.5113,3.5353,3.6032,3.6329,3.6621,3.6981,3.7221,3.7374,3.7374,3.7717,3.8397,3.977,4.009,4.0509,4.13,4.1324,4.1324,4.1324,4.1324,4.1324,4.1324,4.1324,4.1324,4.1324,4.1324,4.1324,4.1324,4.1324,4.1324,4.1324,4.1324,4.1324,4.135,4.1664,4.2004,4.2343,4.2579,4.2657,4.2683,4.2944,4.3023,4.3075,4.3389,0.0,0.0,0.0,0.0,0.0,0.0,0.0,0.0,0.0,0.0,0.0,0.0,0.0,0.0,0.0,0.0,0.0,0.0,0.0,0.0,0.0,0.0,0.0,0.0,4.6166,4.6211,4.5673,4.519,4.4776,4.4359,4.4312,4.4452,4.4915,4.4915,4.5098,4.5537,4.5689,4.5734,4.5582,4.5689,4.5734,4.5553,4.6121,4.6432,4.6432,4.7019,4.7309,4.7309,4.7309,4.7309,4.7309,4.7309,4.7309,4.7309,4.7309,4.7309,4.7309,4.7309,4.7309,0.0,0.0,0.0,0.0,0.0,4.707,4.6741,0.0,3.4465,3.5418,3.5418,3.5418,3.5479,3.5849,3.587,3.6116,3.6749,3.6789,3.6911,3.7314,3.7314,3.7374,3.7374,3.796,3.8572,3.9268,4.0589,4.1324,4.1324,4.1324,4.1324,4.1324,4.1324,4.1324,4.1324,4.1324,4.1324,4.1324,4.1324,4.1324,4.1324,4.1324,4.1324,4.1324,4.1324,4.1324,4.1324,4.1324,4.1324,4.1376,4.1873,4.2133,4.2134,4.2657,4.284,4.284,4.2892,0.0,0.0,0.0,0.0,0.0,0.0,0.0,0.0,0.0,0.0,0.0,0.0,0.0,0.0,0.0,0.0,0.0,0.0,0.0,0.0,0.0,0.0,0.0,0.0,4.6726,4.7309,4.7309,4.655,4.5644,4.473,4.4638,4.5007,4.5869,4.5958,4.6344,4.7222,4.6462,4.6373,4.7355,4.655,0.0,0.0,0.0,4.7519,4.7519,4.7519,4.7519,4.7519,4.7519,4.7519,4.7519,4.7519,4.7519,4.7519,4.7519,4.7489,4.7429,4.7429,4.7369,4.7309,4.7309,4.7309,4.7309,4.7309,4.7309,4.7309,0.0,3.4465,3.5418,3.5418,3.5418,3.5479,3.5849,3.5665,3.5726,3.6423,3.6239,3.63,3.6911,3.6972,3.7093,3.7374,3.7176,3.754,3.8694,4.0361,4.1324,4.1324,4.1324,4.1324,4.1324,4.1324,4.1324,4.1324,4.1324,4.1324,4.1324,4.1324,4.1324,4.1324,4.1324,4.1324,4.1324,4.1324,4.1324,4.1324,4.1324,4.1324,4.1324,4.1428,4.1481,4.1507,4.1611,4.1638,4.1716,4.2186,4.2317,4.2422,4.2866,4.3101,0.0,0.0,0.0,0.0,0.0,0.0,0.0,0.0,0.0,0.0,0.0,0.0,0.0,0.0,0.0,0.0,0.0,0.0,0.0,4.6887,4.7149,4.7309,4.7309,4.7106,4.6931,4.6726,4.6756,4.68,4.6975,4.7019,4.7062,4.7309,4.7106,4.7344,4.8057,4.7911,4.8149,4.8865,4.894,4.894,4.894,4.894,4.894,4.894,0.0,0.0,4.894,4.894,4.894,4.894,4.894,4.8596,4.8087,4.8087,4.7788,4.7309,4.7309,4.7309,4.7309,4.7309,4.7309,4.7309,0.0,3.4465,3.5418,3.5418,3.5418,3.5479,3.5603,3.5479,3.5603,3.6116,3.5993,3.6116,3.6606,3.6667,3.6703,3.6806,3.6699,3.7065,3.8174,3.9488,4.0567,4.1274,4.1324,4.1324,4.1324,4.1324,4.1324,4.1324,4.1324,4.1324,4.1324,4.1324,4.1324,4.1324,4.1324,4.1324,4.1324,4.1324,4.1324,4.1324,4.1324,4.1324,4.1324,4.1324,4.1324,4.1324,4.1324,4.1324,4.135,4.1638,4.1742,4.1794,4.2082,4.2369,4.2682,0.0,0.0,0.0,0.0,0.0,0.0,0.0,0.0,0.0,0.0,0.0,0.0,0.0,0.0,4.5943,4.6462,0.0,4.6726,4.7222,4.7309,4.7309,4.7309,4.7578,4.7668,4.7339,4.7309,4.7429,4.7758,4.7788,4.7938,4.8267,4.8297,4.8446,4.8745,4.882,4.897,4.9299,4.9299,4.9299,4.9299,4.9299,4.9299,4.9299,4.9299,4.9299,4.9299,4.9299,4.9299,4.9299,4.9299,4.912,4.882,4.882,4.8386,4.7788,4.7788,4.7608,4.7309,4.7309,4.7309,4.7309,0.0,3.4465,3.5418,3.5418,3.5418,3.5418,3.5418,3.5418,3.5479,3.5788,3.5788,3.5932,3.63,3.63,3.6189,3.5994,3.6356,3.6828,3.734,3.8586,3.9751,4.0846,4.1147,4.1324,4.1324,4.1324,4.1324,4.1324,4.1324,4.1324,4.1324,4.1324,4.1324,4.1324,4.1324,4.1324,4.1324,4.1324,4.1324,4.1324,4.1324,4.1324,4.1324,4.1324,4.1324,4.1324,4.1324,4.1324,4.1324,4.1547,4.1448,4.1374,4.1746,4.2113,4.2534,4.3552,4.3529,0.0,0.0,0.0,0.0,0.0,0.0,0.0,0.0,4.7309,4.7309,4.7309,4.7309,4.7309,4.7309,4.7309,4.7309,4.7309,4.7429,4.7489,4.7489,4.8057,4.8267,4.7758,4.7698,4.7908,4.8416,4.8476,4.873,4.9269,4.9299,4.9359,4.9464,4.9464,4.9523,4.9689,4.9689,4.9689,4.9689,4.9689,4.9689,4.9689,4.9689,4.9689,4.9689,4.9689,4.9689,4.9689,4.9523,4.9464,4.9464,4.9359,4.9,4.8476,4.8476,4.8087,4.7489,4.7369,4.7309,4.7309,0.0,3.4465,3.5418,3.5418,3.5418,3.5418,3.5418,3.5418,3.5418,3.5418,3.5479,3.5603,3.5932,3.5993,3.5758,3.5167,3.6352,3.6714,3.5685,3.8089,3.9494,3.9442,4.0618,4.1324,4.1324,4.1324,4.1324,4.1324,4.1324,4.1324,4.1324,4.1324,4.1324,4.1324,4.1324,4.1324,4.1324,4.1324,4.1324,4.1324,4.1324,4.1324,4.1324,4.1324,4.1324,4.1324,4.1324,4.1324,4.1448,4.2333,4.2065,4.1597,4.3416,4.3423,4.2949,4.3954,4.4171,4.399,4.332,4.3079,4.3437,4.5396,4.5895,4.6164,0.0,4.7309,4.7309,4.7309,4.7309,4.7309,4.7309,4.7309,4.7309,4.7309,4.7788,4.8177,4.8177,4.879,4.9179,4.912,4.909,4.912,4.9179,4.9209,4.9239,4.9299,4.9299,4.9523,5.0046,5.0076,5.0345,5.099,5.099,5.099,5.099,5.099,5.099,5.099,5.099,5.099,5.099,5.099,5.099,5.096,5.0345,5.0076,5.0046,4.9494,4.9269,4.9209,4.9209,4.879,4.8117,4.7519,4.7309,4.7309,0.0,0.0,3.5418,3.5418,3.5418,3.5418,3.5418,3.5418,3.5418,3.5418,3.5418,3.5418,3.5603,3.5558,3.53,3.4766,3.5012,3.5338,3.5576,3.6541,3.7506,3.8428,3.9648,4.0313,4.0313,4.0946,4.1324,4.1324,4.1324,4.1324,4.1324,4.1324,4.1324,4.1324,4.1324,4.1324,4.1324,4.1324,4.1324,4.1324,4.1324,4.1324,4.1324,4.1324,4.1324,4.1324,4.1324,4.1696,0.0,0.0,4.2065,4.2333,4.3177,4.3129,4.3129,4.473,4.4776,4.4359,4.4517,4.4978,4.5598,4.6462,4.6682,4.677,4.7222,4.7309,4.7309,4.7309,4.7309,4.7309,4.7309,4.7309,4.7429,4.7818,4.8117,4.8416,4.885,4.9434,4.9823,4.9823,5.0182,5.0242,4.9853,4.9823,5.0002,5.0391,5.0391,5.0511,5.0734,5.0764,5.0883,5.1199,5.1229,5.1229,5.1229,5.1229,5.1229,5.1229,5.1229,5.1229,5.1229,5.1229,5.1229,5.1199,5.0883,5.0764,5.0734,5.0511,5.0182,4.9823,4.9823,4.9434,4.882,4.8117,4.7638,4.7309,0.0,0.0,0.0,3.5418,3.5418,3.5418,3.5418,3.5418,3.5418,3.5418,3.5418,3.5418,3.5418,3.5312,3.5037,3.4637,3.4236,3.431,3.5057,3.5212,3.5836,3.7133,3.8376,3.908,3.9131,3.993,4.0516,4.0846,4.0846,4.0997,4.1324,4.1324,4.1324,4.1324,4.1324,4.1324,4.1324,4.1324,4.1324,4.1324,4.1324,4.1324,4.1324,4.1324,4.1324,4.1324,4.1324,4.1769,4.2382,4.2213,4.2431,4.2937,4.3768,4.3862,4.3956,4.5689,4.5508,4.4915,4.5943,4.655,4.6975,4.7222,4.7309,4.7309,4.7309,4.7309,4.7309,4.7309,4.7309,4.7309,4.7309,4.7459,4.7728,4.8207,4.8596,4.8985,4.9464,5.0092,5.0465,5.0465,5.0883,5.0973,5.0495,5.0465,5.0674,5.1169,5.1229,5.1229,5.1229,5.1229,5.1229,5.1229,5.1229,5.1229,5.1229,5.1229,5.1229,5.1229,5.1229,5.1229,5.1229,5.1229,5.1229,5.1229,5.1229,5.1229,5.1229,5.1229,5.0883,5.0465,5.0465,5.0122,4.9464,4.8985,4.8297,4.7578,0.0,0.0,0.0,0.0,3.5418,3.5418,3.5418,3.5418,3.5418,3.5418,3.5418,3.5418,3.5418,3.5418,3.5231,3.4837,3.4599,3.4177,3.3505,3.4631,3.5343,3.5398,3.6757,3.769,3.7954,3.8007,3.8533,3.9648,3.9648,4.0185,4.1324,4.1324,4.1324,4.1324,4.1324,4.1324,4.1324,4.1324,4.1324,4.1324,4.1324,4.1324,4.1324,4.1324,4.1324,4.1324,4.1324,4.1324,4.1647,4.3559,4.3606,4.3321,4.6211,4.6506,0.0,4.6975,4.655,4.5958,4.6975,4.655,4.6077,4.7062,4.7309,4.7309,4.7309,4.7309,4.7309,4.7309,4.7309,4.7309,4.7309,4.7818,4.8267,4.8297,4.9344,5.0136,5.0166,5.0734,5.1199,5.1199,5.1199,5.1199,0.0,5.1199,5.1199,5.1229,5.1229,5.1229,5.1229,5.1229,5.1229,5.1229,5.1229,5.1229,5.1229,5.1229,5.1229,5.1229,5.1229,5.1229,5.1229,5.1229,5.1229,5.1229,5.1229,5.1229,5.1229,5.1229,5.1199,5.1199,5.1199,5.0734,5.0166,5.0136,4.9374,4.8267,0.0,0.0,0.0,0.0,0.0,3.5418,3.5418,3.5418,3.5418,3.5418,3.5418,0.0,0.0,0.0,0.0,0.0,3.444,3.4042,3.3722,3.3813,3.3987,3.4134,3.5366,3.6162,3.6511,3.7263,3.7902,3.8481,3.8481,3.908,4.0185,4.0185,4.0567,4.1324,4.1324,4.1324,4.1324,4.1324,4.1324,4.1324,4.1324,4.1324,4.1324,4.1324,4.1324,4.1324,0.0,4.172,4.2382,4.3081,4.3511,4.4078,4.5779,4.6077,4.6003,4.7019,4.7062,4.6887,4.7222,4.7062,4.6887,4.7222,4.7309,4.7309,4.7309,4.7309,4.7309,4.7309,4.7638,4.7967,4.7967,4.8506,4.9075,4.9523,4.9897,5.0345,5.0794,5.1079,5.1229,5.1229,5.1229,0.0,0.0,0.0,0.0,5.1229,5.1229,5.1229,5.1229,5.1229,5.1229,5.1229,5.1229,5.1229,5.1229,5.1229,5.1229,5.1229,5.1229,5.1229,5.1229,5.1229,5.1229,5.1229,5.1229,5.1229,5.1229,5.1229,5.1229,5.1229,5.1229,5.1079,5.0853,5.0853,5.0331,4.9523,0.0,0.0,0.0,0.0,0.0,0.0,0.0,0.0,0.0,0.0,0.0,0.0,0.0,0.0,0.0,0.0,0.0,3.4066,3.3893,3.3367,3.3126,3.3466,3.4134,3.467,3.5024,3.5717,3.6402,3.6972,3.7079,3.7743,3.8847,3.8976,3.9597,4.0668,4.0668,4.0946,4.1324,4.1324,4.1324,4.1324,4.1324,4.1324,4.1324,4.1324,4.1324,0.0,4.1324,4.1746,4.2333,4.2695,4.3225,4.4031,4.5372,4.6077,4.6462,4.7106,4.7309,4.7309,4.7309,4.7309,4.7309,4.7309,4.7309,4.7309,4.7309,4.7309,4.7309,4.7309,4.7818,4.8297,4.8297,4.9015,4.9763,5.0136,5.0375,5.0704,5.1169,5.1229,5.1229,5.1229,5.1229,5.1229,0.0,0.0,0.0,5.1229,5.1229,5.1229,5.1229,5.1229,5.1229,5.1229,5.1229,5.1229,5.1229,5.1229,5.1229,5.1229,5.1229,5.1229,5.1229,5.1229,5.1229,5.1229,5.1229,5.1229,5.1229,5.1229,5.1229,5.1229,5.1229,5.1229,5.1229,5.1229,5.096,5.0435,0.0,0.0,0.0,0.0,0.0,0.0,0.0,0.0,0.0,0.0,0.0,0.0,0.0,0.0,0.0,0.0,0.0,0.0,3.4132,3.3244,3.2862,3.3146,3.3203,3.3296,3.3579,3.3579,3.4099,3.5178,3.553,3.6294,3.74,3.769,3.8376,3.9494,3.9494,4.0134,4.1198,4.1198,4.1274,4.1324,4.1324,4.1324,4.1324,4.1324,4.1324,4.1324,4.1324,4.1324,4.1448,4.2479,4.2889,4.3321,4.5281,4.655,4.7309,4.7309,4.7309,4.7309,4.7309,4.7309,4.7309,4.7309,4.7309,4.7309,4.7309,4.7309,4.7309,4.7309,4.7818,4.8297,0.0,0.0,5.0196,5.0255,5.0764,5.1229,5.1229,5.1229,5.1229,5.1229,5.1229,0.0,0.0,0.0,0.0,5.1229,0.0,5.1229,5.1229,5.1229,5.1229,5.1229,5.1229,5.1229,5.1229,5.1229,5.1229,5.1229,5.1229,5.1229,5.1229,5.1229,5.1229,5.1229,5.1229,5.1229,5.1229,5.1229,5.1229,5.1229,5.1229,5.1229,5.1229,5.1229,5.1229,5.1139,0.0,0.0,0.0,0.0,0.0,0.0,0.0,0.0,0.0,0.0,0.0,0.0,0.0,0.0,0.0,0.0,0.0,0.0,3.4093,3.3534,3.3115,3.2862,3.2841,3.2955,3.3296,3.3296,3.3558,3.4043,3.4099,3.4725,3.589,3.6185,3.6942,3.806,3.8218,3.8951,4.0032,4.0032,4.0516,4.1324,4.1324,4.1324,4.1324,4.1324,4.1324,4.1324,4.1324,4.1324,4.1448,4.2479,4.3815,4.5281,4.6506,4.7062,4.7309,4.7309,4.7309,4.7309,4.7309,4.7309,4.7309,4.7309,4.7309,4.7309,4.7309,4.7309,4.7309,4.7309,4.7818,4.8446,0.0,4.9673,5.0345,5.0853,5.1109,0.0,5.1229,5.1229,0.0,5.1229,5.1229,5.1229,5.1229,5.1229,0.0,0.0,5.1229,5.1229,5.1229,5.1229,5.1229,5.1229,5.1229,5.1229,5.1229,5.1229,5.1229,5.1229,5.1229,5.1229,5.1229,5.1229,5.1229,5.1229,5.1229,5.1229,5.1229,5.1229,5.1229,5.1229,5.1229,5.1229,5.1229,5.1229,5.1229,5.1199,0.0,0.0,0.0,0.0,0.0,0.0,0.0,0.0,0.0,0.0,0.0,0.0,0.0,0.0,0.0,0.0,0.0,0.0,0.0,3.3637,3.3182,3.269,3.2669,3.2784,3.2955,3.2955,3.3069,3.3239,3.3353,3.3784,3.4413,3.4858,3.5608,3.6541,3.6865,3.7902,3.9442,3.9442,4.0134,0.0,0.0,4.1324,4.1324,4.1324,4.1324,4.1324,0.0,0.0,0.0,0.0,0.0,4.5235,4.5808,4.6594,4.7309,4.7309,4.7309,4.7309,4.7309,4.7309,4.7309,4.7309,4.7309,4.7309,4.7309,4.7309,4.7309,4.7309,4.7818,4.8386,4.882,4.9613,5.0315,0.0,0.0,0.0,5.1229,5.1229,5.1229,0.0,5.1229,0.0,5.1229,5.1229,5.1229,5.1229,5.1229,5.1229,5.1229,5.1229,5.1229,5.1229,5.1229,5.1229,5.1229,5.1229,5.1229,5.1229,5.1229,5.1229,5.1229,5.1229,5.1229,5.1229,0.0,5.1229,5.1229,5.1229,5.1229,5.1229,5.1229,5.1229,5.1229,5.1229,5.1229,5.1229,0.0,0.0,0.0,0.0,0.0,0.0,0.0,0.0,0.0,0.0,3.5418,0.0,0.0,0.0,0.0,0.0,0.0,0.0,0.0,0.0,0.0,3.269,3.2669,3.2669,3.2669,3.2669,3.2669,3.2669,3.2955,3.3126,3.3146,3.3692,3.4323,3.5035,3.5443,3.678,3.8742,3.8951,3.9827,4.1097,4.1274,4.1324,4.1324,0.0,0.0,0.0,0.0,0.0,0.0,0.0,4.3368,4.4312,4.4452,4.5808,4.7309,4.7309,4.7309,4.7309,4.7309,4.7309,4.7309,4.7309,4.7309,4.7309,4.7309,4.7309,4.7309,4.7309,4.7758,4.8177,4.8267,4.9284,5.0106,5.0196,0.0,5.1229,5.1229,5.1229,5.1229,5.1229,5.1229,5.1229,5.1229,5.1229,5.1229,5.1229,5.1229,5.1229,5.1229,5.1229,5.1229,5.1229,5.1229,5.1229,5.1229,5.1229,5.1229,5.1229,5.1229,5.1229,5.1229,5.1229,5.1229,5.1229,5.1229,5.1229,5.1229,5.1229,5.1229,5.1229,5.1229,5.1229,5.1229,5.1229,5.1229,5.1229,0.0,0.0,0.0,0.0,0.0,0.0,0.0,0.0,0.0,0.0,3.5418,3.5418,0.0,0.0,0.0,0.0,0.0,0.0,0.0,0.0,0.0,0.0,3.2669,3.2669,3.2669,3.2669,3.2669,3.2669,3.2727,3.2784,3.2784,3.3182,3.3409,3.3558,3.4121,3.5135,3.6457,3.7636,3.8795,3.9981,4.0946,4.1324,4.1324,0.0,0.0,0.0,0.0,0.0,0.0,0.0,4.2771,4.4452,4.5281,4.6344,4.7309,4.7309,4.7309,4.7309,4.7309,4.7309,4.7309,4.7309,4.7309,4.7309,4.7309,4.7309,0.0,0.0,4.7399,4.7638,4.8177,4.8925,4.9613,5.0106,5.0734,5.1229,5.1229,5.1229,5.1229,0.0,5.1229,5.1229,5.1229,5.1229,0.0,0.0,5.1229,5.1229,5.1229,5.1229,5.1229,5.1229,5.1229,5.1229,5.1229,5.1229,5.1229,5.1229,5.1229,5.1229,5.1229,5.1229,5.1229,5.1229,5.1229,0.0,5.1229,5.1229,5.1229,5.1229,5.1229,5.1229,5.1229,5.1229,5.1229,5.1229,0.0,0.0,0.0,0.0,0.0,0.0,0.0,3.5418,3.5418,3.5418,3.5418,3.5418,3.5418,3.5418,3.5418,0.0,0.0,0.0,0.0,0.0,0.0,0.0,0.0,0.0,0.0,3.2841,3.2841,3.2669,0.0,3.2955,3.2955,3.3146,3.3203,3.3203,3.3636,3.4491,3.564,3.7079,3.8428,3.9699,4.0846,4.1324,0.0,0.0,0.0,0.0,0.0,0.0,0.0,0.0,4.2284,4.3579,4.4097,4.5281,4.655,4.655,4.6887,4.7309,4.7309,4.7309,4.7309,4.7309,4.7309,4.7309,4.7309,0.0,0.0,0.0,4.7309,4.7399,4.7728,4.8327,4.8985,4.9613,5.0272,5.0794,5.1169,5.1229,5.1229,5.1229,5.1229,5.1229,5.1229,5.1229,5.1229,5.1229,5.1229,5.1229,5.1229,5.1229,5.1229,5.1229,5.1229,5.1229,5.1229,5.1229,5.1229,5.1229,5.1229,5.1229,5.1229,5.1229,5.1229,5.1229,5.1229,5.1229,5.1229,5.1229,5.1229,5.1229,5.1229,5.1229,5.1229,5.1229,5.1229,5.1229,0.0,0.0,0.0,0.0,0.0,0.0,0.0,3.5418,3.5418,3.5418,3.5418,3.5418,3.5418,3.5418,3.5418,0.0,0.0,0.0,0.0,0.0,0.0,0.0,0.0,0.0,0.0,0.0,0.0,3.2784,3.3012,0.0,0.0,0.0,0.0,0.0,3.3579,3.4357,3.5508,3.6972,3.8376,0.0,0.0,4.1324,0.0,0.0,0.0,0.0,0.0,0.0,0.0,0.0,4.1819,4.2479,4.2479,4.3862,4.5508,4.5734,4.6344,4.7019,4.7266,4.7309,4.7309,4.7309,4.7309,4.7309,4.7309,4.7309,0.0,4.7309,4.7309,4.7309,4.7309,4.7848,4.8506,4.9209,4.9823,5.0435,5.1139,5.1229,5.1229,0.0,5.1229,0.0,5.1229,5.1229,0.0,5.1229,5.1229,5.1229,5.1229,5.1229,5.1229,5.1229,5.1229,5.1229,5.1229,5.1229,5.1229,5.1229,5.1229,5.1229,5.1229,5.1229,5.1229,5.1229,5.1229,5.1229,5.1229,5.1229,5.1229,5.1229,5.1229,5.1229,5.1229,5.1229,5.1229,5.1229,0.0,0.0,0.0,0.0,0.0,0.0,0.0,3.5418,3.5418,3.5418,3.5418,3.5418,3.5418,3.5418,3.5418,0.0,0.0,0.0,0.0,0.0,0.0,0.0,0.0,0.0,0.0,0.0,0.0,3.3146,3.2898,0.0,0.0,0.0,0.0,0.0,0.0,3.4658,3.5859,3.724,0.0,0.0,0.0,0.0,0.0,0.0,0.0,0.0,0.0,0.0,0.0,0.0,0.0,4.1448,4.1448,4.2819,4.4638,4.5553,0.0,0.0,4.7062,4.7309,4.7309,4.7309,4.7309,4.7309,4.7309,0.0,4.7309,4.7309,4.7309,4.7309,4.7309,4.7848,4.8506,4.9209,4.9823,5.0435,5.1139,5.1229,5.1229,5.1229,0.0,0.0,5.1229,5.1229,5.1229,5.1229,5.1229,5.1229,5.1229,5.1229,5.1229,5.1229,5.1229,5.1229,5.1229,5.1229,5.1229,5.1229,5.1229,5.1229,5.1229,5.1229,5.1229,5.1229,5.1229,5.1229,0.0,5.1229,5.1229,5.1229,5.1229,5.1229,5.1229,5.1229,5.1229,5.1229,0.0,0.0,0.0,0.0,0.0,0.0,3.5418,3.5418,3.5418,3.5418,3.5418,3.5418,3.5418,3.5418,3.5418,3.5418,0.0,0.0,0.0,0.0,0.0,0.0,0.0,0.0,0.0,0.0,3.2955,3.2898,3.2955,0.0,0.0,0.0,0.0,0.0,0.0,3.4714,3.5859,0.0,0.0,0.0,0.0,0.0,0.0,0.0,0.0,0.0,0.0,0.0,0.0,0.0,0.0,0.0,4.1324,4.1819,0.0,0.0,4.484,4.5869,4.6299,4.6844,4.7309,4.7309,4.7309,4.7309,4.7309,0.0,4.7309,4.7309,4.7309,4.7309,4.7309,4.7519,4.8027,4.9149,4.9494,0.0,5.1079,5.1229,5.1229,5.1229,5.1229,0.0,0.0,0.0,5.1229,5.1229,5.1229,5.1229,5.1229,5.1229,5.1229,5.1229,5.1229,5.1229,5.1229,5.1229,5.1229,5.1229,5.1229,5.1229,5.1229,5.1229,5.1229,5.1229,5.1229,5.1229,0.0,5.1229,5.1229,5.1229,5.1229,5.1229,5.1229,5.1229,5.1229,5.1229,0.0,0.0,0.0,0.0,0.0,3.5583,3.5438,3.5418,3.5418,3.5418,3.5418,3.5418,3.5418,3.5418,3.5418,3.5418,3.5418,0.0,0.0,0.0,0.0,0.0,0.0,0.0,0.0,0.0,3.3101,3.2841,3.2955,3.3126,0.0,0.0,3.3466,3.3749,0.0,0.0,0.0,0.0,0.0,0.0,0.0,0.0,0.0,0.0,0.0,0.0,0.0,0.0,0.0,0.0,0.0,0.0,0.0,0.0,0.0,0.0,4.4003,4.5417,4.5734,4.655,4.7309,4.7309,4.7309,4.7309,0.0,0.0,4.7309,4.7309,4.7309,4.7309,4.7309,4.7309,4.7668,4.885,0.0,4.9689,5.078,5.1079,5.1229,5.1229,0.0,5.1229,5.1229,5.1229,5.1229,5.1229,5.1229,5.1229,5.1229,5.1229,5.1229,5.1229,5.1229,5.1229,5.1229,5.1229,5.1229,5.1229,5.1229,5.1229,5.1229,5.1229,5.1229,5.1229,5.1229,5.1229,0.0,5.1229,5.1229,5.1229,5.1229,5.1229,5.1229,5.1229,5.1229,5.1229,0.0,0.0,0.0,0.0,0.0,0.0,3.55,3.5418,3.5418,3.5418,3.5418,3.5418,3.5418,3.5418,3.5418,3.5418,3.5418,0.0,0.0,0.0,0.0,0.0,0.0,0.0,0.0,0.0,3.3335,3.3182,3.2841,3.3012,3.3636,3.3636,3.3749,3.4086,0.0,0.0,0.0,0.0,0.0,0.0,0.0,0.0,0.0,0.0,0.0,0.0,0.0,0.0,0.0,0.0,0.0,0.0,0.0,4.1324,4.1498,0.0,4.3511,4.4545,4.5553,4.655,4.7309,4.7309,4.7309,4.7309,0.0,0.0,4.7309,4.7309,4.7309,4.7309,4.7309,4.7309,4.7519,4.8177,4.888,0.0,5.0106,5.0764,5.1229,0.0,5.1229,5.1229,5.1229,5.1229,5.1229,5.1229,5.1229,0.0,5.1229,5.1229,5.1229,5.1229,5.1229,5.1229,5.1229,5.1229,5.1229,5.1229,5.1229,5.1229,5.1229,5.1229,5.1229,5.1229,5.1229,5.1229,0.0,5.1229,5.1229,5.1229,5.1229,5.1229,5.1229,5.1229,5.1229,5.1229,0.0,0.0,0.0,0.0,0.0,0.0,0.0,3.5625,3.5418,3.5418,3.5418,3.5418,3.5418,3.5418,3.5418,3.5418,3.5418,0.0,0.0,0.0,0.0,0.0,0.0,0.0,0.0,3.3534,3.3364,3.3356,3.2929,3.2784,3.3012,3.3239,3.3353,3.3466,3.3918,3.5212,0.0,0.0,0.0,0.0,0.0,0.0,0.0,0.0,0.0,0.0,0.0,0.0,0.0,0.0,0.0,0.0,0.0,0.0,0.0,4.167,4.2479,4.3368,4.3673,4.447,4.5235,4.5235,4.5763,4.6255,4.6255,4.6814,4.7309,4.7309,4.7309,4.7309,4.7309,4.7309,4.7519,4.8177,4.888,0.0,0.0,0.0,0.0,5.1229,5.1229,5.1229,0.0,0.0,5.1229,5.1229,5.1229,5.1229,5.1229,5.1229,5.1229,5.1229,5.1229,5.1229,5.1229,5.1229,5.1229,5.1229,5.1229,5.1229,5.1229,5.1229,5.1229,5.1229,5.1229,5.1229,5.1229,5.1229,5.1229,5.1229,5.1229,5.1229,5.1229,5.1229,5.1229,5.1229,0.0,0.0,0.0,0.0,0.0,0.0,0.0,3.5873,3.5625,3.5438,3.5418,3.5418,3.5418,3.5418,3.5418,3.5418,3.5418,0.0,0.0,0.0,0.0,0.0,0.0,0.0,3.4401,3.4111,3.372,3.3368,3.3099,3.2892,3.2727,3.3012,3.3203,3.3203,3.3692,3.4769,0.0,0.0,0.0,0.0,0.0,0.0,4.1324,0.0,0.0,0.0,0.0,0.0,0.0,0.0,0.0,0.0,0.0,0.0,0.0,0.0,4.172,4.2333,4.2695,4.3559,4.4312,4.4312,4.5052,4.5779,4.5779,4.6594,4.7309,4.7309,4.7309,4.7309,4.7309,4.7309,4.7429,4.7848,4.8686,4.9449,4.9823,5.0661,5.1229,5.1229,5.1229,0.0,0.0,5.1229,5.1229,5.1229,5.1229,5.1229,5.1229,5.1229,5.1229,5.1229,5.1229,5.1229,5.1229,5.1229,5.1229,5.1229,5.1229,5.1229,5.1229,5.1229,5.1229,5.1229,5.1229,5.1229,0.0,5.1229,5.1229,5.1229,5.1229,5.1229,5.1229,5.1229,5.1229,5.1229,0.0,0.0,0.0,0.0,0.0,0.0,0.0,3.6163,3.5956,3.5521,3.5438,3.5418,3.5418,3.5418,3.5418,3.5418,0.0,0.0,0.0,0.0,0.0,0.0,0.0,0.0,3.4878,3.4837,3.4401,3.3472,3.3451,3.3203,3.2789,3.3074,3.3224,3.3182,3.3466,3.3861,0.0,0.0,0.0,0.0,4.1324,4.1324,0.0,0.0,0.0,0.0,0.0,0.0,0.0,0.0,0.0,0.0,0.0,0.0,0.0,0.0,0.0,0.0,0.0,4.3361,4.4172,4.4172,4.5007,4.5779,4.5779,4.6594,0.0,4.7309,4.7309,4.7309,4.7309,4.7309,4.7309,4.7309,4.8416,4.9299,4.9299,5.0391,5.1229,5.1229,5.1229,5.1229,5.1229,5.1229,5.1229,5.1229,5.1229,5.1229,5.1229,5.1229,5.1229,5.1229,5.1229,5.1229,5.1229,5.1229,5.1229,5.1229,5.1229,5.1229,5.1229,5.1229,5.1229,0.0,5.1229,5.1229,0.0,5.1229,5.1229,5.1229,5.1229,5.1229,5.1229,5.1229,5.1229,5.1229,0.0,0.0,0.0,0.0,0.0,0.0,0.0,0.0,0.0,0.0,3.5645,3.5418,3.5418,3.5418,3.5418,0.0,0.0,0.0,0.0,0.0,0.0,0.0,0.0,0.0,3.5273,3.4941,3.4712,3.4484,3.4132,3.3679,3.3223,3.3339,3.3173,3.2841,3.3126,3.4525,0.0,0.0,0.0,0.0,4.1324,4.1324,0.0,0.0,0.0,0.0,4.1324,4.1324,0.0,0.0,0.0,0.0,0.0,0.0,0.0,0.0,4.0618,4.0667,4.0913,0.0,4.3177,4.3177,4.447,4.5779,0.0,4.6594,4.7309,4.7309,4.7309,4.7309,4.7309,4.7309,4.7309,4.7309,4.8416,4.9299,4.9299,5.0391,5.1229,5.1229,5.1229,5.1229,5.1229,5.1229,5.1229,5.1229,5.1229,5.1229,5.1229,5.1229,5.1229,5.1229,5.1229,5.1229,5.1229,5.1229,5.1229,5.1229,5.1229,5.1229,5.1229,5.1229,5.1229,5.1229,5.1229,5.1229,5.1229,5.1229,5.1229,5.1229,5.1229,5.1229,5.1229,5.1229,5.1229,5.1229,0.0,0.0,0.0,0.0,0.0,0.0,0.0,0.0,0.0,0.0,0.0,3.5728,3.5728,3.5542,0.0,0.0,0.0,0.0,0.0,0.0,0.0,0.0,0.0,3.5418,3.5418,3.519,3.4962,3.4816,3.4567,3.4214,3.3699,3.3472,3.3244,3.3074,3.3791,3.5717,3.8348,3.9235,4.0236,4.1324,4.1324,0.0,0.0,0.0,0.0,0.0,4.1324,4.1324,0.0,4.1324,4.1324,4.1324,0.0,0.0,0.0,0.0,4.0252,4.0095,4.0357,4.1586,4.2792,4.2792,4.4331,4.5779,4.5779,4.6594,4.7309,4.7309,4.7309,4.7309,4.7309,4.7309,4.7309,4.7309,4.8416,4.9509,5.0092,5.078,5.1229,5.1229,5.1229,5.1229,0.0,5.1229,5.1229,5.1229,5.1229,5.1229,5.1229,5.1229,5.1229,5.1229,5.1229,5.1229,5.1229,5.1229,5.1229,5.1229,5.1229,5.1229,5.1229,5.1229,5.1229,5.1229,5.1229,5.1229,5.1229,5.1229,5.1229,5.1229,5.1229,5.1229,5.1229,5.1229,5.1229,5.1229,0.0,0.0,0.0,0.0,0.0,0.0,0.0,0.0,0.0,0.0,0.0,0.0,0.0,0.0,0.0,0.0,0.0,0.0,0.0,0.0,0.0,0.0,3.5418,3.5418,3.5418,3.5418,3.5231,3.4859,3.4859,3.4691,3.4214,3.3997,3.3901,3.4022,3.5091,3.6865,3.9156,3.9442,4.0236,4.1324,4.1324,0.0,0.0,0.0,0.0,0.0,0.0,0.0,0.0,4.1324,4.1324,4.1324,4.1324,0.0,0.0,0.0,0.0,0.0,4.0174,4.1603,4.3033,4.3033,4.4517,4.6032,4.6032,4.6682,4.7309,4.7309,4.7309,4.7309,4.7309,4.7309,4.7339,4.7429,4.8566,4.9823,5.105,5.1229,5.1229,5.1229,5.1229,0.0,5.1229,5.1229,5.1229,5.1229,5.1229,5.1229,5.1229,5.1229,5.1229,5.1229,5.1229,5.1229,5.1229,5.1229,5.1229,5.1229,5.1229,5.1229,5.1229,5.1229,5.1229,5.1229,0.0,0.0,5.1229,5.1229,5.1229,5.1229,5.1229,5.1229,5.1229,5.1229,5.1229,5.1229,0.0,0.0,0.0,0.0,0.0,0.0,0.0,0.0,0.0,0.0,0.0,0.0,0.0,0.0,0.0,0.0,0.0,0.0,0.0,0.0,0.0,3.5418,3.5418,3.5418,3.5418,3.5418,3.5376,3.5314,3.5314,3.5086,3.4712,3.5687,3.6244,3.6475,3.6711,3.7583,3.8899,3.939,4.0236,4.1324,4.1324,0.0,0.0,0.0,0.0,0.0,0.0,0.0,0.0,4.1324,4.1324,4.1324,4.1324,0.0,0.0,0.0,0.0,0.0,3.9703,4.1835,4.4078,4.4078,4.5582,4.7062,4.7062,4.7222,4.7309,4.7309,4.7309,4.7309,4.7309,4.7309,4.7489,4.8027,4.9224,5.0315,5.1109,5.1229,5.1229,5.1229,0.0,5.1229,5.1229,5.1229,5.1229,5.1229,5.1229,5.1229,5.1229,5.1229,5.1229,5.1229,5.1229,5.1229,5.1229,5.1229,5.1229,5.1229,5.1229,5.1229,5.1229,5.1229,5.1229,5.1229,0.0,5.1229,5.1229,5.1229,5.1229,5.1229,5.1229,5.1229,5.1229,5.1229,5.1229,5.1229,0.0,0.0,0.0,0.0,0.0,0.0,0.0,0.0,0.0,0.0,0.0,0.0,0.0,0.0,0.0,0.0,0.0,0.0,3.5418,3.5418,3.5418,3.5418,3.5418,3.5418,3.5418,3.5418,3.5418,3.5418,3.5418,3.5662,3.6161,3.7022,3.7688,3.8183,3.8195,3.8871,3.9981,4.0338,4.0846,4.1324,0.0,0.0,0.0,0.0,0.0,0.0,0.0,0.0,0.0,0.0,4.1324,4.1324,4.1324,0.0,0.0,0.0,0.0,0.0,4.0611,4.232,4.4001,4.4921,4.6211,4.7309,4.7309,4.7309,4.7309,4.7309,4.7309,4.7309,4.7309,4.7309,4.7638,4.8656,4.9314,5.0062,5.1079,5.1229,5.1229,0.0,0.0,5.1229,5.1229,5.1229,5.1229,5.1229,5.1229,5.1229,5.1229,5.1229,5.1229,5.1229,5.1229,5.1229,5.1229,5.1229,5.1229,5.1229,5.1229,5.1229,5.1229,5.1229,5.1229,5.1229,0.0,5.1229,5.1229,5.1229,5.1229,5.1229,5.1229,5.1229,5.1229,5.1229,5.1229,5.1229,0.0,0.0,0.0,0.0,0.0,0.0,0.0,0.0,0.0,0.0,0.0,0.0,0.0,0.0,0.0,0.0,0.0,0.0,3.5438,3.5418,3.5418,3.5418,3.5418,3.5418,3.5418,3.5418,3.5418,3.5418,3.5726,3.6664,3.8283,3.8481,3.9093,3.9911,3.9735,4.0159,4.0946,4.1224,4.1324,4.1324,0.0,0.0,0.0,0.0,0.0,0.0,0.0,0.0,0.0,0.0,0.0,0.0,0.0,0.0,0.0,4.0409,4.0122,4.0031,4.1218,4.2543,4.3924,4.5137,4.6344,4.7309,4.7309,4.7309,4.7309,4.7309,4.7309,4.7309,4.7309,4.7549,4.8087,4.9149,4.9569,5.0062,5.1079,5.1229,5.1229,5.1229,5.1229,5.1229,5.1229,5.1229,5.1229,5.1229,5.1229,5.1229,5.1229,5.1229,5.1229,5.1229,5.1229,5.1229,5.1229,5.1229,5.1229,5.1229,5.1229,5.1229,5.1229,5.1229,5.1229,5.1229,5.1229,5.1229,5.1229,5.1229,5.1229,5.1229,5.1229,5.1229,5.1229,5.1229,5.1229,5.1229,0.0,0.0,0.0,0.0,0.0,0.0,0.0,0.0,0.0,0.0,0.0,0.0,0.0,0.0,0.0,0.0,0.0,0.0,3.5438,3.5418,3.5418,3.5418,3.5418,3.5418,3.5418,3.5418,3.5418,3.5418,3.6603,3.8521,4.12,4.0499,4.0802,4.1974,4.1412,4.1081,4.0946,4.1224,4.1324,4.1324,4.1324,0.0,0.0,0.0,0.0,0.0,0.0,0.0,0.0,0.0,0.0,0.0,0.0,0.0,4.0409,4.0409,4.0383,4.0357,4.0507,4.2351,4.4256,4.4377,4.5853,4.7309,4.7309,4.7309,4.7309,4.7309,4.7309,4.7309,4.7309,4.8297,4.9209,4.9299,5.0272,5.1109,5.1199,0.0,5.1229,5.1229,5.1229,5.1229,5.1229,5.1229,5.1229,5.1229,5.1229,5.1229,5.1229,5.1229,5.1229,5.1229,5.1229,5.1229,5.1229,5.1229,5.1229,5.1229,5.1229,5.1229,5.1229,5.1229,5.1229,5.1229,5.1229,5.1229,5.1229,5.1229,5.1229,5.1229,5.1229,5.1229,5.1229,5.1229,5.1229,5.1229,0.0,0.0,0.0,0.0,0.0,0.0,0.0,0.0,0.0,0.0,0.0,0.0,0.0,0.0,0.0,0.0,0.0,3.6039,3.5852,3.5583,3.5418,3.5418,3.5418,3.5418,3.5418,3.5418,3.5767,3.6603,3.8662,4.0303,4.1509,4.1836,4.2157,4.2421,4.2061,4.1593,4.1147,4.1274,4.1324,4.1324,4.1324,4.1324,0.0,0.0,0.0,0.0,0.0,0.0,0.0,0.0,4.1324,4.1324,4.1324,4.1167,4.0984,4.0984,4.0984,4.1255,4.2514,4.3582,4.4591,4.5853,4.6756,4.7309,4.7309,4.7309,4.7309,4.7309,4.7309,4.7309,4.7309,4.8057,4.882,4.9239,5.0032,5.0704,5.1169,5.1229,5.1229,5.1229,5.1229,5.1229,5.1229,5.1229,5.1229,5.1229,5.1229,5.1229,5.1229,5.1229,5.1229,5.1229,5.1229,5.1229,5.1229,5.1229,5.1229,5.1229,5.1229,5.1229,5.1229,5.1229,5.1229,5.1229,5.1229,5.1229,5.1229,5.1229,5.1229,5.1229,5.1229,5.1229,5.1229,5.1229,5.1229,5.1229,0.0,0.0,0.0,0.0,0.0,0.0,0.0,0.0,0.0,0.0,0.0,0.0,0.0,0.0,0.0,0.0,3.6784,3.6266,3.6121,3.5687,3.5418,3.5418,3.5418,3.5418,3.5418,3.589,3.6542,3.7309,3.9954,4.159,4.2382,4.3,4.3061,4.2709,4.2476,4.1928,4.1324,4.1324,4.1324,4.1324,4.1324,4.1324,0.0,0.0,0.0,0.0,0.0,0.0,0.0,0.0,4.1324,4.1324,4.1324,4.1324,4.1324,4.1324,4.1498,4.2065,4.3464,4.4312,4.5098,4.6506,4.7062,4.7309,4.7309,4.7309,4.7309,4.7309,4.7309,4.7309,4.7309,4.8027,4.879,4.9239,4.9972,5.0674,5.1169,5.1229,5.1229,5.1229,5.1229,5.1229,5.1229,5.1229,5.1229,5.1229,5.1229,5.1229,5.1229,5.1229,5.1229,5.1229,5.1229,5.1229,5.1229,5.1229,5.1229,5.1229,5.1229,5.1229,5.1229,5.1229,5.1229,5.1229,5.1229,5.1229,5.1229,5.1229,5.1229,5.1229,5.1229,5.1229,5.1229,5.1229,5.1229,5.1229,0.0,0.0,0.0,0.0,0.0,0.0,0.0,0.0,0.0,0.0,0.0,0.0,0.0,0.0,0.0,0.0,3.7074,3.6618,3.6142,3.5687,3.5418,3.5418,3.5418,3.5418,3.5418,3.6967,3.767,3.7369,4.0163,4.2494,4.4313,4.4064,4.3555,4.2971,4.2735,4.2138,4.1324,4.1324,4.1324,4.1324,4.1324,4.1324,4.1324,0.0,0.0,0.0,0.0,0.0,0.0,0.0,4.1324,4.1324,4.1324,4.1324,4.1324,4.1324,4.2016,4.2792,4.2792,4.4238,4.5779,4.5779,4.655,4.7309,4.7309,4.7309,4.7309,4.7309,4.7309,4.7309,4.7309,4.8386,4.9299,4.9299,5.0361,5.1229,5.1229,5.1229,5.1229,5.1229,5.1229,5.1229,5.1229,5.1229,5.1229,5.1229,5.1229,5.1229,5.1229,5.1229,5.1229,5.1229,5.1229,5.1229,5.1229,5.1229,5.1229,5.1229,5.1229,5.1229,5.1229,5.1229,5.1229,5.1229,5.1229,5.1229,5.1229,5.1229,5.1229,5.1229,5.1229,5.1229,5.1229,5.1229,5.1229,5.1229,0.0,0.0,0.0,0.0,0.0,0.0,0.0,0.0,0.0,0.0,0.0,0.0,0.0,0.0,0.0,0.0,0.0,3.7094,3.6618,3.6163,3.5769,3.5438,3.5418,3.5479,3.5726,3.8149,3.9838,4.0626,4.2351,4.3572,4.4313,4.4203,4.3771,4.3023,4.2919,4.2293,4.1324,4.1324,4.1324,4.1324,4.1324,4.1324,4.1324,0.0,0.0,0.0,0.0,0.0,0.0,0.0,0.0,0.0,4.1324,4.1324,4.1324,4.1324,4.1498,4.1918,4.2598,4.3721,4.4915,4.5644,4.655,4.7309,4.7309,4.7309,4.7309,4.7309,4.7309,4.7309,4.7309,4.8386,0.0,4.9299,5.0361,5.1229,5.1229,5.1229,5.1229,5.1229,5.1229,5.1229,5.1229,5.1229,5.1229,5.1229,5.1229,5.1229,5.1229,5.1229,5.1229,5.1229,5.1229,5.1229,5.1229,5.1229,5.1229,5.1229,5.1229,5.1229,5.1229,5.1229,5.1229,5.1229,5.1229,5.1229,5.1229,5.1229,5.1229,5.1229,5.1229,5.1229,5.1229,5.1229,5.1229,5.1229,0.0,0.0,0.0,0.0,0.0,0.0,0.0,0.0,0.0,0.0,3.8191,3.8191,0.0,0.0,0.0,0.0,3.7757,3.7384,3.7094,3.6473,3.5976,3.5707,3.5995,3.6846,3.8305,4.0071,4.168,4.3053,4.3738,4.4203,4.4476,4.4476,4.3906,4.3023,4.3023,4.2396,4.1324,4.1324,4.1324,4.1324,4.1324,4.1324,4.1324,0.0,0.0,0.0,0.0,0.0,0.0,0.0,0.0,0.0,4.1324,4.1324,4.1324,4.1324,4.1597,4.2115,4.3129,4.4097,4.5144,4.6121,4.6844,4.7309,4.7309,4.7309,4.7309,4.7309,4.7309,4.7309,4.7309,4.8386,0.0,4.9299,5.0361,5.1229,5.1229,5.1229,5.1229,5.1229,5.1229,5.1229,5.1229,5.1229,5.1229,5.1229,5.1229,5.1229,5.1229,5.1229,5.1229,5.1229,5.1229,5.1229,5.1229,5.1229,5.1229,5.1229,5.1229,5.1229,5.1229,5.1229,5.1229,5.1229,5.1229,5.1229,5.1229,5.1229,5.1229,5.1229,5.1229,5.1229,5.1229,5.1229,5.1229,5.1229,0.0,0.0,3.8191,3.8191,0.0,0.0,0.0,0.0,0.0,0.0,3.8191,3.8191,0.0,0.0,0.0,0.0,3.7798,3.755,3.7488,3.666,3.6163,3.6184,3.6982,3.8876,4.1906,4.2326,4.3189,4.4668,4.4422,4.4476,4.4668,4.4668,4.4121,4.3023,4.3023,4.2396,4.1324,4.1324,4.1324,4.1324,4.1324,4.1324,4.1324,4.1324,0.0,0.0,0.0,0.0,0.0,0.0,0.0,0.0,4.1324,4.1324,4.1324,4.1324,4.1967,4.284,4.3796,4.4823,4.5869,4.68,4.7149,4.7309,4.7309,4.7309,4.7309,4.7309,4.7309,4.7309,4.7309,4.8386,4.9299,4.9299,5.0361,5.1229,5.1229,5.1229,5.1229,5.1229,5.1229,5.1229,5.1229,5.1229,5.1229,5.1229,5.1229,5.1229,5.1229,5.1229,5.1229,5.1229,5.1229,5.1229,5.1229,5.1229,5.1229,5.1229,5.1229,5.1229,5.1229,5.1229,5.1229,5.1229,5.1229,5.1229,5.1229,5.1229,5.1229,5.1229,5.1229,5.1229,5.1229,5.1229,5.1229,5.1229,0.0,0.0,3.8191,3.8191,0.0,0.0,0.0,0.0,0.0,0.0,0.0,0.0,0.0,0.0,0.0,0.0,3.8088,3.7881,3.7508,3.697,3.6621,3.652,3.7692,3.9522,4.1963,4.255,4.33,4.4367,4.4531,4.4613,4.4668,4.4668,4.4121,4.3023,4.3023,4.2396,4.1324,4.1324,4.1324,4.1324,4.1324,4.1324,4.1324,4.1324,4.1324,0.0,0.0,0.0,0.0,0.0,0.0,0.0,4.1324,4.1324,4.1324,4.1324,4.1448,4.1696,4.1868,4.3273,4.4684,4.4869,4.6121,4.7309,4.7309,4.7309,4.7309,4.7309,4.7309,4.7309,4.7309,4.8386,4.9299,4.9299,5.0361,5.1229,5.1229,5.1229,5.1229,5.1229,5.1229,5.1229,5.1229,5.1229,5.1229,5.1229,5.1229,5.1229,5.1229,5.1229,5.1229,5.1229,5.1229,5.1229,5.1229,5.1229,5.1229,0.0,5.1229,5.1229,5.1229,5.1229,5.1229,5.1229,5.1229,5.1229,5.1229,5.1229,5.1229,5.1229,5.1229,5.1229,5.1229,5.1229,5.1229,5.1229,0.0,0.0,0.0,0.0,0.0,0.0,0.0,0.0,0.0,0.0,0.0,0.0,0.0,0.0,0.0,0.0,3.8191,3.8134,3.8082,3.7436,3.7423,3.821,3.9684,4.1281,4.3078,4.3522,4.3987,4.4476,4.4613,4.4668,4.4668,4.4668,4.4121,4.3023,4.3023,4.2396,4.1324,4.1324,4.1324,4.1324,4.1324,4.1324,4.1324,4.1324,4.1324,4.1324,4.1324,0.0,0.0,0.0,0.0,0.0,0.0,0.0,4.1324,4.1324,4.1324,4.1398,4.1868,4.2792,4.3843,4.4776,4.6166,4.7309,4.7309,4.7309,4.7309,4.7309,4.7309,4.7309,4.7309,4.8386,4.9299,4.9299,5.0361,5.1229,5.1229,5.1229,5.1229,5.1229,5.1229,5.1229,5.1229,5.1229,5.1229,5.1229,5.1229,5.1229,5.1229,5.1229,5.1229,5.1229,5.1229,5.1229,5.1229,5.1229,5.1229,5.1229,5.1229,5.1229,5.1229,5.1229,5.1229,5.1229,5.1229,5.1229,5.1229,5.1229,5.1229,5.1229,5.1229,5.1229,5.1229,5.1229,5.1229,5.1229,0.0,0.0,0.0,0.0,0.0,0.0,0.0,0.0,0.0,0.0,0.0,0.0,0.0,0.0,3.8258,0.0,0.0,0.0,3.8681,3.8079,3.8459,4.0118,4.168,4.3078,4.4367,4.4559,4.4668,4.4668,4.4668,4.4668,4.4668,4.4668,4.4121,4.3023,4.3023,4.2396,4.1324,4.1324,4.1324,4.1324,4.1324,4.1324,4.1324,4.1324,4.1324,4.1324,4.1324,4.1324,4.1324,4.1324,0.0,0.0,0.0,0.0,4.1324,4.1324,4.1324,4.1498,4.2333,4.2647,4.3293,4.5326,4.6432,4.7062,4.7266,4.7309,4.7309,4.7309,4.7309,4.7309,4.7309,4.8386,4.9299,4.9299,5.0361,5.1229,5.1229,5.1229,5.1229,5.1229,5.1229,5.1229,5.1229,5.1229,5.1229,5.1229,5.1229,5.1229,5.1229,5.1229,5.1229,5.1229,5.1229,5.1229,5.1229,5.1229,5.1229,5.1229,5.1229,5.1229,5.1229,5.1229,5.1229,5.1229,5.1229,5.1229,5.1229,5.1229,5.1229,5.1229,5.1229,5.1229,5.1229,5.1229,5.1229,5.1229,0.0,0.0,0.0,0.0,0.0,0.0,0.0,0.0,0.0,0.0,3.8191,3.8191,0.0,0.0,0.0,3.8615,3.837,3.8304,3.8681,0.0,0.0,4.0524,4.2019,4.3411,4.4613,4.4668,4.4668,4.4668,4.4668,4.4668,4.4668,4.4668,4.4121,4.3023,4.3023,4.2396,4.1324,4.1324,4.1324,4.1324,4.1324,4.1324,4.1324,4.1324,4.1324,4.1324,4.1324,4.1324,4.1324,4.1324,4.1324,0.0,0.0,0.0,4.1324,4.1324,4.1324,4.1324,4.1448,4.2137,4.3293,4.5326,4.5913,4.6211,4.7106,0.0,4.7309,0.0,4.7309,4.7309,4.7309,4.8386,4.9299,4.9299,5.0361,5.1229,5.1229,5.1229,5.1229,5.1229,5.1229,5.1229,5.1229,5.1229,5.1229,5.1229,5.1229,5.1229,5.1229,5.1229,5.1229,5.1229,5.1229,5.1229,5.1229,5.1229,5.1229,5.1229,5.1229,5.1229,5.1229,5.1229,5.1229,5.1229,5.1229,5.1229,5.1229,5.1229,5.1229,5.1229,5.1229,5.1229,5.1229,5.1229,5.1229,5.1229,0.0,0.0,0.0,0.0,0.0,0.0,0.0,0.0,0.0,0.0,0.0,3.8191,0.0,0.0,0.0,3.8437,3.8437,3.8779,3.9427,4.0591,4.1448,4.1842,4.3189,4.4152,4.4668,4.4668,4.4668,4.4668,4.4668,4.4668,4.4668,4.4668,4.4121,4.3023,4.3363,4.2866,4.1821,4.2134,4.2265,4.2265,4.2265,4.2082,4.1794,4.1794,4.1585,4.1324,4.1324,4.1324,4.1324,4.1324,4.1324,4.1324,4.1324,0.0,0.0,0.0,4.1324,4.1324,4.1324,4.2065,4.3033,4.3909,4.4978,4.5913,4.6344,4.6931,4.7309,4.7309,4.7309,4.7309,4.7309,4.8386,4.9299,4.9299,5.0361,5.1229,5.1229,5.1229,5.1229,5.1229,5.1229,5.1229,5.1229,5.1229,5.1229,5.1229,5.1229,5.1229,5.1229,5.1229,5.1229,5.1229,5.1229,5.1229,5.1229,5.1229,5.1229,5.1229,5.1229,5.1229,5.1229,5.1229,5.1229,5.1229,5.1229,5.1229,5.1229,5.1229,5.1229,5.1229,5.1229,5.1229,5.1229,5.1229,5.1229,5.1229,0.0,0.0,0.0,0.0,0.0,0.0,0.0,0.0,0.0,0.0,0.0,0.0,0.0,0.0,0.0,0.0,3.9254,3.9713,4.0532,4.1899,4.2714,4.288,4.4042,4.4668,4.4668,4.4668,4.4668,4.4668,4.4668,4.4668,4.4668,4.4668,4.4199,4.3258,4.3676,4.3284,4.2264,4.2788,4.3023,4.3023,4.3023,4.2762,4.2369,4.2369,4.2108,4.1742,4.1742,4.1664,4.1533,4.1533,4.1428,4.1324,4.1324,4.1324,0.0,0.0,0.0,4.1324,4.1324,4.1868,4.2479,4.2744,4.3909,4.5161,0.0,0.0,4.6975,0.0,4.7309,4.7309,4.7309,4.8386,4.9299,4.9299,5.0361,5.1229,5.1229,5.1229,5.1229,5.1229,5.1229,5.1229,5.1229,5.1229,5.1229,5.1229,5.1229,5.1229,5.1229,5.1229,5.1229,5.1229,5.1229,5.1229,5.1229,5.1229,5.1229,5.1229,5.1229,5.1229,5.1229,5.1229,5.1229,5.1229,5.1229,5.1229,5.1229,5.1229,5.1229,5.1229,5.1229,5.1229,5.1229,5.1229,5.1229,5.1229,0.0,0.0,0.0,0.0,0.0,0.0,0.0,0.0,0.0,0.0,0.0,0.0,3.8814,3.8681,3.9451,4.1332,4.1267,4.1325,4.1945,4.2662,4.301,4.2911,4.4042,0.0,4.4668,4.4668,4.4668,4.4668,4.4668,4.4668,4.4668,4.4668,4.4408,4.3833,4.3912,4.3284,4.2264,4.2788,4.3023,4.3023,4.3023,4.2997,4.2971,4.2971,4.2971,4.2944,4.2944,4.2579,4.2159,4.2159,4.1768,4.1324,4.1324,4.1324,4.1324,0.0,0.0,0.0,4.1324,4.1374,0.0,4.255,4.2889,4.3436,0.0,0.0,4.6166,4.7106,4.7309,4.7309,4.7309,4.8386,4.9299,4.9299,5.0361,5.1229,5.1229,5.1229,5.1229,5.1229,5.1229,5.1229,5.1229,5.1229,5.1229,5.1229,5.1229,5.1229,5.1229,5.1229,5.1229,5.1229,5.1229,5.1229,5.1229,5.1229,5.1229,5.1229,5.1229,5.1229,5.1229,5.1229,5.1229,5.1229,5.1229,5.1229,5.1229,5.1229,5.1229,5.1229,5.1229,5.1229,5.1229,5.1229,5.1229,5.1229,0.0,0.0,0.0,0.0,0.0,0.0,0.0,0.0,0.0,0.0,0.0,0.0,0.0,4.1565,4.1884,4.258,4.2381,4.2654,4.3576,4.3499,4.3633,4.4068,4.445,4.4668,4.4668,4.4668,4.4668,4.4668,4.4668,4.4668,4.4668,4.4668,4.4408,4.3939,4.4251,4.399,4.3363,4.3859,4.4121,4.4121,4.4121,4.3885,4.3572,4.3572,4.3337,4.3023,4.3023,4.2892,4.2657,4.2291,4.2081,4.1794,4.1428,4.1324,4.1324,4.1324,4.1324,4.1324,4.1324,0.0,0.0,4.172,4.2333,4.2985,4.3721,4.4377,4.5144,4.6121,4.6344,4.655,4.7149,4.8386,4.9299,4.9299,5.0361,5.1229,5.1229,5.1229,5.1229,5.1229,5.1229,5.1229,5.1229,5.1229,5.1229,5.1229,5.1229,5.1229,5.1229,5.1229,5.1229,5.1229,5.1229,5.1229,5.1229,5.1229,5.1229,5.1229,5.1229,5.1229,5.1229,5.1229,5.1229,5.1229,5.1229,5.1229,5.1229,5.1229,5.1229,5.1229,5.1229,5.1229,5.1229,5.1229,5.1229,5.1229,0.0,0.0,0.0,4.3831,0.0,4.3831,4.3707,4.4017,4.4017,4.3458,0.0,0.0,0.0,0.0,4.3512,4.3877,4.4001,4.4259,4.4827,4.43,4.4207,4.4694,4.4668,4.4668,4.4668,4.4668,4.4668,4.4668,4.4668,4.4668,4.4668,4.4668,4.4513,4.4173,4.4565,4.4408,4.3965,4.4487,4.4668,4.4668,4.4668,4.4487,4.4173,4.4173,4.3938,4.3598,4.3598,4.3467,4.3258,4.2866,4.2656,4.2369,4.1794,4.1455,4.1324,4.1324,4.1324,4.1324,4.1324,0.0,0.0,0.0,4.1819,4.2382,4.2744,4.3321,4.4144,4.5508,4.5779,4.6121,4.7106,4.8386,4.9299,4.9299,5.0361,5.1229,5.1229,5.1229,5.1229,5.1229,5.1229,5.1229,5.1229,5.1229,5.1229,5.1229,5.1229,0.0,5.1229,5.1229,5.1229,5.1229,5.1229,5.1229,5.1229,5.1229,5.1229,5.1229,5.1229,5.1229,5.1229,5.1229,5.1229,5.1229,5.1229,5.1229,5.1229,5.1229,5.1229,5.1229,5.1229,5.1229,5.1229,5.1229,5.1229,5.1229,4.5,4.5269,4.5693,4.6942,4.7205,4.6883,4.5924,4.6585,4.6405,4.4165,0.0,0.0,0.0,0.0,0.0,4.5363,4.6051,4.6212,4.5663,4.5062,4.4668,4.4668,4.4668,4.4668,4.4668,4.4668,4.4668,4.4668,4.4668,4.4668,4.4668,4.4668,4.4668,4.4668,4.4668,4.4408,4.3938,4.4487,4.4668,4.4668,4.4668,4.4668,4.4668,4.4668,4.4668,4.4668,4.4668,4.4382,4.3885,4.3939,4.3493,4.2944,4.2343,4.1794,4.1324,4.1324,4.1324,0.0,0.0,0.0,0.0,4.1324,4.1324,4.1547,4.2501,4.2744,4.3321,4.5298,4.5734,4.6032,4.7092,4.8342,4.9254,4.9329,5.0391,5.1229,5.1229,5.1229,5.1229,5.1229,5.1229,5.1229,5.1229,5.1229,5.1229,5.1229,5.1229,5.1229,5.1229,5.1229,5.1229,5.1229,5.1229,5.1229,5.1229,5.1229,5.1229,5.1229,5.1229,5.1229,5.1229,5.1229,5.1229,5.1229,5.1229,5.1229,5.1229,5.1229,5.1229,5.1229,5.1229,5.1229,5.1229,5.1229,5.1229,5.1229,4.656,4.6645,4.6764,4.7146,4.7205,4.7205,4.7146,4.7383,4.7442,0.0,0.0,0.0,4.7002,4.6586,4.6243,4.6223,4.5961,4.5794,4.5637,4.5062,4.4668,4.4668,4.4668,4.4668,4.4668,4.4668,4.4668,4.4668,4.4668,4.4668,4.4668,4.4668,4.4668,4.4668,4.4668,4.4643,4.4513,4.467,4.4668,4.4668,4.4668,4.4668,4.4668,4.4668,4.4668,4.4668,4.4668,4.4617,4.4434,4.4016,4.3781,4.3467,4.2525,4.2107,4.1847,4.1428,0.0,0.0,4.1324,0.0,0.0,0.0,0.0,0.0,4.1647,4.172,4.2115,4.3368,4.3626,4.4284,4.6508,4.7662,4.8597,4.9745,5.0661,5.1229,5.1229,5.1229,5.1229,5.1229,5.1229,5.1229,5.1229,5.1229,5.1229,0.0,5.1229,5.1229,5.1229,5.1229,5.1229,5.1229,5.1229,5.1229,5.1229,5.1229,5.1229,5.1229,5.1229,5.1229,5.1229,5.1229,5.1229,5.1229,5.1229,5.1229,5.1229,5.1229,5.1229,5.1229,5.1229,5.1229,5.1229,5.1229,5.1229,5.1229,4.7645,4.7645,4.7645,4.7645,4.7645,4.7677,4.788,4.7938,4.7997,0.0,0.0,0.0,4.7858,4.731,4.6734,4.6159,4.582,4.5451,4.5216,4.4931,4.4668,4.4668,4.4668,4.4668,4.4668,4.4668,4.4668,4.4668,4.4668,4.4668,4.4668,4.4668,4.4668,4.4668,4.4668,4.4668,4.4668,4.4668,4.4668,4.4668,4.4668,4.4668,4.4668,4.4668,4.4668,4.4668,4.4668,4.4668,4.467,4.433,4.4068,4.3755,4.3154,4.2604,4.2159,4.1768,0.0,0.0,0.0,0.0,0.0,4.1324,0.0,0.0,4.1324,4.1324,4.1597,4.2598,4.3009,4.3767,4.5751,4.688,4.7789,4.869,4.978,5.068,5.1135,5.1229,5.1229,5.1229,5.1229,5.1229,5.1229,5.1229,5.1229,5.1229,5.1229,5.1229,5.1229,5.1229,5.1229,5.1229,5.1229,5.1229,5.1229,5.1229,5.1229,5.1229,5.1229,5.1229,5.1229,5.1229,5.1229,5.1229,5.1229,5.1229,5.1229,5.1229,5.1229,5.1229,5.1229,5.1229,5.1229,5.1229,5.1229,5.1229,0.0,4.8172,4.8172,4.8172,4.8172,4.8172,4.8172,4.8172,4.8172,0.0,4.812,4.7858,4.7148,4.6682,4.6159,4.5584,4.5477,4.5242,4.4774,4.4668,4.4668,4.4668,4.4668,4.4668,4.4668,4.4668,4.4668,4.4668,4.4668,4.4668,4.4668,4.4668,4.4668,4.4668,4.4668,4.4668,4.4668,4.4668,4.4668,4.4668,4.4668,4.4668,4.4668,4.4668,4.4668,4.4668,4.4668,4.4668,4.4668,4.4668,4.4382,4.3964,4.3939,4.3232,4.2395,4.2342,4.1899,0.0,0.0,0.0,0.0,4.1324,4.1324,0.0,4.1324,4.1324,4.1547,4.2479,4.3111,4.389,4.494,4.6084,4.6867,4.7101,4.8473,4.9931,5.087,5.1105,5.1229,5.1229,5.1229,5.1229,5.1229,5.1229,5.1229,5.1229,5.1229,5.1229,5.1229,5.1229,5.1229,5.1229,5.1229,5.1229,5.1229,5.1229,5.1229,5.1229,5.1229,5.1229,5.1229,5.1229,5.1229,5.1229,5.1229,5.1229,5.1229,5.1229,5.1229,5.1229,5.1229,5.1229,5.1229,5.1229,5.1229,5.1229,4.8172,4.8172,4.8172,4.8172,4.8172,4.8172,4.8172,4.8172,4.8172,4.8172,4.778,4.71,4.6025,4.5872,4.5558,4.4957,4.485,4.4853,4.4694,4.4668,4.4668,4.4668,4.4668,4.4668,4.4668,4.4668,4.4668,4.4668,4.4668,4.4668,4.4668,4.4668,4.4668,4.4668,4.4668,4.4668,4.4668,4.4668,4.4668,4.4668,4.4668,4.4668,4.4668,4.4668,4.4668,4.4668,4.4668,4.4668,4.4668,4.4668,4.4643,4.4487,4.4016,4.3782,4.3441,4.2997,0.0,0.0,0.0,0.0,0.0,4.1428,4.1324,0.0,4.1324,4.1324,4.1374,4.1547,4.2045,4.2926,4.4539,4.5344,4.6228,4.7561,4.8808,4.9659,4.9883,5.068,5.1229,5.1229,5.1229,5.1229,5.1229,5.1229,5.1229,5.1229,5.1229,5.1229,5.1229,5.1229,5.1229,5.1229,5.1229,5.1229,5.1229,5.1229,5.1229,5.1229,5.1229,5.1229,5.1229,5.1229,5.1229,5.1229,5.1229,5.1229,5.1229,5.1229,5.1229,5.1229,5.1229,5.1229,5.1229,5.1229,5.1229,5.1229,4.8172,4.8172,4.8172,4.8172,4.8172,4.8172,4.8172,4.8172,4.8068,4.7806,4.7022,4.6208,4.5634,4.5294,4.5007,4.4748,4.4668,0.0,0.0,4.4668,4.4668,4.4668,4.4668,4.4668,4.4668,4.4668,4.4668,4.4668,4.4668,4.4668,4.4668,4.4668,4.4668,4.4668,4.4668,4.4668,4.4668,4.4668,4.4668,4.4668,4.4668,4.4668,4.4668,4.4668,4.4668,4.4668,4.4668,4.4668,4.4668,4.4668,4.4668,4.467,4.4382,4.4095,4.3807,0.0,4.3258,4.2971,0.0,0.0,0.0,4.2239,4.216,0.0,0.0,4.216,4.216,4.216,4.2631,4.331,4.4145,4.4729,4.5367,4.6215,4.728,4.7993,4.7993,4.9854,5.1229,5.1229,5.1229,5.1229,5.1229,5.1229,5.1229,5.1229,5.1229,5.1229,5.1229,5.1229,5.1229,5.1229,5.1229,5.1229,5.1229,5.1229,5.1229,5.1229,5.1229,5.1229,5.1229,5.1229,5.1229,5.1229,5.1229,5.1229,5.1229,5.1229,5.1229,5.1229,5.1229,5.1229,5.1229,5.1229,5.1229,5.1229,4.8172,4.8172,4.8172,4.8172,4.8172,4.8172,4.8172,4.8094,4.778,4.71,4.6156,4.5584,4.5454,4.5009,4.4668,4.4668,4.4668,0.0,4.4668,4.4668,4.4668,4.4668,4.4668,4.4668,4.4668,4.4668,4.4668,4.4668,4.4668,4.4668,4.4668,4.4668,4.4668,4.4668,4.4668,4.4668,4.4668,4.4668,4.4668,4.4668,4.4668,4.4668,4.4668,4.4668,4.4668,4.4668,4.4668,4.4668,4.4668,4.4668,4.4668,4.4668,4.4668,4.4408,0.0,0.0,0.0,0.0,0.0,0.0,0.0,0.0,0.0,4.3023,0.0,0.0,0.0,4.3023,0.0,0.0,0.0,0.0,0.0,0.0,0.0,0.0,0.0,4.8709,0.0,5.087,5.1058,5.1229,5.1229,5.1229,5.1229,5.1229,5.1229,5.1229,5.1229,5.1229,5.1229,5.1229,5.1229,5.1229,5.1229,5.1229,5.1229,5.1229,5.1229,5.1229,5.1229,5.1229,5.1229,5.1229,5.1229,5.1229,5.1229,5.1229,5.1229,5.1229,5.1229,5.1229,5.1229,5.1229,5.1229,5.1229,4.8172,4.8172,4.8172,4.8172,4.8172,4.8172,4.8172,4.7754,4.6991,4.5895,4.566,4.5428,4.4824,4.472,4.4668,4.4668,4.4668,4.4668,4.4668,4.4668,4.4668,4.4668,4.4668,4.4668,4.4668,4.4668,4.4668,4.4668,4.4668,4.4668,4.4668,4.4668,4.4668,4.4668,4.4668,4.4668,4.4668,4.4668,4.4668,4.4668,4.4668,4.4668,4.4668,4.4668,4.4668,4.4668,4.4668,4.4668,4.4668,0.0,4.4668,4.4668,0.0,4.4696,4.4643,4.4643,0.0,0.0,0.0,0.0,0.0,0.0,4.3023,4.3023,0.0,0.0,4.3023,4.3023,0.0,0.0,0.0,0.0,0.0,0.0,0.0,0.0,4.5668,4.7202,4.8745,4.9659,5.0632,5.1229,5.1229,5.1229,5.1229,5.1229,5.1229,5.1229,5.1229,5.1229,5.1229,5.1229,5.1229,5.1229,5.1229,5.1229,5.1229,5.1229,5.1229,5.1229,5.1229,5.1229,5.1229,5.1229,5.1229,5.1229,5.1229,5.1229,5.1229,5.1229,5.1229,5.1229,5.1229,5.1229,5.1229,5.1229,4.8041,4.8172,4.8172,4.8172,4.7911,4.7702,4.7702,4.6917,4.613,4.5634,4.5323,4.5009,4.4748,4.4668,4.4668,4.4668,4.4668,4.4668,4.4668,4.4668,4.4668,4.4668,4.4668,4.4668,4.4668,4.4668,4.4668,4.4668,4.4668,4.4668,4.4668,4.4668,4.4668,4.4668,4.4668,4.4668,4.4668,4.4668,4.4668,4.4668,4.4668,4.4668,4.4668,4.4668,4.4668,4.4668,4.4668,4.4668,4.4668,0.0,4.4668,0.0,0.0,0.0,0.0,4.4668,0.0,0.0,0.0,0.0,0.0,0.0,0.0,0.0,4.4016,0.0,4.4016,0.0,0.0,0.0,0.0,0.0,0.0,0.0,4.4915,0.0,0.0,0.0,4.7485,0.0,0.0,0.0,5.1105,0.0,0.0,0.0,5.1229,5.1229,5.1229,5.1229,5.1229,5.1229,5.1229,5.1229,5.1229,5.1229,5.1229,5.1229,5.1229,5.1229,5.1229,5.1229,5.1229,5.1229,5.1229,5.1229,5.1229,5.1229,5.1229,5.1259,5.1648,5.1558,5.1259,5.1648,5.1798,5.1858,4.8462,4.8162,4.7728,4.7728,4.7388,4.7048,4.6891,4.6104,4.5558,4.5346,4.4955,4.4668,4.4668,4.4668,4.4668,4.4668,4.4668,4.4668,4.4668,4.4668,4.4668,4.4668,4.4668,4.4668,4.4668,4.4668,4.4668,4.4668,4.4668,4.4668,4.4668,4.4668,4.4668,4.4668,4.4668,4.4668,4.4668,4.4668,4.4668,4.4668,4.4668,4.4668,4.4668,4.4668,4.4668,4.4668,4.4668,4.4668,4.4668,4.4668,4.4668,0.0,4.4668,0.0,4.4668,0.0,0.0,0.0,4.4668,0.0,0.0,0.0,0.0,0.0,0.0,0.0,0.0,0.0,0.0,0.0,0.0,0.0,0.0,0.0,0.0,4.467,0.0,4.5289,0.0,0.0,0.0,0.0,0.0,0.0,5.087,5.1182,5.1229,5.1229,5.1229,5.1229,5.1229,5.1229,5.1229,5.1229,5.1229,5.1229,5.1229,5.1229,5.1229,5.1229,5.1229,5.1229,5.1229,5.1229,5.1229,5.1229,5.1229,5.1229,5.1319,5.1528,5.2007,5.2007,5.1828,5.2306,5.2456,5.2546,4.964,4.7973,4.6525,4.6525,4.6525,4.6316,4.5767,4.5607,4.5373,4.4826,4.4694,4.4668,4.4668,4.4668,4.4668,4.4668,4.4668,4.4668,4.4668,4.4668,4.4668,4.4668,4.4668,4.4668,4.4668,4.4668,4.4668,4.4668,4.4668,4.4668,4.4668,4.4668,4.4668,4.4668,4.4668,4.4668,4.4668,4.4668,4.4668,4.4668,4.4668,4.4668,4.4668,0.0,4.4668,4.4668,4.4668,0.0,0.0,4.4668,4.4668,0.0,0.0,0.0,0.0,0.0,0.0,0.0,0.0,0.0,0.0,4.4668,0.0,0.0,0.0,0.0,4.4668,0.0,0.0,0.0,0.0,0.0,0.0,0.0,0.0,0.0,0.0,0.0,0.0,0.0,0.0,0.0,0.0,4.9659,5.0076,5.1105,5.1229,5.1229,5.1229,5.1229,5.1229,5.1229,5.1229,5.1229,5.1229,5.1229,5.1229,5.1229,5.1229,5.1229,5.1229,5.1229,5.1229,5.1229,5.1229,5.1229,5.1229,5.1229,5.1588,5.2187,5.2187,5.2576,5.3114,5.3144,5.3144,5.3144,4.856,4.7993,4.7745,4.8515,4.8323,4.7883,4.7279,4.7169,4.6853,4.5927,4.5821,4.5555,4.4776,4.4668,4.4668,4.4668,4.4668,4.4668,4.4668,4.4668,4.4668,4.4668,4.4668,4.4668,4.4668,4.4668,4.4668,4.4668,4.4668,4.4668,4.4668,4.4668,4.4668,4.4668,4.4668,4.4668,4.4668,4.4668,4.4668,4.4694,4.5111,4.5323,4.5271,0.0,4.4668,4.4668,4.4668,4.4668,0.0,4.4668,4.4668,4.4668,4.4668,4.4668,4.4668,4.4668,4.4668,0.0,0.0,0.0,4.4668,4.4668,0.0,0.0,0.0,0.0,0.0,0.0,0.0,0.0,0.0,0.0,0.0,0.0,0.0,0.0,0.0,0.0,0.0,0.0,0.0,0.0,0.0,0.0,0.0,5.0124,5.0822,5.1229,5.1229,5.1229,5.1229,5.1229,5.1229,5.1229,5.1229,5.1229,5.1229,5.1229,5.1229,5.1229,5.1229,5.1229,5.1229,5.1229,5.1229,5.1468,5.1858,5.1858,5.2247,5.2905,5.3354,5.3653,5.3862,5.3862,5.3862,5.3922,4.9141,4.9141,4.9152,4.9085,4.8813,4.8443,4.805,4.8016,4.7763,4.7074,4.6971,4.666,4.5953,4.59,4.5741,4.5342,4.5288,4.5127,4.4722,4.4668,4.4668,4.4668,4.4668,4.4668,4.4668,4.51,4.5288,4.5288,4.5688,4.59,4.59,4.59,4.5635,4.5288,4.5288,4.51,4.4694,4.4957,4.5007,4.5088,0.0,4.5924,0.0,0.0,4.5349,4.5349,0.0,4.5218,4.5007,4.5007,4.485,4.4668,4.4668,4.4668,4.4668,4.4668,4.4668,4.4668,4.4668,4.4668,0.0,4.4668,4.4668,0.0,4.4668,0.0,4.4668,0.0,0.0,0.0,0.0,0.0,0.0,0.0,0.0,0.0,0.0,4.4668,0.0,0.0,0.0,0.0,0.0,0.0,4.8774,4.9513,5.022,5.0822,0.0,0.0,5.1229,5.1229,5.1229,5.1229,5.1229,5.1229,5.1229,5.1229,5.1229,5.1229,5.1229,5.1229,5.1229,5.1229,5.1468,5.1798,5.2217,5.2456,5.2935,5.3593,5.4042,5.4371,5.4551,5.4551,5.4551,5.461,5.1229,5.1229,5.0555,4.8518,4.8167,4.8167,4.8167,4.8167,4.8117,4.8066,4.8066,4.8066,4.8016,4.8016,4.7587,4.6583,4.6426,4.5953,4.483,4.4722,4.4668,4.4668,4.4668,4.4668,4.4668,4.5821,4.6374,4.6374,4.7485,4.8016,4.8016,4.8016,4.7485,4.6478,4.6506,4.5901,4.4855,4.5456,4.5718,4.5715,4.629,4.6525,4.6525,4.6552,4.6552,4.6552,4.6499,4.6133,4.5663,4.5663,4.5297,4.4746,4.472,4.472,4.4774,4.4694,4.4668,4.4668,4.4668,4.4668,4.4668,4.4668,4.4668,0.0,0.0,0.0,4.4668,0.0,0.0,0.0,0.0,0.0,0.0,0.0,0.0,0.0,0.0,0.0,0.0,0.0,0.0,0.0,0.0,4.6374,4.728,4.9366,4.9562,0.0,0.0,0.0,5.1229,5.1229,5.1229,5.1229,5.1229,5.1229,5.1229,5.1229,5.1229,5.1229,5.1229,5.1259,5.1259,5.1319,5.1977,5.2276,5.2336,5.2965,5.3623,5.4251,5.4251,5.464,5.5179,5.5179,5.5179,5.5179,5.1229,5.1229,5.1011,5.046,5.0364,5.0364,5.0364,5.0364,5.0095,4.9317,4.9219,4.8894,4.8066,4.8016,4.7864,4.761,4.6867,4.6269,4.5953,4.5181,4.4668,4.4668,4.4668,4.4668,4.4668,4.5821,4.6374,4.6374,4.7485,4.8016,4.8016,4.8016,4.7864,4.7587,4.814,4.7658,4.6598,4.7244,4.7045,4.6316,4.6891,4.71,4.7153,0.0,4.7754,4.7623,4.6787,4.6395,4.6264,4.6264,4.6159,4.595,4.5532,4.5401,4.5268,4.4798,4.4668,4.4668,4.4668,4.4668,4.4668,4.4668,4.4668,4.4668,0.0,0.0,0.0,0.0,0.0,0.0,0.0,0.0,0.0,0.0,0.0,0.0,0.0,0.0,0.0,4.4668,0.0,0.0,4.5073,4.59,4.6971,4.8296,4.917,0.0,0.0,0.0,0.0,5.1229,5.1229,5.1229,5.1229,5.1229,5.1229,5.1229,5.1229,5.1229,5.1229,5.1738,5.1947,5.1977,5.2636,5.3234,5.3713,5.3862,5.4341,5.494,5.494,5.5029,5.5179,5.5179,5.5179,5.5179,5.2067,5.2067,5.2067,5.2067,5.2067,5.1977,5.1678,5.1887,5.1876,5.1267,5.117,5.0945,5.0324,5.0275,5.0075,4.9595,4.9013,4.8499,4.7978,4.7346,4.7001,4.7001,4.7001,4.7001,4.7001,4.8083,0.0,4.8654,4.9775,5.0275,5.0275,5.0275,5.0025,4.9573,0.0,4.9498,4.8425,4.8572,4.8376,4.8,4.7801,4.7702,0.0,4.8068,4.8172,4.8094,4.7466,4.7074,4.6865,4.6865,4.6682,4.6421,4.6107,4.6003,4.5872,4.5297,4.5059,4.5062,4.4746,4.4668,4.4668,4.4668,4.4668,4.4668,4.4668,4.4668,4.4668,0.0,4.4668,4.4668,0.0,0.0,0.0,0.0,0.0,0.0,0.0,0.0,0.0,0.0,4.4668,0.0,4.4668,4.5288,4.6111,4.7229,4.7841,0.0,0.0,0.0,0.0,5.1182,5.1229,5.1229,5.1229,5.1229,5.1229,5.1229,5.1229,5.1379,5.1648,5.2037,5.2366,5.2665,5.3354,5.3862,5.4221,5.4521,5.485,5.5179,5.5179,5.5179,5.5179,5.5179,5.5179,5.5179,5.3174,5.3174,5.3174,5.3174,5.3264,5.3114,5.2546,5.2875,5.3174,5.3174,5.3174,5.3174,5.3174,5.3174,5.2802,5.1879,5.1678,5.1193,5.0266,5.0057,5.0005,5.0005,5.0005,5.0005,5.0005,5.104,5.1628,5.1628,5.2655,5.3174,5.3174,5.3174,0.0,0.0,0.0,0.0,0.0,4.972,4.969,5.0041,4.9072,4.8669,4.8637,4.8463,4.8405,4.8405,4.823,4.7858,4.744,4.744,4.7127,4.6682,4.6604,4.6578,4.6473,4.5898,4.5741,4.5611,4.5009,4.4853,4.4826,4.4748,4.4668,4.4668,4.4668,4.4668,4.4668,4.4668,4.4668,4.4668,0.0,0.0,0.0,0.0,0.0,0.0,0.0,0.0,0.0,0.0,0.0,0.0,4.4668,4.4668,4.5181,4.6321,0.0,0.0,0.0,0.0,0.0,5.1182,5.1229,5.1105,5.0964,0.0,5.1165,5.1113,5.1255,5.1678,5.2336,5.2426,5.2785,5.3354,5.4042,5.4341,5.4371,5.497,5.5179,5.5179,5.5179,5.5179,5.5179,5.5179,5.5179,5.5179,5.3174,5.3174,5.3174,5.3174,5.3653,5.3982,5.3892,5.3473,5.3174,5.3174,5.3174,5.3174,5.3174,5.3174,5.3125,5.293,5.2079,5.1527,5.1295,5.0474,5.0005,5.0005,5.0005,5.0005,5.0005,5.104,5.1628,5.1628,5.2655,5.3174,5.3174,5.3174,0.0,0.0,0.0,0.0,5.2728,5.1694,0.0,5.1347,5.1155,5.11,5.0989,4.9985,4.9589,4.9475,4.8553,4.812,4.8041,4.8041,4.7963,4.7806,4.7336,4.7179,4.7074,4.6499,4.6316,4.6212,4.5637,4.5454,4.5294,4.4798,4.4668,4.4668,4.4668,4.4668,4.4668,4.4668,4.4668,4.4668,4.4668,0.0,0.0,0.0,0.0,0.0,0.0,0.0,0.0,0.0,0.0,4.4668,0.0,4.4668,4.5181,0.0,0.0,0.0,0.0,0.0,0.0,0.0,5.1229,0.0,0.0,0.0,5.1042,5.0719,5.1624,5.2366,5.3025,5.3593,5.3922,5.4072,5.473,5.5029,5.5029,5.5149,5.5179,5.5179,5.5179,5.5179,5.5179,5.5179,5.5179,5.5179,5.4221,5.4221,5.4221,5.4221,5.4491,5.473,5.473,5.4431,5.4221,5.4221,5.4221,5.4221,5.4221,5.4221,5.4221,5.4221,5.3743,5.3491,5.3491,5.3004,5.2697,5.2697,5.2697,5.2697,5.2697,5.3208,5.3491,5.3491,5.3943,5.4221,5.4221,5.4221,0.0,5.4221,0.0,5.4577,0.0,0.0,0.0,5.2537,5.1946,5.1674,5.162,5.1072,5.0462,4.9901,4.9985,4.9616,4.9103,4.9103,4.8669,4.8236,4.8554,4.8246,4.7649,4.71,4.6917,4.6787,4.6212,4.6081,4.6003,4.5715,4.5401,4.5192,4.5192,4.4903,4.4668,4.4668,4.4668,4.4668,4.4668,4.4668,0.0,0.0,0.0,0.0,0.0,0.0,0.0,0.0,0.0,0.0,0.0,0.0,0.0,0.0,0.0,0.0,0.0,0.0,0.0,0.0,0.0,0.0,0.0,0.0,0.0,5.1434,5.2275,5.3054,5.3713,5.4072,5.4401,5.473,5.5059,5.5179,5.5179,5.5179,5.5179,5.5179,5.5179,5.5179,5.5179,5.5179,5.5179,5.5179,5.5179,5.5179,5.5179,5.5179,5.5179,5.5179,5.5179,5.5179,5.5179,5.5179,5.5179,5.5179,5.5179,5.5179,5.5179,5.5179,5.5179,5.5179,5.5179,5.5179,5.5179,5.5179,5.5179,5.5179,5.5179,5.5179,5.5179,5.5179,5.5179,5.5119,0.0,0.0,0.0,0.0,0.0,0.0,0.0,0.0,5.3808,5.3675,5.2832,5.2459,5.2405,5.2162,5.1456,5.074,5.1456,5.1072,5.0294,5.0573,4.9872,4.9072,4.9702,4.9274,4.8416,4.7707,4.7519,4.7388,4.6813,4.6656,4.663,4.6499,4.6133,4.582,4.582,4.5428,4.5062,4.4957,4.4772,4.4668,4.4668,4.4668,0.0,0.0,0.0,0.0,0.0,0.0,0.0,0.0,0.0,0.0,4.4668,0.0,0.0,0.0,0.0,0.0,0.0,0.0,0.0,0.0,0.0,5.0834,5.0714,0.0,5.224,5.2316,5.3047,5.3743,5.4431,5.4431,5.47,5.5179,5.5179,5.5179,5.5179,5.5179,5.5179,5.5179,5.5179,5.5179,5.5179,5.5179,5.5179,5.5179,5.5179,5.5179,5.5179,5.5179,5.5179,5.5179,5.5179,5.5179,5.5179,5.5179,5.5179,5.5179,5.5179,5.5179,5.5179,5.5179,5.5179,5.5179,5.5179,5.5179,5.5179,5.5179,5.5179,5.5179,5.5179,5.5179,5.5179,0.0,5.5179,5.488,0.0,0.0,0.0,0.0,0.0,0.0,0.0,5.5078,5.5027,5.5027,5.4926,5.4875,5.4743,5.3652,5.3203,5.2963,5.2,5.162,5.1674,5.2697,5.2323,5.1182,5.0182,4.9816,4.9532,4.8442,4.812,4.7989,4.7414,4.7257,4.7127,4.6604,4.6447,4.6395,4.6395,4.6342,4.6159,4.5663,4.5114,4.4668,4.4668,4.4668,4.4668,0.0,0.0,0.0,0.0,0.0,4.4668,4.4668,0.0,0.0,0.0,4.4668,0.0,0.0,4.5342,0.0,0.0,0.0,0.0,4.9659,0.0,4.9606,4.9195,5.1209,5.2318,5.2566,5.3594,5.4461,5.5089,5.5089,5.5119,5.5179,5.5179,5.5179,5.5179,5.5179,5.5179,5.5179,5.5179,5.5179,5.5179,5.5179,5.5179,5.5179,5.5179,5.5179,5.5179,5.5179,5.5179,5.5179,5.5179,5.5179,5.5179,5.5179,5.5179,5.5179,5.5179,5.5179,5.5179,5.5179,5.5179,5.5179,5.5179,5.5179,5.5179,5.5179,5.5179,5.5179,5.5179,5.5179,5.5179,0.0,0.0,0.0,0.0,0.0,0.0,0.0,0.0,5.5179,5.5179,5.5179,5.5179,5.5179,5.5179,5.5179,5.5128,5.4641,5.4016,5.3413,5.3704,5.3308,5.2886,5.4068,5.3256,5.1729,5.1946,5.1511,5.074,4.9532,4.9217,4.8992,4.8058,4.7832,4.778,4.7571,4.7257,4.6996,4.6996,4.6734,4.6421,4.6186,4.595,4.5767,4.5767,4.5506,4.5216,0.0,0.0,0.0,0.0,0.0,0.0,4.4668,0.0,4.4668,0.0,0.0,0.0,0.0,0.0,0.0,0.0,0.0,0.0,4.8596,0.0,5.0779,4.9968,5.223,5.3456,5.3562,5.438,5.494,5.5179,5.5179,5.5179,5.5179,5.5179,5.5179,5.5179,5.5179,5.5179,5.5179,5.5179,5.5179,5.5179,5.5179,5.5179,5.5179,5.5179,5.5179,5.5179,5.5179,5.5179,5.5179,5.5179,5.5179,5.5179,5.5179,5.5179,5.5179,5.5179,5.5179,5.5179,5.5179,5.5179,5.5179,5.5179,5.5179,5.5179,5.5179,5.5179,0.0,5.5179,5.5179,5.5179,5.5179,5.5179,0.0,0.0,0.0,0.0,0.0,5.5179,5.5179,5.5179,5.5179,5.5179,5.5179,5.5179,5.5179,5.5179,5.5179,5.4692,5.4016,5.4896,5.4641,5.4068,5.4926,5.4097,5.2832,5.3256,5.2857,5.1946,5.0796,5.0406,5.0238,4.9445,4.9217,4.9103,4.8784,4.8638,4.8489,4.8175,4.8083,4.7905,4.7354,4.7139,4.6895,4.6586,4.6159,4.5872,4.5872,0.0,0.0,0.0,4.5114,0.0,0.0,4.4826,4.4668,4.4668,4.4824,0.0,0.0,0.0,0.0,0.0,0.0,0.0,0.0,0.0,0.0,0.0,5.2989,5.4311,5.4491,5.497,5.5179,5.5179,5.5179,5.5179,5.5179,5.5179,5.5179,5.5179,5.5179,5.5179,5.5179,5.5179,5.5179,5.5179,5.5179,5.5179,5.5179,5.5179,5.5179,5.5179,5.5179,5.5179,5.5179,5.5179,5.5179,5.5179,5.5179,5.5179,5.5179,5.5179,5.5179,5.5179,5.5179,5.5179,5.5179,5.5179,5.5179,5.5179,0.0,0.0,5.5179,5.5179,5.5179,5.5179,5.5179,0.0,0.0,5.4221,0.0,5.4581,5.5179,5.5179,5.5179,5.5179,5.5179,5.5179,5.5179,5.5179,5.5179,5.5179,5.5179,5.5179,5.5179,5.5179,5.5179,5.5179,5.5179,5.5179,5.4976,5.3756,5.3413,5.315,5.2,5.1674,5.1674,5.1674,5.1674,5.1347,5.0182,5.0796,5.1347,5.0126,5.0796,5.1179,4.939,4.8572,4.7837,4.6698,4.6473,4.6473,4.6473,0.0,0.0,0.0,0.0,0.0,4.5555,4.5033,4.4668,4.4668,4.5216,0.0,0.0,0.0,0.0,0.0,0.0,0.0,4.8056,4.9211,0.0,5.08,5.3077,5.4551,5.5179,5.5179,5.5179,5.5179,5.5179,5.5179,5.5179,5.5179,5.5179,5.5179,5.5179,5.5179,5.5179,5.5179,5.5179,5.5179,5.5179,5.5179,5.5179,5.5179,5.5179,5.5179,5.5179,5.5179,5.5179,5.5179,5.5179,5.5179,5.5179,5.5179,5.5179,5.5179,5.5179,5.5179,0.0,5.5179,5.5179,0.0,5.5179,5.5179,5.5179,5.5179,5.5179,5.5179,5.5179,5.5179,5.5179,0.0,0.0,0.0,5.488,5.4999,5.5179,5.5179,5.5179,5.5179,5.5179,5.5179,5.5179,5.5179,5.5179,5.5179,5.5179,5.5179,5.5179,5.5179,5.5179,5.5179,5.5179,5.5179,5.5128,5.4743,5.4641,5.4406,5.3203,5.2857,5.2697,5.1892,5.1674,5.162,5.1237,5.0796,5.0573,5.1017,5.0796,5.0518,5.085,5.0106,4.9247,4.8881,4.9144,4.92,4.8402,4.7968,0.0,0.0,0.0,0.0,0.0,4.6029,4.5924,4.5924,4.6107,0.0,0.0,0.0,0.0,0.0,0.0,0.0,0.0,5.1626,0.0,5.2041,5.3955,5.497,5.5179,5.5179,5.5179,5.5179,5.5179,5.5179,5.5179,5.5179,5.5179,5.5179,5.5179,5.5179,5.5179,5.5179,5.5179,5.5179,5.5179,5.5179,5.5179,5.5179,5.5179,5.5179,5.5179,5.5179,5.5179,5.5179,5.5179,5.5179,5.5179,5.5179,5.5179,5.5179,5.5179,0.0,5.5179,5.5179,5.5179,5.5179,5.5179,5.5179,5.5179,5.5179,5.5179,5.5179,5.5179,0.0,5.5179,5.5179,5.5179,5.5179,5.5179,5.5179,5.5179,5.5179,5.5179,5.5179,5.5179,5.5179,5.5179,5.5179,5.5179,5.5179,5.5179,5.5179,5.5179,5.5179,5.5179,5.5179,5.5179,5.5179,5.5179,5.5179,5.5179,5.5027,5.4304,5.4068,5.3912,5.3203,5.2992,5.2886,5.243,5.2108,5.2108,5.2832,5.243,5.2,5.2269,5.1729,5.1072,5.0629,5.0876,5.0896,5.0216,4.9776,4.95,4.95,0.0,0.0,0.0,0.0,0.0,0.0,4.6682,4.6813,0.0,0.0,0.0,0.0,0.0,0.0,4.931,5.1449,0.0,5.1566,5.3552,5.4509,5.4509,5.4976,5.5179,5.5179,5.5179,5.5179,5.5179,5.5179,5.5179,5.5179,5.5179,5.5179,5.5179,5.5179,5.5179,5.5179,5.5179,5.5179,5.5179,5.5179,5.5179,5.5179,5.5179,5.5179,5.5179,5.5179,5.5179,5.5179,5.5179,5.5179,5.5179,5.5179,5.5179,5.5179,5.5179,0.0,0.0,5.5179,5.5179,5.5179,5.5179,5.5179,5.5179,5.5179,5.5179,5.5179,5.5179,5.5179,5.5179,5.5179,5.5179,5.5179,5.5179,5.5179,5.5179,5.5179,5.5179,5.5179,5.5179,5.5179,5.5179,5.5179,5.5179,5.5179,5.5179,5.5179,5.5179,5.5179,5.5179,5.5179,5.5179,5.5179,5.5179,5.5179,5.5179,5.5179,5.5179,5.5179,5.5179,5.4926,5.3808,5.4355,5.5179,5.5078,5.5078,5.4794,5.3756,5.3466,5.3097,5.2,5.192,5.192,5.1837,5.1729,5.1674,5.1674,0.0,0.0,0.0,0.0,0.0,0.0,4.7074,4.733,0.0,0.0,0.0,0.0,0.0,4.7681,4.8437,4.9475,5.007,5.0126,5.2323,5.3466,5.3518,5.4641,5.5179,5.5179,5.5179,5.5179,5.5179,5.5179,5.5179,5.5179,5.5179,5.5179,5.5179,5.5179,5.5179,5.5179,5.5179,5.5179,5.5179,0.0,0.0,5.5179,5.5179,5.5179,5.5179,5.5179,5.5179,5.5179,5.5179,5.5179,5.5179,5.5179,5.5179,5.5179,5.5179,5.5179,5.5179,5.5179,5.5179,5.5179,5.5179,5.5179,5.5179,5.5179,5.5179,5.5179,5.5179,5.5179,5.5179,5.5179,5.5179,5.5179,5.5179,5.5179,5.5179,5.5179,5.5179,5.5179,5.5179,5.5179,5.5179,5.5179,5.5179,5.5179,5.5179,5.5179,5.5179,5.5179,5.5179,5.5179,5.5179,5.5179,5.5179,5.5179,5.5179,5.5179,5.5179,5.5179,5.5179,5.5128,5.4845,5.4976,5.4976,5.4016,5.386,5.4016,5.4641,5.4016,5.3308,5.3045,5.3756,5.4097,5.315,5.2269,5.1674,5.1674,5.0045,0.0,0.0,4.8294,4.81,4.7838,4.7911,4.7989,0.0,0.0,0.0,0.0,4.8216,4.8855,5.0823,5.1127,5.1674,5.2537,5.315,5.386,5.4794,5.5078,5.5179,5.5179,5.5179,5.5179,5.5179,5.5179,5.5179,5.5179,5.5179,5.5179,5.5179,5.5179,5.5179,5.5179,5.5179,5.5179,5.5179,5.5179,5.5179,5.5179,5.5179,5.5179,5.5179,5.5179,5.5179,5.5179,5.5179,5.5179,5.5179,5.5179,5.5179,5.5179,5.5179,5.5179,5.5179,5.5179,5.5179,5.5179,5.5179,5.5179,5.5179,5.5179,5.5179,5.5179,5.5179,5.5179,5.5179,5.5179,5.5179,5.5179,5.5179,5.5179,5.5179,5.5179,5.5179,5.5179,5.5179,5.5179,5.5179,5.5179,5.5179,5.5179,5.5179,5.5179,5.5179,5.5179,5.5179,5.5179,5.5179,5.5179,5.5179,5.5179,5.5179,5.5179,5.5179,5.5179,5.5179,5.5179,5.5179,5.5179,5.5027,5.4355,5.4252,5.4406,5.5078,5.4692,5.4252,5.4252,5.4743,5.4976,5.4355,5.3704,5.3337,5.3337,5.219,0.0,5.0629,5.0097,4.9616,4.9045,4.8521,4.8405,4.8957,4.8521,0.0,4.9702,4.9274,4.9331,5.0097,5.0601,5.1182,5.1755,5.2323,5.3203,5.4355,5.4355,5.4355,5.4406,5.4976,5.5179,5.5179,5.5179,5.5179,5.5179,5.5179,5.5179,5.5179,5.5179,5.5179,5.5179,5.5179,5.5179,5.5179,5.5179,5.5179,5.5179,5.5179,5.5179,5.5179,5.5179,5.5179,5.5179,5.5179,5.5179,5.5179,5.5179,5.5269,5.5329,5.5329,5.5418,5.5388,5.5209,5.5179,5.5179,5.5179,5.5179,5.5179,5.5179,5.5179,5.5179,5.5179,5.5179,5.5179,5.5179,5.5179,5.5179,5.5179,5.5179,5.5179,5.5179,5.5179,5.5179,5.5179,5.5179,5.5179,5.5179,5.5179,5.5179,5.5179,5.5179,5.5179,5.5179,5.5179,5.5179,5.5179,5.5179,5.5179,5.5179,5.5179,5.5179,5.5179,5.5179,5.5179,5.5179,5.5179,5.5179,5.5179,5.5179,5.5179,5.5179,5.5179,5.5179,5.5179,5.5179,5.5179,5.5179,5.5179,5.5027,5.4926,5.4926,0.0,5.4304,5.3256,5.2269,5.1292,5.0238,4.9274,4.9103,5.0097,4.9274,4.9616,5.1565,5.074,4.9702,4.8784,4.9646,5.0182,5.0182,5.1347,5.243,5.3413,5.3413,5.3518,5.3675,5.4743,5.5179,5.5179,5.5179,5.5179,5.5179,5.5179,5.5179,5.5179,5.5179,5.5179,5.5179,5.5179,5.5179,5.5179,5.5179,5.5179,5.5179,5.5179,5.5179,5.5179,5.5179,5.5179,5.5179,5.5179,5.5179,5.5179,5.5179,5.5688,5.6017,5.6017,5.6496,5.6346,5.5269,5.5179,5.5179,5.5179,5.5179,5.5179,5.5179,5.5179,5.5179,5.5179,5.5179,5.5179,5.5179,5.5179,5.5179,5.5179,5.5179,5.5179,5.5179,5.5179,5.5179,5.5179,5.5179,5.5179,5.5179,5.5179,5.5179,5.5179,5.5179,5.5179,5.5179,5.5179,5.5179,5.5179,5.5179,5.5179,5.5179,5.5179,5.5179,5.5179,5.5179,5.5179,5.5179,5.5179,5.5179,5.5179,5.5179,5.5179,5.5179,5.5179,5.5179,5.5179,5.5179,5.5179,5.5179,5.5179,5.4355,5.3675,5.3675,0.0,5.2162,5.2,5.1811,5.162,5.1456,5.1237,5.1237,5.1401,5.1237,5.132,5.1674,5.1511,5.1347,5.1127,5.1292,5.1401,5.1401,5.2537,5.3203,5.3413,5.3413,5.3912,5.4926,5.5128,5.5179,5.5179,5.5179,5.5179,5.5179,5.5179,5.5179,5.5179,5.5179,5.5179,5.5179,5.5179,5.5179,5.5179,5.5179,5.5179,5.5179,5.5179,5.5179,5.5179,5.5179,5.5179,5.5329,5.5658,5.5718,5.5837,5.6166,5.6496,5.6675,5.6675,5.6944,5.6855,5.6256,5.6226,5.6226,5.6226,5.6226,5.6226,5.6226,5.6226,5.6226,5.6226,5.5897,5.5718,5.5718,5.5359,5.5179,5.5179,5.5179,5.5179,5.5179,5.5179,5.5179,5.5179,5.5179,5.5179,5.5179,5.5179,5.5179,5.5179,5.5179,5.5179,5.5179,5.5179,5.5179,5.5179,5.5179,5.5179,5.5179,5.5179,5.5179,5.5179,5.5179,5.5179,5.5179,5.5179,5.5179,5.5179,5.5179,5.5179,5.5179,5.5179,5.5179,5.5179,5.5179,5.5179,5.5179,5.5179,5.4743,0.0,0.0,5.3912,5.36,5.36,5.2992,5.2591,5.2591,5.2054,5.1946,5.2537,5.2054,5.2244,5.3547,5.2992,5.2939,5.3547,5.2352,5.1674,5.1674,5.2216,5.2484,5.2484,5.3097,5.3675,5.4252,5.4896,5.5179,5.5179,5.5179,5.5179,5.5179,5.5179,5.5179,5.5179,5.5179,5.5179,5.5179,5.5179,5.5179,5.5179,5.5179,5.5179,5.5179,5.5179,5.5179,5.5239,5.5388,5.5418,5.5658,5.6286,5.6376,5.6555,5.7034,5.7244,5.7334,5.7334,5.7483,5.7573,5.7573,5.7573,5.7423,5.7094,5.7094,5.7094,5.7094,5.7094,5.7094,5.7094,5.6615,5.6376,5.6376,5.5867,5.5628,5.5628,5.5628,5.5628,5.5628,5.5628,5.5628,5.5628,5.5628,5.5628,5.5628,5.5628,5.5538,5.5418,5.5418,5.5329,5.5179,5.5179,5.5179,5.5179,5.5179,5.5179,5.5179,5.5179,5.5179,5.5179,5.5179,5.5179,5.5179,5.5179,5.5179,5.5179,5.5179,5.5179,5.5179,5.5179,5.5179,5.5179,5.5179,5.5179,5.5179,5.5179,0.0,0.0,0.0,5.5179,5.5179,5.5179,5.4355,5.3808,5.3808,5.3045,5.2886,5.3756,5.2992,5.3337,5.5078,5.4068,5.3675,5.4385,5.315,5.2244,5.1674,5.1946,5.2108,5.2108,5.2963,5.3571,5.386,5.4794,5.5179,5.5179,5.5179,5.5269,5.5418,5.5418,5.5508,5.5628,5.5628,5.5628,5.5628,5.5628,5.5628,5.5628,5.5179,5.5179,5.5179,5.5179,5.5179,5.5388,5.6017,5.6158,5.6316,5.6944,5.7034,5.7034,5.7094,5.7663,5.8052,5.8052,5.859,5.8949,5.8949,5.8949,5.8411,5.7154,5.7094,5.7094,5.7094,5.7094,5.7094,5.7094,5.7064,5.7034,5.7034,5.6974,5.6944,5.6944,5.6944,5.6944,5.6944,5.6944,5.6944,5.6944,5.6944,5.6944,5.6944,5.6944,5.6585,5.6158,5.6158,5.5718,5.5179,5.5179,5.5179,5.5179,5.5179,5.5179,5.5179,5.5179,5.5179,5.5179,5.5179,5.5179,5.5179,5.5179,5.5179,5.5179,5.5179,5.5179,5.5179,5.5179,5.5179,5.5179,5.5179,5.5179,5.5179,5.5179,0.0,0.0,5.5179,5.5179,5.5179,5.5179,5.5128,5.5078,5.5078,5.4976,5.4976,5.5078,5.4976,5.5027,5.5179,5.4068,5.2992,5.2,5.389,5.389,5.1729,5.2751,5.3256,5.3308,5.3361,5.3964,5.5078,5.5128,5.5179,5.5179,5.5179,5.5538,5.6158,5.6158,5.6436,5.6944,5.6944,5.6944,5.6944,5.6944,5.6944,5.6944,5.5179,5.5179,5.5179,5.5179,5.5538,5.5948,5.6188,5.6496,5.6974,5.7633,5.7723,5.7872,5.8291,5.859,5.874,5.874,5.8949,5.9099,5.9099,5.9099,5.889,5.8351,5.8351,5.8351,5.8351,5.8351,5.8351,5.8351,5.7932,5.7723,5.7723,5.7304,5.7094,5.7094,5.7094,5.7094,5.7094,5.7094,5.7094,5.7094,5.7094,5.7094,5.7094,5.7094,5.6944,5.6735,5.6735,5.6585,5.6376,5.6376,5.6107,5.5807,5.5807,5.5508,5.5179,5.5179,5.5179,5.5179,5.5179,5.5179,5.5179,5.5179,5.5179,5.5179,5.5179,5.5179,5.5179,5.5179,5.5179,5.5179,5.5179,5.5179,5.5179,5.5179,0.0,5.5179,5.5179,5.5179,5.5179,5.5179,5.5179,5.5179,5.5179,5.5179,5.5179,5.5179,5.5179,5.5179,5.5179,5.4743,5.3964,5.2779,5.4739,5.4508,5.1757,5.2804,5.3413,5.3413,5.4583,5.5389,5.5807,5.6196,5.6376,5.6376,5.6376,5.6526,5.6735,5.6735,5.6885,5.7094,5.7094,5.7094,5.7094,5.7094,5.7094,5.7094,5.5179,5.5179,5.5269,5.5478,5.5867,5.6316,5.6735,5.7154,5.7663,5.8351,5.8441,5.859,5.9069,5.9099,5.9099,5.9099,5.9099,5.9099,5.9099,5.9099,5.9099,5.9099,5.9099,5.9099,5.9099,5.9099,5.9099,5.9099,5.865,5.8441,5.8411,5.7932,5.7723,5.7723,5.7723,5.7723,5.7723,5.7723,5.7723,5.7723,5.7723,5.7723,5.7723,5.7723,5.7603,5.7423,5.7423,5.7274,5.7094,5.7094,5.6825,5.6466,5.6466,5.6166,5.5748,5.5568,5.5508,5.5448,5.5239,5.5179,5.5179,5.5179,5.5179,5.5179,5.5179,5.5179,5.5179,5.5179,5.5179,5.5179,5.5179,5.5179,5.5179,5.5179,5.5179,5.5179,5.5179,5.5179,5.5179,5.5179,5.5179,5.5179,5.5179,5.5179,5.5179,5.5179,5.5179,5.5117,5.4989,5.5326,5.5026,5.4076,5.5597,5.5522,5.3407,5.4182,5.455,5.455,5.5835,5.6466,5.6466,5.6885,5.7094,5.7094,5.7094,5.7214,5.7423,5.7423,5.7543,5.7723,5.7723,5.7723,5.7723,5.7723,5.7723,5.7693,5.5209,5.5209,5.5418,5.6128,5.6248,5.6615,5.7932,5.8112,5.8381,5.9009,5.9099,5.9099,5.9099,5.9099,5.9099,5.9099,5.9099,5.9099,5.9099,5.9099,5.9099,5.9099,5.9099,5.9099,5.9099,5.9099,5.9099,5.9099,5.9099,5.9099,5.9099,5.9099,5.9099,5.9099,5.9099,5.9099,5.9099,5.9099,5.9099,5.9099,5.9099,5.9099,5.9099,5.9099,5.871,5.8141,5.8141,5.7693,5.7124,5.7124,5.7094,5.7094,5.7094,5.7094,5.6974,5.6346,5.6248,5.6047,5.5388,5.5209,5.5209,5.5179,5.5179,5.5179,5.5179,5.5179,5.5179,5.5179,5.5179,5.5179,5.5179,5.5179,5.5179,5.5179,5.5179,5.5179,5.5179,5.5179,5.5179,5.5179,5.5179,5.5179,5.5209,5.5209,5.5209,5.5209,5.5209,5.4989,5.442,5.5538,5.5968,5.5438,5.6515,5.7094,5.7094,5.7094,5.7094,5.7094,5.7094,5.7094,5.7094,5.7094,5.7124,5.7124,5.7124,5.7483,5.8141,5.8141,5.853,5.9099,5.9099,5.9099,5.9099,5.9099,5.9099,5.9009,5.5777,5.5867,5.6077,5.6705,5.7214,5.7663,5.8052,5.853,5.889,5.9069,5.9099,5.9099,5.9099,5.9099,5.9099,5.9099,5.9099,5.9099,5.9099,5.9099,5.9099,5.9099,5.9099,5.9099,5.9099,5.9099,5.9099,5.9099,5.9099,5.9099,5.9099,5.9099,5.9099,5.9099,5.9099,5.9099,5.9099,5.9099,5.9099,5.9099,5.9099,5.9099,5.9099,5.9099,5.8979,5.88,5.88,5.868,5.8501,5.8501,5.8201,5.7723,5.7244,5.7094,5.7064,5.6885,5.6825,5.6765,5.6585,5.6526,5.6316,5.5418,5.5179,5.5179,5.5179,5.5179,5.5179,5.5179,5.5179,5.5179,5.5179,5.5179,5.5179,5.5179,5.5179,5.5179,5.5179,5.5179,5.5179,5.5179,5.5179,5.5359,5.5888,5.5867,5.6077,5.6496,5.6137,5.5854,5.5642,5.6012,5.6332,5.6591,5.7414,5.7812,5.7812,5.7334,5.7094,5.7094,5.7573,5.7812,5.7842,5.8291,5.8501,5.8501,5.8501,5.862,5.88,5.88,5.8919,5.9099,5.9099,5.883,5.8411,5.8411,5.8112,5.7663,5.6107,5.6376,5.6735,5.7393,5.7842,5.8201,5.8471,5.886,5.9099,5.9099,5.9099,5.9099,5.9099,5.9099,5.9099,5.9099,5.9099,5.9099,5.9099,5.9099,5.9099,5.9099,5.9099,5.9099,5.9099,5.9099,5.9099,5.9099,5.9099,5.9099,5.9099,5.9099,5.9099,5.9099,5.9099,5.9099,5.9099,5.9099,5.9099,5.9099,5.9099,5.9099,5.9099,5.9099,5.9099,5.9099,5.9099,5.9099,5.9099,5.9099,5.883,5.8441,5.8022,5.7902,5.7842,5.7573,5.7513,5.7453,5.7154,5.7094,5.6915,5.6137,5.5927,5.5927,5.5927,5.5927,5.5927,5.5927,5.5927,5.5927,5.5927,5.5927,5.5927,5.5927,5.5927,5.5927,5.5927,5.5927,5.5927,5.5927,5.5927,5.6107,5.6496,5.6526,5.6705,5.7064,5.6735,5.6645,5.6944,5.6675,5.6825,5.7483,5.7633,5.7723,5.7723,5.7304,5.7363,5.7902,5.8321,5.853,5.853,5.8919,5.9099,5.9099,5.9099,5.8949,5.871,5.871,5.856,5.8321,5.8321,5.8052,5.7723,5.7723,5.7453,5.7064,5.6368,5.6795,5.7393,5.8082,5.8201,5.8411,5.9009,5.9099,5.9099,5.9099,5.9099,5.9099,5.9099,5.9099,5.9099,5.9099,5.9099,5.9099,5.9099,5.9099,5.9099,5.9099,5.9099,5.9099,5.9099,5.9099,5.9099,5.9099,5.9099,5.9099,5.9099,5.9099,5.9099,5.9099,5.9099,5.9099,5.9099,5.9099,5.9099,5.9099,5.9099,5.9099,5.9099,5.9099,5.9099,5.9099,5.9099,5.9099,5.9099,5.9099,5.9099,5.9099,5.9099,5.9099,5.8979,5.8381,5.8201,5.8082,5.7453,5.7274,5.7274,5.7274,5.7274,5.7244,5.7124,5.7094,5.7094,5.7094,5.7094,5.7094,5.7094,5.7094,5.7094,5.7094,5.7094,5.7094,5.7094,5.7094,5.7094,5.7094,5.7094,5.7124,5.7184,5.7244,5.7244,5.7184,5.7184,5.7453,5.8082,5.7513,5.7513,5.8201,5.7543,5.7184,5.7184,5.7124,5.7723,5.8919,5.8919,5.8919,5.8919,5.8919,5.8919,5.8919,5.8919,5.859,5.8022,5.8022,5.7663,5.7094,5.7094,5.7064,5.7004,5.7004,5.6974,5.6855,5.7513,5.7812,5.8112,5.877,5.889,5.8949,5.9069,5.9099,5.9099,5.9099,5.9099,5.9099,5.9099,5.9099,5.9099,5.9099,5.9099,5.9099,5.9099,5.9099,5.9099,5.9099,5.9099,5.9099,5.9099,5.9099,5.9099,5.9099,5.9099,5.9099,5.9099,5.9099,5.9099,5.9099,5.9099,5.9099,5.9099,5.9099,5.9099,5.9099,5.9099,5.9099,5.9099,5.9099,5.9099,5.9099,5.9099,5.9099,5.9099,5.9099,5.9099,5.9099,5.9099,5.9099,5.9069,5.8949,5.889,5.886,5.871,5.868,5.868,5.868,5.868,5.8381,5.7334,5.7094,5.7094,5.7094,5.7094,5.7094,5.7094,5.7094,5.7094,5.7094,5.7094,5.7094,5.7094,5.7094,5.7094,5.7094,5.7094,5.7304,5.7842,5.8351,5.8471,5.7932,5.7902,5.7962,5.8112,5.7992,5.8201,5.886,5.8231,5.7902,5.7902,5.7363,5.7244,5.7543,5.7543,5.7543,5.7543,5.7543,5.7543,5.7543,5.7543,5.7453,5.7334,5.7334,5.7244,5.7094,5.7094,5.6795,5.6428,5.6428,5.6047,5.5568,5.7932,5.8381,5.871,5.9039,5.9099,5.9099,5.9099,5.9099,5.9099,5.9099,5.9099,5.9099,5.9099,5.9099,5.9099,5.9099,5.9099,5.9099,5.9099,5.9099,5.9099,5.9099,5.9099,5.9099,5.9099,5.9099,5.9099,5.9099,5.9099,5.9099,5.9099,5.9099,5.9099,5.9099,5.9099,5.9099,5.9099,5.9099,5.9099,5.9099,5.9099,5.9099,5.9099,5.9099,5.9099,5.9099,5.9099,5.9099,5.9099,5.9099,5.9099,5.9099,5.9099,5.9099,5.9099,5.9099,5.9099,5.9099,5.9099,5.9099,5.9099,5.9099,5.9099,5.8919,5.8201,5.8052,5.8052,5.8052,5.8052,5.8052,5.8052,5.8052,5.8052,5.8052,5.8052,5.8052,5.8052,5.8052,5.8052,5.8052,5.8052,5.8201,5.856,5.889,5.8949,5.862,5.859,5.859,5.859,5.8291,5.8291,5.862,5.7992,5.7633,5.7633,5.6974,5.6645,5.6645,5.6944,5.7094,5.7094,5.7094,5.7094,5.7094,5.7094,5.6915,5.6645,5.6645,5.6466,5.6196,5.6196,5.5987,5.5718,5.5718,5.5478,5.5179,5.8171,5.874,5.9099,5.9099,5.9099,5.9099,5.9099,5.9099,5.9099,5.9099,5.9099,5.9099,5.9099,5.9099,5.9099,5.9099,5.9099,5.9099,5.9099,5.9099,5.9099,5.9099,5.9099,5.9099,5.9099,5.9099,5.9099,5.9099,5.9099,5.9099,5.9099,5.9099,5.9099,5.9099,5.9099,5.9099,5.9099,5.9099,5.9099,5.9099,5.9099,5.9099,5.9099,5.9099,5.9099,5.9099,5.9099,5.9099,5.9099,5.9099,5.9099,5.9099,5.9099,5.9099,5.9099,5.9099,5.9099,5.9099,5.9099,5.9099,5.9099,5.9099,5.9099,5.9099,5.9099,5.9099,5.9099,5.9099,5.9099,5.9099,5.9099,5.9099,5.9099,5.9099,5.9099,5.9099,5.9099,5.9099,5.9099,5.9099,5.9099,5.9099,5.9099,5.9099,5.9099,5.9099,5.9099,5.9099,5.9099,5.859,5.8291,5.8291,5.7633,5.7274,5.7274,5.6645,5.6316,5.6346,5.6855,5.6974,5.6765,5.6765,5.6765,5.6765,5.6765,5.6466,5.6068,5.6068,5.5688,5.5179,5.5179,5.5179,5.5179,5.5179,5.5179,5.5179,5.883,5.9039,5.9099,5.9099,5.9099,5.9099,5.9099,5.9099,5.9099,5.9099,5.9099,5.9099,5.9099,5.9099,5.9099,5.9099,5.9099,5.9099,5.9099,5.9099,5.9099,5.9099,5.9099,5.9099,5.9099,5.9099,5.9099,5.9099,5.9099,5.9099,5.9099,5.9099,5.9099,5.9099,5.9099,5.9099,5.9099,5.9099,5.9099,5.9099,5.9099,5.9099,5.9099,5.9099,5.9099,5.9099,5.9099,5.9099,5.9099,5.9099,5.9099,5.9099,5.9099,5.9099,5.9099,5.9099,5.9099,5.9099,5.9099,5.9099,5.9099,5.9099,5.9099,5.9099,5.9099,5.9099,5.9099,5.9099,5.9099,5.9099,5.9099,5.9099,5.9099,5.9099,5.9099,5.9099,5.9099,5.9099,5.9099,5.9099,5.9099,5.9099,5.9099,5.9099,5.9099,5.9099,5.9099,5.9099,5.9099,5.9009,5.8979,5.8979,5.8321,5.7992,5.7992,5.7304,5.6974,5.6974,5.7064,5.6526,5.5448,5.5448,5.5448,5.5448,5.5448,5.5388,5.5329,5.5329,5.5269,5.5179,5.5179,5.5179,5.5179,5.5179,5.5179,5.5179,5.8979,5.9099,5.9099,5.9099,5.9099,5.9099,5.9099,5.9099,5.9099,5.9099,5.9099,5.9099,5.9099,5.9099,5.9099,5.9099,5.9099,5.9099,5.9099,5.9099,5.9099,5.9099,5.9099,5.9099,5.9099,5.9099,5.9099,5.9099,5.9099,5.9099,5.9099,5.9099,5.9099,5.9099,5.9099,5.9099,5.9099,5.9099,5.9099,5.9099,5.9099,5.9099,5.9099,5.9099,5.9099,5.9099,5.9099,5.9099,5.9099,5.9099,5.9099,5.9099,5.9099,5.9099,5.9099,5.9099,5.9099,5.9099,5.9099,5.9099,5.9099,5.9099,5.9099,5.9099,5.9099,5.9099,5.9099,5.9099,5.9099,5.9099,5.9099,5.9099,5.9099,5.9099,5.9099,5.9099,5.9099,5.9099,5.9099,5.9099,5.9099,5.9099,5.9099,5.9099,5.9099,5.9099,5.9099,5.9099,5.9099,5.9099,5.9099,5.9099,5.883,5.868,5.868,5.7992,5.7663,5.7663,5.7274,5.6615,5.5748,5.5748,5.5538,5.5179,5.5179,5.5179,5.5179,5.5179,5.5179,5.5179,5.5179,5.5179,5.5179,5.5179,5.5179,5.5179]}]]